<?xml version="1.0" encoding="UTF-8"?>
<gpx version="1.1" creator="2bulu-scraper" xmlns="http://www.topografix.com/GPX/1/1">
  <metadata><name>:24方山越野跑</name><desc>source: 2bulu.com trackId=83253578; exported 2026-09-01T14:51:50.079Z</desc>
    <bounds minlat="28.816707" minlon="105.289833" maxlat="28.838761" maxlon="105.319952"/>
    <link href="https://www.2bulu.com/track/t-5TfAoN6Tx7rp%252FR2KBg5Tzw%253D%253D.htm"><text>2bulu 源页面</text></link>
  </metadata>
  <wpt lat="28.834464" lon="105.312896"><ele>469</ele><name>5公里处</name></wpt>
  <wpt lat="28.834391" lon="105.312852"><ele>467</ele><name></name></wpt>
  <wpt lat="28.834395" lon="105.312907"><ele>481</ele><name></name></wpt>
  <wpt lat="28.834311" lon="105.312969"><ele>494</ele><name></name></wpt>
  <wpt lat="28.834226" lon="105.31301"><ele>495</ele><name></name></wpt>
  <wpt lat="28.833597" lon="105.311494"><ele>549</ele><name></name></wpt>
  <wpt lat="28.833597" lon="105.311494"><ele>549</ele><name></name></wpt>
  <wpt lat="28.833597" lon="105.311494"><ele>549</ele><name></name></wpt>
  <wpt lat="28.832594" lon="105.3153"><ele>586</ele><name></name></wpt>
  <wpt lat="28.832549" lon="105.315315"><ele>587</ele><name></name></wpt>
  <wpt lat="28.829153" lon="105.316684"><ele>597</ele><name></name></wpt>
  <wpt lat="28.829086" lon="105.318149"><ele>566</ele><name>宅门</name></wpt>
  <wpt lat="28.829086" lon="105.318149"><ele>566</ele><name></name></wpt>
  <wpt lat="28.826635" lon="105.313834"><ele>593</ele><name></name></wpt>
  <wpt lat="28.826591" lon="105.313848"><ele>592</ele><name></name></wpt>
  <wpt lat="28.826081" lon="105.298954"><ele>499</ele><name></name></wpt>
  <wpt lat="28.826178" lon="105.298915"><ele>498</ele><name></name></wpt>
  <wpt lat="28.826439" lon="105.298909"><ele>498</ele><name></name></wpt>
  <wpt lat="28.829446" lon="105.297754"><ele>481</ele><name></name></wpt>
  <wpt lat="28.829517" lon="105.297688"><ele>481</ele><name></name></wpt>
  <wpt lat="28.832768" lon="105.289994"><ele>318</ele><name>终起点</name></wpt>
  <trk><name>:24方山越野跑</name>
      <trkseg>
        <trkpt lat="28.832341" lon="105.290966"><ele>331.4047</ele><time>2026-04-29T16:29:29.000Z</time></trkpt>
        <trkpt lat="28.832308" lon="105.291016"><ele>330.74313</ele><time>2026-04-29T16:29:33.000Z</time></trkpt>
        <trkpt lat="28.832291" lon="105.291076"><ele>331.08627</ele><time>2026-04-29T16:29:36.000Z</time></trkpt>
        <trkpt lat="28.832291" lon="105.291138"><ele>331.59515</ele><time>2026-04-29T16:29:39.000Z</time></trkpt>
        <trkpt lat="28.832294" lon="105.291208"><ele>332.41507</ele><time>2026-04-29T16:29:42.000Z</time></trkpt>
        <trkpt lat="28.832301" lon="105.291273"><ele>335.47018</ele><time>2026-04-29T16:29:45.000Z</time></trkpt>
        <trkpt lat="28.832307" lon="105.291338"><ele>336.21735</ele><time>2026-04-29T16:29:48.000Z</time></trkpt>
        <trkpt lat="28.832321" lon="105.291408"><ele>337.34573</ele><time>2026-04-29T16:29:51.000Z</time></trkpt>
        <trkpt lat="28.832334" lon="105.291466"><ele>337.96136</ele><time>2026-04-29T16:29:54.000Z</time></trkpt>
        <trkpt lat="28.832372" lon="105.291514"><ele>338.49887</ele><time>2026-04-29T16:29:57.000Z</time></trkpt>
        <trkpt lat="28.832411" lon="105.291556"><ele>339.40482</ele><time>2026-04-29T16:30:00.000Z</time></trkpt>
        <trkpt lat="28.832446" lon="105.291605"><ele>340.0232</ele><time>2026-04-29T16:30:03.000Z</time></trkpt>
        <trkpt lat="28.832496" lon="105.291644"><ele>340.20096</ele><time>2026-04-29T16:30:07.000Z</time></trkpt>
        <trkpt lat="28.832536" lon="105.291691"><ele>340.59183</ele><time>2026-04-29T16:30:11.000Z</time></trkpt>
        <trkpt lat="28.832577" lon="105.291722"><ele>342.18158</ele><time>2026-04-29T16:30:14.000Z</time></trkpt>
        <trkpt lat="28.832619" lon="105.291765"><ele>343.5107</ele><time>2026-04-29T16:30:18.000Z</time></trkpt>
        <trkpt lat="28.832669" lon="105.291797"><ele>343.89108</ele><time>2026-04-29T16:30:22.000Z</time></trkpt>
        <trkpt lat="28.832714" lon="105.291825"><ele>344.40942</ele><time>2026-04-29T16:30:25.000Z</time></trkpt>
        <trkpt lat="28.832751" lon="105.29186"><ele>345.3871</ele><time>2026-04-29T16:30:28.000Z</time></trkpt>
        <trkpt lat="28.832755" lon="105.291935"><ele>346.37122</ele><time>2026-04-29T16:30:32.000Z</time></trkpt>
        <trkpt lat="28.832749" lon="105.291996"><ele>347.86655</ele><time>2026-04-29T16:30:36.000Z</time></trkpt>
        <trkpt lat="28.83273" lon="105.292055"><ele>348.41736</ele><time>2026-04-29T16:30:40.000Z</time></trkpt>
        <trkpt lat="28.832706" lon="105.292101"><ele>349.87173</ele><time>2026-04-29T16:30:43.000Z</time></trkpt>
        <trkpt lat="28.832698" lon="105.292155"><ele>350.3961</ele><time>2026-04-29T16:30:46.000Z</time></trkpt>
        <trkpt lat="28.832673" lon="105.292209"><ele>351.48212</ele><time>2026-04-29T16:30:49.000Z</time></trkpt>
        <trkpt lat="28.832632" lon="105.29224"><ele>351.89737</ele><time>2026-04-29T16:30:51.000Z</time></trkpt>
        <trkpt lat="28.832569" lon="105.292245"><ele>352.9532</ele><time>2026-04-29T16:30:54.000Z</time></trkpt>
        <trkpt lat="28.832518" lon="105.292225"><ele>353.11206</ele><time>2026-04-29T16:30:57.000Z</time></trkpt>
        <trkpt lat="28.832475" lon="105.292207"><ele>353.72052</ele><time>2026-04-29T16:30:59.000Z</time></trkpt>
        <trkpt lat="28.832419" lon="105.292196"><ele>353.6884</ele><time>2026-04-29T16:31:02.000Z</time></trkpt>
        <trkpt lat="28.832368" lon="105.292214"><ele>353.9288</ele><time>2026-04-29T16:31:05.000Z</time></trkpt>
        <trkpt lat="28.832319" lon="105.292238"><ele>354.0625</ele><time>2026-04-29T16:31:08.000Z</time></trkpt>
        <trkpt lat="28.832294" lon="105.292287"><ele>354.3783</ele><time>2026-04-29T16:31:11.000Z</time></trkpt>
        <trkpt lat="28.832291" lon="105.292348"><ele>356.31216</ele><time>2026-04-29T16:31:15.000Z</time></trkpt>
        <trkpt lat="28.832318" lon="105.292396"><ele>357.04837</ele><time>2026-04-29T16:31:18.000Z</time></trkpt>
        <trkpt lat="28.832356" lon="105.292438"><ele>357.96313</ele><time>2026-04-29T16:31:23.000Z</time></trkpt>
        <trkpt lat="28.832393" lon="105.292474"><ele>359.00006</ele><time>2026-04-29T16:31:26.000Z</time></trkpt>
        <trkpt lat="28.832423" lon="105.292537"><ele>360.05878</ele><time>2026-04-29T16:31:30.000Z</time></trkpt>
        <trkpt lat="28.832469" lon="105.292571"><ele>361.68927</ele><time>2026-04-29T16:31:34.000Z</time></trkpt>
        <trkpt lat="28.832512" lon="105.292618"><ele>362.0775</ele><time>2026-04-29T16:31:38.000Z</time></trkpt>
        <trkpt lat="28.832544" lon="105.292661"><ele>362.42645</ele><time>2026-04-29T16:31:41.000Z</time></trkpt>
        <trkpt lat="28.832586" lon="105.292697"><ele>363.27567</ele><time>2026-04-29T16:31:44.000Z</time></trkpt>
        <trkpt lat="28.832626" lon="105.292732"><ele>363.68024</ele><time>2026-04-29T16:31:49.000Z</time></trkpt>
        <trkpt lat="28.832669" lon="105.292778"><ele>364.331</ele><time>2026-04-29T16:31:53.000Z</time></trkpt>
        <trkpt lat="28.832703" lon="105.29282"><ele>364.48447</ele><time>2026-04-29T16:31:57.000Z</time></trkpt>
        <trkpt lat="28.832741" lon="105.292853"><ele>365.55444</ele><time>2026-04-29T16:32:00.000Z</time></trkpt>
        <trkpt lat="28.832766" lon="105.292899"><ele>366.75967</ele><time>2026-04-29T16:32:04.000Z</time></trkpt>
        <trkpt lat="28.832795" lon="105.292943"><ele>368.30124</ele><time>2026-04-29T16:32:07.000Z</time></trkpt>
        <trkpt lat="28.832803" lon="105.293008"><ele>369.26593</ele><time>2026-04-29T16:32:11.000Z</time></trkpt>
        <trkpt lat="28.832785" lon="105.293071"><ele>371.07886</ele><time>2026-04-29T16:32:15.000Z</time></trkpt>
        <trkpt lat="28.832746" lon="105.2931"><ele>372.55722</ele><time>2026-04-29T16:32:18.000Z</time></trkpt>
        <trkpt lat="28.832696" lon="105.293129"><ele>374.29385</ele><time>2026-04-29T16:32:22.000Z</time></trkpt>
        <trkpt lat="28.832655" lon="105.293151"><ele>375.24115</ele><time>2026-04-29T16:32:25.000Z</time></trkpt>
        <trkpt lat="28.832598" lon="105.293161"><ele>376.412</ele><time>2026-04-29T16:32:29.000Z</time></trkpt>
        <trkpt lat="28.832569" lon="105.293216"><ele>376.2119</ele><time>2026-04-29T16:32:33.000Z</time></trkpt>
        <trkpt lat="28.832525" lon="105.293258"><ele>376.6731</ele><time>2026-04-29T16:32:37.000Z</time></trkpt>
        <trkpt lat="28.83247" lon="105.293298"><ele>377.3306</ele><time>2026-04-29T16:32:41.000Z</time></trkpt>
        <trkpt lat="28.832426" lon="105.293334"><ele>378.8332</ele><time>2026-04-29T16:32:45.000Z</time></trkpt>
        <trkpt lat="28.832445" lon="105.293407"><ele>378.44528</ele><time>2026-04-29T16:32:48.000Z</time></trkpt>
        <trkpt lat="28.832458" lon="105.293459"><ele>378.94064</ele><time>2026-04-29T16:32:51.000Z</time></trkpt>
        <trkpt lat="28.832441" lon="105.293518"><ele>378.99298</ele><time>2026-04-29T16:32:54.000Z</time></trkpt>
        <trkpt lat="28.832446" lon="105.293578"><ele>379.623</ele><time>2026-04-29T16:32:57.000Z</time></trkpt>
        <trkpt lat="28.832449" lon="105.29364"><ele>380.30396</ele><time>2026-04-29T16:33:01.000Z</time></trkpt>
        <trkpt lat="28.832451" lon="105.293693"><ele>380.9603</ele><time>2026-04-29T16:33:04.000Z</time></trkpt>
        <trkpt lat="28.832464" lon="105.293746"><ele>381.1699</ele><time>2026-04-29T16:33:07.000Z</time></trkpt>
        <trkpt lat="28.832494" lon="105.293799"><ele>383.47275</ele><time>2026-04-29T16:33:12.000Z</time></trkpt>
        <trkpt lat="28.832528" lon="105.293856"><ele>383.66196</ele><time>2026-04-29T16:33:15.000Z</time></trkpt>
        <trkpt lat="28.832551" lon="105.293913"><ele>384.786</ele><time>2026-04-29T16:33:18.000Z</time></trkpt>
        <trkpt lat="28.832582" lon="105.293954"><ele>386.3412</ele><time>2026-04-29T16:33:21.000Z</time></trkpt>
        <trkpt lat="28.832594" lon="105.294009"><ele>387.11444</ele><time>2026-04-29T16:33:25.000Z</time></trkpt>
        <trkpt lat="28.832605" lon="105.294059"><ele>388.49167</ele><time>2026-04-29T16:33:30.000Z</time></trkpt>
        <trkpt lat="28.832577" lon="105.294111"><ele>390.36136</ele><time>2026-04-29T16:33:35.000Z</time></trkpt>
        <trkpt lat="28.832566" lon="105.294171"><ele>389.8962</ele><time>2026-04-29T16:33:38.000Z</time></trkpt>
        <trkpt lat="28.832574" lon="105.294244"><ele>390.98938</ele><time>2026-04-29T16:33:41.000Z</time></trkpt>
        <trkpt lat="28.832588" lon="105.294313"><ele>392.8284</ele><time>2026-04-29T16:33:45.000Z</time></trkpt>
        <trkpt lat="28.832559" lon="105.294373"><ele>395.5376</ele><time>2026-04-29T16:33:51.000Z</time></trkpt>
        <trkpt lat="28.83255" lon="105.294424"><ele>397.33945</ele><time>2026-04-29T16:33:57.000Z</time></trkpt>
        <trkpt lat="28.832546" lon="105.294475"><ele>398.39334</ele><time>2026-04-29T16:34:02.000Z</time></trkpt>
        <trkpt lat="28.832522" lon="105.294527"><ele>400.424</ele><time>2026-04-29T16:34:11.000Z</time></trkpt>
        <trkpt lat="28.83249" lon="105.294565"><ele>400.92978</ele><time>2026-04-29T16:34:18.000Z</time></trkpt>
        <trkpt lat="28.832443" lon="105.294589"><ele>402.39954</ele><time>2026-04-29T16:34:25.000Z</time></trkpt>
        <trkpt lat="28.832414" lon="105.294634"><ele>403.61975</ele><time>2026-04-29T16:34:33.000Z</time></trkpt>
        <trkpt lat="28.832368" lon="105.294645"><ele>406.08417</ele><time>2026-04-29T16:34:42.000Z</time></trkpt>
        <trkpt lat="28.83233" lon="105.294681"><ele>406.0767</ele><time>2026-04-29T16:34:49.000Z</time></trkpt>
        <trkpt lat="28.832296" lon="105.294723"><ele>408.15814</ele><time>2026-04-29T16:34:56.000Z</time></trkpt>
        <trkpt lat="28.832261" lon="105.294757"><ele>409.55685</ele><time>2026-04-29T16:35:02.000Z</time></trkpt>
        <trkpt lat="28.832232" lon="105.294798"><ele>410.44174</ele><time>2026-04-29T16:35:10.000Z</time></trkpt>
        <trkpt lat="28.832198" lon="105.294837"><ele>412.7138</ele><time>2026-04-29T16:35:18.000Z</time></trkpt>
        <trkpt lat="28.832159" lon="105.29487"><ele>415.02853</ele><time>2026-04-29T16:35:25.000Z</time></trkpt>
        <trkpt lat="28.83212" lon="105.294914"><ele>417.07214</ele><time>2026-04-29T16:35:30.000Z</time></trkpt>
        <trkpt lat="28.832077" lon="105.294951"><ele>418.95428</ele><time>2026-04-29T16:35:34.000Z</time></trkpt>
        <trkpt lat="28.832022" lon="105.294969"><ele>420.53113</ele><time>2026-04-29T16:35:38.000Z</time></trkpt>
        <trkpt lat="28.831973" lon="105.295004"><ele>421.43518</ele><time>2026-04-29T16:35:41.000Z</time></trkpt>
        <trkpt lat="28.831905" lon="105.295013"><ele>423.45255</ele><time>2026-04-29T16:35:44.000Z</time></trkpt>
        <trkpt lat="28.831858" lon="105.295053"><ele>424.6121</ele><time>2026-04-29T16:35:47.000Z</time></trkpt>
        <trkpt lat="28.831814" lon="105.295076"><ele>425.76013</ele><time>2026-04-29T16:35:50.000Z</time></trkpt>
        <trkpt lat="28.831774" lon="105.295053"><ele>429.29202</ele><time>2026-04-29T16:35:52.000Z</time></trkpt>
        <trkpt lat="28.831717" lon="105.295064"><ele>430.9578</ele><time>2026-04-29T16:35:56.000Z</time></trkpt>
        <trkpt lat="28.83167" lon="105.295053"><ele>431.7386</ele><time>2026-04-29T16:35:59.000Z</time></trkpt>
        <trkpt lat="28.831612" lon="105.295037"><ele>432.36835</ele><time>2026-04-29T16:36:03.000Z</time></trkpt>
        <trkpt lat="28.831564" lon="105.295023"><ele>431.91083</ele><time>2026-04-29T16:36:07.000Z</time></trkpt>
        <trkpt lat="28.831513" lon="105.295043"><ele>431.72562</ele><time>2026-04-29T16:36:11.000Z</time></trkpt>
        <trkpt lat="28.831466" lon="105.295077"><ele>433.66278</ele><time>2026-04-29T16:36:14.000Z</time></trkpt>
        <trkpt lat="28.83143" lon="105.295113"><ele>434.5304</ele><time>2026-04-29T16:36:17.000Z</time></trkpt>
        <trkpt lat="28.831378" lon="105.295096"><ele>437.2153</ele><time>2026-04-29T16:36:20.000Z</time></trkpt>
        <trkpt lat="28.831331" lon="105.295125"><ele>438.61618</ele><time>2026-04-29T16:36:23.000Z</time></trkpt>
        <trkpt lat="28.831278" lon="105.295136"><ele>438.95493</ele><time>2026-04-29T16:36:26.000Z</time></trkpt>
        <trkpt lat="28.831265" lon="105.295195"><ele>438.26328</ele><time>2026-04-29T16:36:29.000Z</time></trkpt>
        <trkpt lat="28.831242" lon="105.295253"><ele>439.97913</ele><time>2026-04-29T16:36:33.000Z</time></trkpt>
        <trkpt lat="28.831236" lon="105.295319"><ele>441.72623</ele><time>2026-04-29T16:36:37.000Z</time></trkpt>
        <trkpt lat="28.831237" lon="105.295371"><ele>441.05768</ele><time>2026-04-29T16:36:42.000Z</time></trkpt>
        <trkpt lat="28.831192" lon="105.295396"><ele>445.78986</ele><time>2026-04-29T16:36:50.000Z</time></trkpt>
        <trkpt lat="28.831146" lon="105.295417"><ele>447.4855</ele><time>2026-04-29T16:36:54.000Z</time></trkpt>
        <trkpt lat="28.831099" lon="105.295428"><ele>448.4842</ele><time>2026-04-29T16:37:12.000Z</time></trkpt>
        <trkpt lat="28.831042" lon="105.295425"><ele>449.1203</ele><time>2026-04-29T16:37:17.000Z</time></trkpt>
        <trkpt lat="28.830994" lon="105.295408"><ele>450.43164</ele><time>2026-04-29T16:37:22.000Z</time></trkpt>
        <trkpt lat="28.830935" lon="105.295429"><ele>452.0121</ele><time>2026-04-29T16:37:26.000Z</time></trkpt>
        <trkpt lat="28.830879" lon="105.295443"><ele>453.4689</ele><time>2026-04-29T16:37:30.000Z</time></trkpt>
        <trkpt lat="28.830827" lon="105.29546"><ele>455.48038</ele><time>2026-04-29T16:37:34.000Z</time></trkpt>
        <trkpt lat="28.830785" lon="105.295493"><ele>455.2935</ele><time>2026-04-29T16:37:37.000Z</time></trkpt>
        <trkpt lat="28.830752" lon="105.295532"><ele>456.41953</ele><time>2026-04-29T16:37:40.000Z</time></trkpt>
        <trkpt lat="28.830792" lon="105.295573"><ele>457.40796</ele><time>2026-04-29T16:37:43.000Z</time></trkpt>
        <trkpt lat="28.830837" lon="105.295562"><ele>458.013</ele><time>2026-04-29T16:37:45.000Z</time></trkpt>
        <trkpt lat="28.830888" lon="105.29558"><ele>457.98047</ele><time>2026-04-29T16:37:48.000Z</time></trkpt>
        <trkpt lat="28.830935" lon="105.295605"><ele>459.9778</ele><time>2026-04-29T16:37:50.000Z</time></trkpt>
        <trkpt lat="28.830986" lon="105.295634"><ele>463.63757</ele><time>2026-04-29T16:37:54.000Z</time></trkpt>
        <trkpt lat="28.831035" lon="105.295645"><ele>466.334</ele><time>2026-04-29T16:37:56.000Z</time></trkpt>
        <trkpt lat="28.831086" lon="105.295678"><ele>468.2509</ele><time>2026-04-29T16:37:59.000Z</time></trkpt>
        <trkpt lat="28.831119" lon="105.295721"><ele>470.00317</ele><time>2026-04-29T16:38:02.000Z</time></trkpt>
        <trkpt lat="28.831132" lon="105.295796"><ele>471.4967</ele><time>2026-04-29T16:38:05.000Z</time></trkpt>
        <trkpt lat="28.831096" lon="105.295837"><ele>472.7206</ele><time>2026-04-29T16:38:09.000Z</time></trkpt>
        <trkpt lat="28.831046" lon="105.295866"><ele>473.61383</ele><time>2026-04-29T16:38:15.000Z</time></trkpt>
        <trkpt lat="28.830999" lon="105.295875"><ele>474.70782</ele><time>2026-04-29T16:38:20.000Z</time></trkpt>
        <trkpt lat="28.830983" lon="105.295924"><ele>475.99393</ele><time>2026-04-29T16:38:26.000Z</time></trkpt>
        <trkpt lat="28.830975" lon="105.295981"><ele>476.42337</ele><time>2026-04-29T16:38:31.000Z</time></trkpt>
        <trkpt lat="28.830979" lon="105.29604"><ele>476.95642</ele><time>2026-04-29T16:38:36.000Z</time></trkpt>
        <trkpt lat="28.830986" lon="105.296101"><ele>478.20743</ele><time>2026-04-29T16:38:42.000Z</time></trkpt>
        <trkpt lat="28.831001" lon="105.296151"><ele>479.40796</ele><time>2026-04-29T16:38:48.000Z</time></trkpt>
        <trkpt lat="28.831016" lon="105.296205"><ele>480.0943</ele><time>2026-04-29T16:38:53.000Z</time></trkpt>
        <trkpt lat="28.831035" lon="105.296256"><ele>482.95984</ele><time>2026-04-29T16:39:02.000Z</time></trkpt>
        <trkpt lat="28.831077" lon="105.296294"><ele>485.09442</ele><time>2026-04-29T16:39:11.000Z</time></trkpt>
        <trkpt lat="28.831133" lon="105.296294"><ele>485.9687</ele><time>2026-04-29T16:39:16.000Z</time></trkpt>
        <trkpt lat="28.831152" lon="105.296341"><ele>486.86368</ele><time>2026-04-29T16:39:22.000Z</time></trkpt>
        <trkpt lat="28.831137" lon="105.296397"><ele>490.48563</ele><time>2026-04-29T16:39:29.000Z</time></trkpt>
        <trkpt lat="28.831105" lon="105.296441"><ele>491.36072</ele><time>2026-04-29T16:39:34.000Z</time></trkpt>
        <trkpt lat="28.831067" lon="105.296476"><ele>493.0054</ele><time>2026-04-29T16:39:38.000Z</time></trkpt>
        <trkpt lat="28.83103" lon="105.296514"><ele>495.76578</ele><time>2026-04-29T16:39:43.000Z</time></trkpt>
        <trkpt lat="28.831034" lon="105.296565"><ele>495.3034</ele><time>2026-04-29T16:39:47.000Z</time></trkpt>
        <trkpt lat="28.831011" lon="105.296614"><ele>499.6868</ele><time>2026-04-29T16:39:53.000Z</time></trkpt>
        <trkpt lat="28.830981" lon="105.29666"><ele>503.66876</ele><time>2026-04-29T16:40:04.000Z</time></trkpt>
        <trkpt lat="28.831029" lon="105.296659"><ele>504.49695</ele><time>2026-04-29T16:40:16.000Z</time></trkpt>
        <trkpt lat="28.831081" lon="105.296645"><ele>505.2495</ele><time>2026-04-29T16:40:22.000Z</time></trkpt>
        <trkpt lat="28.831125" lon="105.296659"><ele>506.2449</ele><time>2026-04-29T16:40:29.000Z</time></trkpt>
        <trkpt lat="28.831143" lon="105.29671"><ele>509.12097</ele><time>2026-04-29T16:40:38.000Z</time></trkpt>
        <trkpt lat="28.831162" lon="105.296757"><ele>510.58932</ele><time>2026-04-29T16:40:50.000Z</time></trkpt>
        <trkpt lat="28.831201" lon="105.296785"><ele>511.94473</ele><time>2026-04-29T16:40:57.000Z</time></trkpt>
        <trkpt lat="28.831223" lon="105.296835"><ele>515.14655</ele><time>2026-04-29T16:41:05.000Z</time></trkpt>
        <trkpt lat="28.831239" lon="105.296891"><ele>515.9521</ele><time>2026-04-29T16:41:14.000Z</time></trkpt>
        <trkpt lat="28.831285" lon="105.296917"><ele>519.844</ele><time>2026-04-29T16:41:24.000Z</time></trkpt>
        <trkpt lat="28.831317" lon="105.29696"><ele>521.5718</ele><time>2026-04-29T16:41:31.000Z</time></trkpt>
        <trkpt lat="28.831347" lon="105.297003"><ele>522.95264</ele><time>2026-04-29T16:41:35.000Z</time></trkpt>
        <trkpt lat="28.831396" lon="105.297019"><ele>524.9772</ele><time>2026-04-29T16:41:42.000Z</time></trkpt>
        <trkpt lat="28.831435" lon="105.297055"><ele>525.4997</ele><time>2026-04-29T16:41:47.000Z</time></trkpt>
        <trkpt lat="28.831434" lon="105.297112"><ele>527.56616</ele><time>2026-04-29T16:41:53.000Z</time></trkpt>
        <trkpt lat="28.831445" lon="105.297164"><ele>530.7135</ele><time>2026-04-29T16:42:01.000Z</time></trkpt>
        <trkpt lat="28.831474" lon="105.297208"><ele>532.65125</ele><time>2026-04-29T16:42:12.000Z</time></trkpt>
        <trkpt lat="28.831492" lon="105.297259"><ele>535.0076</ele><time>2026-04-29T16:42:22.000Z</time></trkpt>
        <trkpt lat="28.831484" lon="105.297322"><ele>536.62787</ele><time>2026-04-29T16:42:31.000Z</time></trkpt>
        <trkpt lat="28.831485" lon="105.297374"><ele>535.89996</ele><time>2026-04-29T16:42:38.000Z</time></trkpt>
        <trkpt lat="28.831458" lon="105.297421"><ele>541.95575</ele><time>2026-04-29T16:42:46.000Z</time></trkpt>
        <trkpt lat="28.831446" lon="105.297478"><ele>544.5678</ele><time>2026-04-29T16:43:04.000Z</time></trkpt>
        <trkpt lat="28.831431" lon="105.297534"><ele>546.8053</ele><time>2026-04-29T16:43:13.000Z</time></trkpt>
        <trkpt lat="28.831389" lon="105.297564"><ele>551.26874</ele><time>2026-04-29T16:43:19.000Z</time></trkpt>
        <trkpt lat="28.831411" lon="105.297613"><ele>552.8084</ele><time>2026-04-29T16:43:30.000Z</time></trkpt>
        <trkpt lat="28.831447" lon="105.297645"><ele>555.4596</ele><time>2026-04-29T16:43:37.000Z</time></trkpt>
        <trkpt lat="28.831486" lon="105.297679"><ele>559.0421</ele><time>2026-04-29T16:43:48.000Z</time></trkpt>
        <trkpt lat="28.831536" lon="105.297679"><ele>561.1508</ele><time>2026-04-29T16:43:59.000Z</time></trkpt>
        <trkpt lat="28.831558" lon="105.297724"><ele>562.63367</ele><time>2026-04-29T16:44:05.000Z</time></trkpt>
        <trkpt lat="28.831513" lon="105.297755"><ele>566.34344</ele><time>2026-04-29T16:44:12.000Z</time></trkpt>
        <trkpt lat="28.831469" lon="105.297772"><ele>566.9455</ele><time>2026-04-29T16:44:21.000Z</time></trkpt>
        <trkpt lat="28.831429" lon="105.297796"><ele>567.5212</ele><time>2026-04-29T16:44:28.000Z</time></trkpt>
        <trkpt lat="28.831389" lon="105.297833"><ele>568.71423</ele><time>2026-04-29T16:44:36.000Z</time></trkpt>
        <trkpt lat="28.83135" lon="105.297861"><ele>568.63824</ele><time>2026-04-29T16:44:42.000Z</time></trkpt>
        <trkpt lat="28.83132" lon="105.297901"><ele>570.38324</ele><time>2026-04-29T16:44:48.000Z</time></trkpt>
        <trkpt lat="28.831283" lon="105.297947"><ele>571.2669</ele><time>2026-04-29T16:44:55.000Z</time></trkpt>
        <trkpt lat="28.831295" lon="105.298002"><ele>571.5926</ele><time>2026-04-29T16:45:03.000Z</time></trkpt>
        <trkpt lat="28.831279" lon="105.298065"><ele>571.65894</ele><time>2026-04-29T16:45:11.000Z</time></trkpt>
        <trkpt lat="28.831268" lon="105.298115"><ele>576.5585</ele><time>2026-04-29T16:45:16.000Z</time></trkpt>
        <trkpt lat="28.831317" lon="105.298096"><ele>577.97437</ele><time>2026-04-29T16:45:24.000Z</time></trkpt>
        <trkpt lat="28.831337" lon="105.298046"><ele>578.70325</ele><time>2026-04-29T16:45:30.000Z</time></trkpt>
        <trkpt lat="28.831366" lon="105.297989"><ele>577.3952</ele><time>2026-04-29T16:45:34.000Z</time></trkpt>
        <trkpt lat="28.831402" lon="105.297934"><ele>576.4492</ele><time>2026-04-29T16:45:39.000Z</time></trkpt>
        <trkpt lat="28.831449" lon="105.297906"><ele>574.5534</ele><time>2026-04-29T16:45:43.000Z</time></trkpt>
        <trkpt lat="28.831502" lon="105.297872"><ele>573.06256</ele><time>2026-04-29T16:45:48.000Z</time></trkpt>
        <trkpt lat="28.831543" lon="105.297848"><ele>572.42346</ele><time>2026-04-29T16:45:51.000Z</time></trkpt>
        <trkpt lat="28.831585" lon="105.297816"><ele>571.1256</ele><time>2026-04-29T16:45:55.000Z</time></trkpt>
        <trkpt lat="28.831627" lon="105.297795"><ele>569.7561</ele><time>2026-04-29T16:45:59.000Z</time></trkpt>
        <trkpt lat="28.831667" lon="105.297767"><ele>570.1818</ele><time>2026-04-29T16:46:02.000Z</time></trkpt>
        <trkpt lat="28.831719" lon="105.297741"><ele>569.21027</ele><time>2026-04-29T16:46:05.000Z</time></trkpt>
        <trkpt lat="28.831765" lon="105.29773"><ele>567.4247</ele><time>2026-04-29T16:46:10.000Z</time></trkpt>
        <trkpt lat="28.831805" lon="105.297699"><ele>566.9563</ele><time>2026-04-29T16:46:13.000Z</time></trkpt>
        <trkpt lat="28.831853" lon="105.297674"><ele>563.5768</ele><time>2026-04-29T16:46:17.000Z</time></trkpt>
        <trkpt lat="28.831897" lon="105.297648"><ele>560.1948</ele><time>2026-04-29T16:46:21.000Z</time></trkpt>
        <trkpt lat="28.831952" lon="105.29763"><ele>557.865</ele><time>2026-04-29T16:46:25.000Z</time></trkpt>
        <trkpt lat="28.832011" lon="105.297642"><ele>555.0714</ele><time>2026-04-29T16:46:30.000Z</time></trkpt>
        <trkpt lat="28.832051" lon="105.297671"><ele>553.5707</ele><time>2026-04-29T16:46:33.000Z</time></trkpt>
        <trkpt lat="28.832103" lon="105.297687"><ele>551.6638</ele><time>2026-04-29T16:46:37.000Z</time></trkpt>
        <trkpt lat="28.832119" lon="105.297739"><ele>550.70197</ele><time>2026-04-29T16:46:40.000Z</time></trkpt>
        <trkpt lat="28.832134" lon="105.297802"><ele>550.5489</ele><time>2026-04-29T16:46:44.000Z</time></trkpt>
        <trkpt lat="28.83218" lon="105.297838"><ele>549.5085</ele><time>2026-04-29T16:46:47.000Z</time></trkpt>
        <trkpt lat="28.83222" lon="105.297793"><ele>549.573</ele><time>2026-04-29T16:46:50.000Z</time></trkpt>
        <trkpt lat="28.832213" lon="105.297737"><ele>547.22406</ele><time>2026-04-29T16:46:53.000Z</time></trkpt>
        <trkpt lat="28.832201" lon="105.29767"><ele>547.1098</ele><time>2026-04-29T16:46:56.000Z</time></trkpt>
        <trkpt lat="28.832196" lon="105.297612"><ele>545.87415</ele><time>2026-04-29T16:46:59.000Z</time></trkpt>
        <trkpt lat="28.832211" lon="105.297559"><ele>546.647</ele><time>2026-04-29T16:47:02.000Z</time></trkpt>
        <trkpt lat="28.832208" lon="105.297491"><ele>545.1332</ele><time>2026-04-29T16:47:06.000Z</time></trkpt>
        <trkpt lat="28.832222" lon="105.297431"><ele>542.6646</ele><time>2026-04-29T16:47:11.000Z</time></trkpt>
        <trkpt lat="28.832235" lon="105.297378"><ele>542.63043</ele><time>2026-04-29T16:47:13.000Z</time></trkpt>
        <trkpt lat="28.832265" lon="105.297323"><ele>541.1058</ele><time>2026-04-29T16:47:17.000Z</time></trkpt>
        <trkpt lat="28.832322" lon="105.297298"><ele>539.3996</ele><time>2026-04-29T16:47:21.000Z</time></trkpt>
        <trkpt lat="28.832355" lon="105.297349"><ele>538.5887</ele><time>2026-04-29T16:47:25.000Z</time></trkpt>
        <trkpt lat="28.832347" lon="105.297407"><ele>537.7973</ele><time>2026-04-29T16:47:28.000Z</time></trkpt>
        <trkpt lat="28.832349" lon="105.297466"><ele>538.05835</ele><time>2026-04-29T16:47:32.000Z</time></trkpt>
        <trkpt lat="28.832339" lon="105.297524"><ele>538.4641</ele><time>2026-04-29T16:47:36.000Z</time></trkpt>
        <trkpt lat="28.832357" lon="105.29758"><ele>538.24713</ele><time>2026-04-29T16:47:40.000Z</time></trkpt>
        <trkpt lat="28.832364" lon="105.297635"><ele>538.865</ele><time>2026-04-29T16:47:43.000Z</time></trkpt>
        <trkpt lat="28.832398" lon="105.2977"><ele>538.38446</ele><time>2026-04-29T16:47:46.000Z</time></trkpt>
        <trkpt lat="28.832444" lon="105.29775"><ele>538.47955</ele><time>2026-04-29T16:47:49.000Z</time></trkpt>
        <trkpt lat="28.832492" lon="105.297801"><ele>538.3983</ele><time>2026-04-29T16:47:52.000Z</time></trkpt>
        <trkpt lat="28.832532" lon="105.297848"><ele>537.76624</ele><time>2026-04-29T16:47:55.000Z</time></trkpt>
        <trkpt lat="28.832509" lon="105.297899"><ele>537.0536</ele><time>2026-04-29T16:47:58.000Z</time></trkpt>
        <trkpt lat="28.832481" lon="105.297945"><ele>536.9177</ele><time>2026-04-29T16:48:01.000Z</time></trkpt>
        <trkpt lat="28.832438" lon="105.297988"><ele>536.54297</ele><time>2026-04-29T16:48:05.000Z</time></trkpt>
        <trkpt lat="28.832398" lon="105.298023"><ele>536.122</ele><time>2026-04-29T16:48:10.000Z</time></trkpt>
        <trkpt lat="28.832364" lon="105.29807"><ele>536.26086</ele><time>2026-04-29T16:48:15.000Z</time></trkpt>
        <trkpt lat="28.832329" lon="105.298102"><ele>536.19806</ele><time>2026-04-29T16:48:18.000Z</time></trkpt>
        <trkpt lat="28.832293" lon="105.298156"><ele>535.9303</ele><time>2026-04-29T16:48:22.000Z</time></trkpt>
        <trkpt lat="28.832273" lon="105.298215"><ele>535.7504</ele><time>2026-04-29T16:48:26.000Z</time></trkpt>
        <trkpt lat="28.832252" lon="105.298276"><ele>535.4286</ele><time>2026-04-29T16:48:30.000Z</time></trkpt>
        <trkpt lat="28.832212" lon="105.298324"><ele>535.2655</ele><time>2026-04-29T16:48:33.000Z</time></trkpt>
        <trkpt lat="28.832172" lon="105.298365"><ele>535.182</ele><time>2026-04-29T16:48:36.000Z</time></trkpt>
        <trkpt lat="28.832137" lon="105.29841"><ele>535.0413</ele><time>2026-04-29T16:48:39.000Z</time></trkpt>
        <trkpt lat="28.832105" lon="105.29845"><ele>534.6344</ele><time>2026-04-29T16:48:41.000Z</time></trkpt>
        <trkpt lat="28.832073" lon="105.298508"><ele>535.7127</ele><time>2026-04-29T16:48:44.000Z</time></trkpt>
        <trkpt lat="28.832043" lon="105.298559"><ele>535.45496</ele><time>2026-04-29T16:48:47.000Z</time></trkpt>
        <trkpt lat="28.832012" lon="105.298606"><ele>534.57184</ele><time>2026-04-29T16:48:50.000Z</time></trkpt>
        <trkpt lat="28.831981" lon="105.298648"><ele>534.3403</ele><time>2026-04-29T16:48:52.000Z</time></trkpt>
        <trkpt lat="28.831949" lon="105.298691"><ele>534.22675</ele><time>2026-04-29T16:48:55.000Z</time></trkpt>
        <trkpt lat="28.831899" lon="105.298737"><ele>533.16656</ele><time>2026-04-29T16:48:58.000Z</time></trkpt>
        <trkpt lat="28.831861" lon="105.298786"><ele>532.67444</ele><time>2026-04-29T16:49:01.000Z</time></trkpt>
        <trkpt lat="28.831837" lon="105.298857"><ele>533.3137</ele><time>2026-04-29T16:49:04.000Z</time></trkpt>
        <trkpt lat="28.831834" lon="105.298921"><ele>534.25635</ele><time>2026-04-29T16:49:07.000Z</time></trkpt>
        <trkpt lat="28.831812" lon="105.298975"><ele>534.9588</ele><time>2026-04-29T16:49:10.000Z</time></trkpt>
        <trkpt lat="28.831837" lon="105.299031"><ele>534.66986</ele><time>2026-04-29T16:49:12.000Z</time></trkpt>
        <trkpt lat="28.831833" lon="105.299084"><ele>533.99084</ele><time>2026-04-29T16:49:15.000Z</time></trkpt>
        <trkpt lat="28.831864" lon="105.299146"><ele>533.8957</ele><time>2026-04-29T16:49:18.000Z</time></trkpt>
        <trkpt lat="28.831887" lon="105.299194"><ele>533.3922</ele><time>2026-04-29T16:49:20.000Z</time></trkpt>
        <trkpt lat="28.8319" lon="105.299254"><ele>532.64044</ele><time>2026-04-29T16:49:23.000Z</time></trkpt>
        <trkpt lat="28.831913" lon="105.299304"><ele>531.67596</ele><time>2026-04-29T16:49:25.000Z</time></trkpt>
        <trkpt lat="28.831907" lon="105.299372"><ele>531.7879</ele><time>2026-04-29T16:49:28.000Z</time></trkpt>
        <trkpt lat="28.831904" lon="105.299438"><ele>530.7258</ele><time>2026-04-29T16:49:31.000Z</time></trkpt>
        <trkpt lat="28.831906" lon="105.299495"><ele>530.2446</ele><time>2026-04-29T16:49:34.000Z</time></trkpt>
        <trkpt lat="28.831899" lon="105.299564"><ele>528.9812</ele><time>2026-04-29T16:49:37.000Z</time></trkpt>
        <trkpt lat="28.831895" lon="105.299619"><ele>528.9952</ele><time>2026-04-29T16:49:39.000Z</time></trkpt>
        <trkpt lat="28.831865" lon="105.299684"><ele>530.1431</ele><time>2026-04-29T16:49:42.000Z</time></trkpt>
        <trkpt lat="28.831825" lon="105.29974"><ele>529.2107</ele><time>2026-04-29T16:49:45.000Z</time></trkpt>
        <trkpt lat="28.831794" lon="105.299804"><ele>530.5079</ele><time>2026-04-29T16:49:48.000Z</time></trkpt>
        <trkpt lat="28.831764" lon="105.299871"><ele>531.98315</ele><time>2026-04-29T16:49:51.000Z</time></trkpt>
        <trkpt lat="28.831732" lon="105.299936"><ele>532.6442</ele><time>2026-04-29T16:49:54.000Z</time></trkpt>
        <trkpt lat="28.831732" lon="105.299995"><ele>534.6276</ele><time>2026-04-29T16:49:57.000Z</time></trkpt>
        <trkpt lat="28.831761" lon="105.300055"><ele>534.595</ele><time>2026-04-29T16:50:00.000Z</time></trkpt>
        <trkpt lat="28.831779" lon="105.300125"><ele>533.00665</ele><time>2026-04-29T16:50:04.000Z</time></trkpt>
        <trkpt lat="28.831801" lon="105.300187"><ele>531.03424</ele><time>2026-04-29T16:50:07.000Z</time></trkpt>
        <trkpt lat="28.831773" lon="105.300255"><ele>529.8446</ele><time>2026-04-29T16:50:11.000Z</time></trkpt>
        <trkpt lat="28.83177" lon="105.30031"><ele>529.42285</ele><time>2026-04-29T16:50:14.000Z</time></trkpt>
        <trkpt lat="28.831742" lon="105.300352"><ele>529.57</ele><time>2026-04-29T16:50:16.000Z</time></trkpt>
        <trkpt lat="28.831733" lon="105.300417"><ele>532.1523</ele><time>2026-04-29T16:50:19.000Z</time></trkpt>
        <trkpt lat="28.831722" lon="105.300479"><ele>532.7546</ele><time>2026-04-29T16:50:22.000Z</time></trkpt>
        <trkpt lat="28.831701" lon="105.300529"><ele>534.8159</ele><time>2026-04-29T16:50:24.000Z</time></trkpt>
        <trkpt lat="28.831683" lon="105.300595"><ele>536.60114</ele><time>2026-04-29T16:50:27.000Z</time></trkpt>
        <trkpt lat="28.831706" lon="105.300662"><ele>539.508</ele><time>2026-04-29T16:50:30.000Z</time></trkpt>
        <trkpt lat="28.831737" lon="105.300726"><ele>541.2753</ele><time>2026-04-29T16:50:33.000Z</time></trkpt>
        <trkpt lat="28.831765" lon="105.300786"><ele>543.17786</ele><time>2026-04-29T16:50:36.000Z</time></trkpt>
        <trkpt lat="28.83181" lon="105.300804"><ele>544.0045</ele><time>2026-04-29T16:50:39.000Z</time></trkpt>
        <trkpt lat="28.831875" lon="105.300786"><ele>544.1213</ele><time>2026-04-29T16:50:42.000Z</time></trkpt>
        <trkpt lat="28.831935" lon="105.300762"><ele>543.3054</ele><time>2026-04-29T16:50:45.000Z</time></trkpt>
        <trkpt lat="28.831989" lon="105.300732"><ele>542.50635</ele><time>2026-04-29T16:50:48.000Z</time></trkpt>
        <trkpt lat="28.832047" lon="105.300702"><ele>540.0161</ele><time>2026-04-29T16:50:51.000Z</time></trkpt>
        <trkpt lat="28.832094" lon="105.300685"><ele>536.50104</ele><time>2026-04-29T16:50:54.000Z</time></trkpt>
        <trkpt lat="28.832142" lon="105.300651"><ele>533.96783</ele><time>2026-04-29T16:50:57.000Z</time></trkpt>
        <trkpt lat="28.832201" lon="105.300637"><ele>531.9958</ele><time>2026-04-29T16:51:00.000Z</time></trkpt>
        <trkpt lat="28.832265" lon="105.300635"><ele>529.9511</ele><time>2026-04-29T16:51:03.000Z</time></trkpt>
        <trkpt lat="28.832321" lon="105.300618"><ele>529.4222</ele><time>2026-04-29T16:51:06.000Z</time></trkpt>
        <trkpt lat="28.832359" lon="105.300578"><ele>531.0869</ele><time>2026-04-29T16:51:09.000Z</time></trkpt>
        <trkpt lat="28.832407" lon="105.300533"><ele>529.6219</ele><time>2026-04-29T16:51:12.000Z</time></trkpt>
        <trkpt lat="28.832472" lon="105.300519"><ele>528.67346</ele><time>2026-04-29T16:51:15.000Z</time></trkpt>
        <trkpt lat="28.832528" lon="105.300498"><ele>528.58136</ele><time>2026-04-29T16:51:18.000Z</time></trkpt>
        <trkpt lat="28.832572" lon="105.300488"><ele>528.03784</ele><time>2026-04-29T16:51:20.000Z</time></trkpt>
        <trkpt lat="28.83262" lon="105.300481"><ele>526.59296</ele><time>2026-04-29T16:51:23.000Z</time></trkpt>
        <trkpt lat="28.83267" lon="105.300463"><ele>527.51807</ele><time>2026-04-29T16:51:26.000Z</time></trkpt>
        <trkpt lat="28.83273" lon="105.300481"><ele>527.94867</ele><time>2026-04-29T16:51:29.000Z</time></trkpt>
        <trkpt lat="28.83278" lon="105.300492"><ele>528.3526</ele><time>2026-04-29T16:51:34.000Z</time></trkpt>
        <trkpt lat="28.832847" lon="105.300485"><ele>529.2756</ele><time>2026-04-29T16:51:36.000Z</time></trkpt>
        <trkpt lat="28.832893" lon="105.300477"><ele>529.051</ele><time>2026-04-29T16:51:38.000Z</time></trkpt>
        <trkpt lat="28.832961" lon="105.300484"><ele>528.2936</ele><time>2026-04-29T16:51:41.000Z</time></trkpt>
        <trkpt lat="28.833011" lon="105.300493"><ele>528.8466</ele><time>2026-04-29T16:51:44.000Z</time></trkpt>
        <trkpt lat="28.833078" lon="105.300501"><ele>528.6394</ele><time>2026-04-29T16:51:47.000Z</time></trkpt>
        <trkpt lat="28.833124" lon="105.300535"><ele>528.90454</ele><time>2026-04-29T16:51:50.000Z</time></trkpt>
        <trkpt lat="28.833159" lon="105.300574"><ele>529.48126</ele><time>2026-04-29T16:51:53.000Z</time></trkpt>
        <trkpt lat="28.833191" lon="105.300624"><ele>529.1588</ele><time>2026-04-29T16:51:55.000Z</time></trkpt>
        <trkpt lat="28.83322" lon="105.300696"><ele>529.38837</ele><time>2026-04-29T16:51:58.000Z</time></trkpt>
        <trkpt lat="28.833244" lon="105.300768"><ele>529.7329</ele><time>2026-04-29T16:52:01.000Z</time></trkpt>
        <trkpt lat="28.833294" lon="105.300801"><ele>530.6056</ele><time>2026-04-29T16:52:04.000Z</time></trkpt>
        <trkpt lat="28.833315" lon="105.300853"><ele>530.2343</ele><time>2026-04-29T16:52:06.000Z</time></trkpt>
        <trkpt lat="28.833341" lon="105.300921"><ele>530.0952</ele><time>2026-04-29T16:52:09.000Z</time></trkpt>
        <trkpt lat="28.833353" lon="105.300972"><ele>530.3176</ele><time>2026-04-29T16:52:11.000Z</time></trkpt>
        <trkpt lat="28.833385" lon="105.301012"><ele>531.0153</ele><time>2026-04-29T16:52:13.000Z</time></trkpt>
        <trkpt lat="28.833425" lon="105.301042"><ele>531.2889</ele><time>2026-04-29T16:52:15.000Z</time></trkpt>
        <trkpt lat="28.83347" lon="105.30108"><ele>531.7084</ele><time>2026-04-29T16:52:17.000Z</time></trkpt>
        <trkpt lat="28.833516" lon="105.301121"><ele>532.12213</ele><time>2026-04-29T16:52:19.000Z</time></trkpt>
        <trkpt lat="28.833555" lon="105.301164"><ele>532.33997</ele><time>2026-04-29T16:52:21.000Z</time></trkpt>
        <trkpt lat="28.833597" lon="105.301213"><ele>531.8846</ele><time>2026-04-29T16:52:23.000Z</time></trkpt>
        <trkpt lat="28.833637" lon="105.301251"><ele>532.05597</ele><time>2026-04-29T16:52:25.000Z</time></trkpt>
        <trkpt lat="28.833689" lon="105.301277"><ele>531.90204</ele><time>2026-04-29T16:52:27.000Z</time></trkpt>
        <trkpt lat="28.833733" lon="105.301304"><ele>530.2372</ele><time>2026-04-29T16:52:29.000Z</time></trkpt>
        <trkpt lat="28.83378" lon="105.301322"><ele>529.25146</ele><time>2026-04-29T16:52:31.000Z</time></trkpt>
        <trkpt lat="28.833828" lon="105.301369"><ele>527.83875</ele><time>2026-04-29T16:52:34.000Z</time></trkpt>
        <trkpt lat="28.833881" lon="105.301419"><ele>526.3132</ele><time>2026-04-29T16:52:37.000Z</time></trkpt>
        <trkpt lat="28.833919" lon="105.30147"><ele>526.2605</ele><time>2026-04-29T16:52:40.000Z</time></trkpt>
        <trkpt lat="28.833956" lon="105.3015"><ele>525.3788</ele><time>2026-04-29T16:52:42.000Z</time></trkpt>
        <trkpt lat="28.834003" lon="105.301539"><ele>523.6593</ele><time>2026-04-29T16:52:45.000Z</time></trkpt>
        <trkpt lat="28.834045" lon="105.301581"><ele>522.0412</ele><time>2026-04-29T16:52:48.000Z</time></trkpt>
        <trkpt lat="28.834076" lon="105.301623"><ele>521.03864</ele><time>2026-04-29T16:52:50.000Z</time></trkpt>
        <trkpt lat="28.834108" lon="105.30166"><ele>519.7116</ele><time>2026-04-29T16:52:52.000Z</time></trkpt>
        <trkpt lat="28.834142" lon="105.301711"><ele>519.52966</ele><time>2026-04-29T16:52:55.000Z</time></trkpt>
        <trkpt lat="28.834174" lon="105.301752"><ele>519.92236</ele><time>2026-04-29T16:53:00.000Z</time></trkpt>
        <trkpt lat="28.834221" lon="105.301762"><ele>520.9768</ele><time>2026-04-29T16:53:15.000Z</time></trkpt>
        <trkpt lat="28.834247" lon="105.301814"><ele>519.64465</ele><time>2026-04-29T16:53:19.000Z</time></trkpt>
        <trkpt lat="28.834283" lon="105.301861"><ele>519.7869</ele><time>2026-04-29T16:53:22.000Z</time></trkpt>
        <trkpt lat="28.834311" lon="105.301904"><ele>518.851</ele><time>2026-04-29T16:53:24.000Z</time></trkpt>
        <trkpt lat="28.834333" lon="105.301954"><ele>518.7369</ele><time>2026-04-29T16:53:26.000Z</time></trkpt>
        <trkpt lat="28.834368" lon="105.302004"><ele>518.83936</ele><time>2026-04-29T16:53:28.000Z</time></trkpt>
        <trkpt lat="28.834406" lon="105.30204"><ele>518.2273</ele><time>2026-04-29T16:53:30.000Z</time></trkpt>
        <trkpt lat="28.834431" lon="105.302092"><ele>517.83655</ele><time>2026-04-29T16:53:32.000Z</time></trkpt>
        <trkpt lat="28.834433" lon="105.302143"><ele>516.76666</ele><time>2026-04-29T16:53:41.000Z</time></trkpt>
        <trkpt lat="28.834444" lon="105.302194"><ele>515.49634</ele><time>2026-04-29T16:53:44.000Z</time></trkpt>
        <trkpt lat="28.834435" lon="105.302252"><ele>515.347</ele><time>2026-04-29T16:53:48.000Z</time></trkpt>
        <trkpt lat="28.834433" lon="105.302319"><ele>514.56665</ele><time>2026-04-29T16:54:14.000Z</time></trkpt>
        <trkpt lat="28.834391" lon="105.302351"><ele>513.30725</ele><time>2026-04-29T16:54:19.000Z</time></trkpt>
        <trkpt lat="28.834343" lon="105.302403"><ele>512.84753</ele><time>2026-04-29T16:54:23.000Z</time></trkpt>
        <trkpt lat="28.834311" lon="105.302456"><ele>513.1364</ele><time>2026-04-29T16:54:27.000Z</time></trkpt>
        <trkpt lat="28.834279" lon="105.302499"><ele>513.0339</ele><time>2026-04-29T16:54:31.000Z</time></trkpt>
        <trkpt lat="28.834249" lon="105.302545"><ele>513.06854</ele><time>2026-04-29T16:54:34.000Z</time></trkpt>
        <trkpt lat="28.834231" lon="105.302594"><ele>513.3987</ele><time>2026-04-29T16:54:36.000Z</time></trkpt>
        <trkpt lat="28.834196" lon="105.302653"><ele>513.739</ele><time>2026-04-29T16:54:39.000Z</time></trkpt>
        <trkpt lat="28.834179" lon="105.302705"><ele>514.7085</ele><time>2026-04-29T16:54:41.000Z</time></trkpt>
        <trkpt lat="28.834159" lon="105.30277"><ele>513.5626</ele><time>2026-04-29T16:54:44.000Z</time></trkpt>
        <trkpt lat="28.834165" lon="105.30283"><ele>513.8312</ele><time>2026-04-29T16:54:46.000Z</time></trkpt>
        <trkpt lat="28.834159" lon="105.302903"><ele>514.2315</ele><time>2026-04-29T16:54:49.000Z</time></trkpt>
        <trkpt lat="28.834177" lon="105.302957"><ele>514.4764</ele><time>2026-04-29T16:54:51.000Z</time></trkpt>
        <trkpt lat="28.8342" lon="105.303025"><ele>513.9157</ele><time>2026-04-29T16:54:54.000Z</time></trkpt>
        <trkpt lat="28.834216" lon="105.303095"><ele>513.8036</ele><time>2026-04-29T16:54:57.000Z</time></trkpt>
        <trkpt lat="28.834267" lon="105.303104"><ele>511.81952</ele><time>2026-04-29T16:55:00.000Z</time></trkpt>
        <trkpt lat="28.834312" lon="105.303097"><ele>511.58734</ele><time>2026-04-29T16:55:03.000Z</time></trkpt>
        <trkpt lat="28.834258" lon="105.30309"><ele>510.414</ele><time>2026-04-29T16:55:08.000Z</time></trkpt>
        <trkpt lat="28.834269" lon="105.303148"><ele>508.79935</ele><time>2026-04-29T16:55:16.000Z</time></trkpt>
        <trkpt lat="28.834286" lon="105.303213"><ele>509.0055</ele><time>2026-04-29T16:55:20.000Z</time></trkpt>
        <trkpt lat="28.834303" lon="105.303271"><ele>508.7908</ele><time>2026-04-29T16:55:24.000Z</time></trkpt>
        <trkpt lat="28.834332" lon="105.30333"><ele>508.3755</ele><time>2026-04-29T16:55:28.000Z</time></trkpt>
        <trkpt lat="28.834374" lon="105.303375"><ele>506.80258</ele><time>2026-04-29T16:55:31.000Z</time></trkpt>
        <trkpt lat="28.834407" lon="105.303414"><ele>504.96024</ele><time>2026-04-29T16:55:33.000Z</time></trkpt>
        <trkpt lat="28.834445" lon="105.303451"><ele>504.09714</ele><time>2026-04-29T16:55:35.000Z</time></trkpt>
        <trkpt lat="28.8345" lon="105.303505"><ele>502.78812</ele><time>2026-04-29T16:55:38.000Z</time></trkpt>
        <trkpt lat="28.834537" lon="105.303551"><ele>502.57748</ele><time>2026-04-29T16:55:40.000Z</time></trkpt>
        <trkpt lat="28.834593" lon="105.303592"><ele>502.7775</ele><time>2026-04-29T16:55:42.000Z</time></trkpt>
        <trkpt lat="28.834652" lon="105.303621"><ele>502.61102</ele><time>2026-04-29T16:55:44.000Z</time></trkpt>
        <trkpt lat="28.834712" lon="105.303644"><ele>502.3782</ele><time>2026-04-29T16:55:46.000Z</time></trkpt>
        <trkpt lat="28.834771" lon="105.303667"><ele>501.85504</ele><time>2026-04-29T16:55:48.000Z</time></trkpt>
        <trkpt lat="28.834818" lon="105.303704"><ele>501.2159</ele><time>2026-04-29T16:55:50.000Z</time></trkpt>
        <trkpt lat="28.834865" lon="105.303751"><ele>499.93622</ele><time>2026-04-29T16:55:52.000Z</time></trkpt>
        <trkpt lat="28.83492" lon="105.303793"><ele>499.97168</ele><time>2026-04-29T16:55:54.000Z</time></trkpt>
        <trkpt lat="28.834953" lon="105.303841"><ele>498.36984</ele><time>2026-04-29T16:55:56.000Z</time></trkpt>
        <trkpt lat="28.834992" lon="105.303894"><ele>497.81097</ele><time>2026-04-29T16:55:58.000Z</time></trkpt>
        <trkpt lat="28.835039" lon="105.303946"><ele>497.19116</ele><time>2026-04-29T16:56:00.000Z</time></trkpt>
        <trkpt lat="28.83508" lon="105.303993"><ele>496.93323</ele><time>2026-04-29T16:56:02.000Z</time></trkpt>
        <trkpt lat="28.835111" lon="105.30404"><ele>496.35757</ele><time>2026-04-29T16:56:04.000Z</time></trkpt>
        <trkpt lat="28.835147" lon="105.304091"><ele>496.30716</ele><time>2026-04-29T16:56:06.000Z</time></trkpt>
        <trkpt lat="28.83518" lon="105.304135"><ele>495.8579</ele><time>2026-04-29T16:56:08.000Z</time></trkpt>
        <trkpt lat="28.835205" lon="105.304196"><ele>494.81223</ele><time>2026-04-29T16:56:10.000Z</time></trkpt>
        <trkpt lat="28.835239" lon="105.304265"><ele>494.45944</ele><time>2026-04-29T16:56:13.000Z</time></trkpt>
        <trkpt lat="28.835264" lon="105.304316"><ele>493.42316</ele><time>2026-04-29T16:56:15.000Z</time></trkpt>
        <trkpt lat="28.835271" lon="105.304375"><ele>492.71915</ele><time>2026-04-29T16:56:17.000Z</time></trkpt>
        <trkpt lat="28.835275" lon="105.304431"><ele>492.32993</ele><time>2026-04-29T16:56:19.000Z</time></trkpt>
        <trkpt lat="28.835272" lon="105.304487"><ele>492.08237</ele><time>2026-04-29T16:56:21.000Z</time></trkpt>
        <trkpt lat="28.83527" lon="105.304546"><ele>491.80994</ele><time>2026-04-29T16:56:23.000Z</time></trkpt>
        <trkpt lat="28.835272" lon="105.304606"><ele>492.01685</ele><time>2026-04-29T16:56:25.000Z</time></trkpt>
        <trkpt lat="28.835256" lon="105.304663"><ele>491.68942</ele><time>2026-04-29T16:56:27.000Z</time></trkpt>
        <trkpt lat="28.835238" lon="105.304714"><ele>490.9941</ele><time>2026-04-29T16:56:29.000Z</time></trkpt>
        <trkpt lat="28.835213" lon="105.304779"><ele>490.47037</ele><time>2026-04-29T16:56:32.000Z</time></trkpt>
        <trkpt lat="28.835184" lon="105.304831"><ele>489.59268</ele><time>2026-04-29T16:56:34.000Z</time></trkpt>
        <trkpt lat="28.835135" lon="105.304879"><ele>488.82233</ele><time>2026-04-29T16:56:37.000Z</time></trkpt>
        <trkpt lat="28.835086" lon="105.304918"><ele>487.63065</ele><time>2026-04-29T16:56:40.000Z</time></trkpt>
        <trkpt lat="28.83503" lon="105.304963"><ele>487.56122</ele><time>2026-04-29T16:56:43.000Z</time></trkpt>
        <trkpt lat="28.834988" lon="105.304993"><ele>487.69757</ele><time>2026-04-29T16:56:45.000Z</time></trkpt>
        <trkpt lat="28.834948" lon="105.305023"><ele>487.4352</ele><time>2026-04-29T16:56:47.000Z</time></trkpt>
        <trkpt lat="28.834893" lon="105.30507"><ele>487.4717</ele><time>2026-04-29T16:56:50.000Z</time></trkpt>
        <trkpt lat="28.834848" lon="105.305095"><ele>487.06168</ele><time>2026-04-29T16:56:52.000Z</time></trkpt>
        <trkpt lat="28.83481" lon="105.305127"><ele>486.8556</ele><time>2026-04-29T16:56:54.000Z</time></trkpt>
        <trkpt lat="28.834772" lon="105.305158"><ele>487.92188</ele><time>2026-04-29T16:56:56.000Z</time></trkpt>
        <trkpt lat="28.834731" lon="105.305183"><ele>487.45493</ele><time>2026-04-29T16:56:58.000Z</time></trkpt>
        <trkpt lat="28.834689" lon="105.305203"><ele>486.80325</ele><time>2026-04-29T16:57:00.000Z</time></trkpt>
        <trkpt lat="28.834636" lon="105.305237"><ele>485.69705</ele><time>2026-04-29T16:57:03.000Z</time></trkpt>
        <trkpt lat="28.834589" lon="105.305256"><ele>485.16434</ele><time>2026-04-29T16:57:05.000Z</time></trkpt>
        <trkpt lat="28.83454" lon="105.305303"><ele>485.05807</ele><time>2026-04-29T16:57:08.000Z</time></trkpt>
        <trkpt lat="28.8345" lon="105.305329"><ele>485.00958</ele><time>2026-04-29T16:57:10.000Z</time></trkpt>
        <trkpt lat="28.834457" lon="105.305353"><ele>484.4223</ele><time>2026-04-29T16:57:12.000Z</time></trkpt>
        <trkpt lat="28.834408" lon="105.305391"><ele>484.22476</ele><time>2026-04-29T16:57:15.000Z</time></trkpt>
        <trkpt lat="28.834367" lon="105.305419"><ele>483.6299</ele><time>2026-04-29T16:57:17.000Z</time></trkpt>
        <trkpt lat="28.834329" lon="105.305451"><ele>483.56995</ele><time>2026-04-29T16:57:19.000Z</time></trkpt>
        <trkpt lat="28.834286" lon="105.305468"><ele>483.69922</ele><time>2026-04-29T16:57:21.000Z</time></trkpt>
        <trkpt lat="28.834232" lon="105.305488"><ele>483.65323</ele><time>2026-04-29T16:57:24.000Z</time></trkpt>
        <trkpt lat="28.834203" lon="105.305537"><ele>483.988</ele><time>2026-04-29T16:57:26.000Z</time></trkpt>
        <trkpt lat="28.834152" lon="105.305571"><ele>483.5809</ele><time>2026-04-29T16:57:29.000Z</time></trkpt>
        <trkpt lat="28.83411" lon="105.305612"><ele>484.70694</ele><time>2026-04-29T16:57:32.000Z</time></trkpt>
        <trkpt lat="28.834084" lon="105.30568"><ele>484.20227</ele><time>2026-04-29T16:57:35.000Z</time></trkpt>
        <trkpt lat="28.834067" lon="105.305733"><ele>484.19403</ele><time>2026-04-29T16:57:37.000Z</time></trkpt>
        <trkpt lat="28.834042" lon="105.305789"><ele>483.5781</ele><time>2026-04-29T16:57:40.000Z</time></trkpt>
        <trkpt lat="28.834042" lon="105.305865"><ele>483.64413</ele><time>2026-04-29T16:57:43.000Z</time></trkpt>
        <trkpt lat="28.83405" lon="105.305924"><ele>483.1906</ele><time>2026-04-29T16:57:45.000Z</time></trkpt>
        <trkpt lat="28.834066" lon="105.305977"><ele>482.80475</ele><time>2026-04-29T16:57:47.000Z</time></trkpt>
        <trkpt lat="28.834096" lon="105.306025"><ele>482.5608</ele><time>2026-04-29T16:57:49.000Z</time></trkpt>
        <trkpt lat="28.834131" lon="105.306063"><ele>481.4942</ele><time>2026-04-29T16:57:51.000Z</time></trkpt>
        <trkpt lat="28.834189" lon="105.306113"><ele>480.24384</ele><time>2026-04-29T16:57:54.000Z</time></trkpt>
        <trkpt lat="28.834242" lon="105.306149"><ele>478.79086</ele><time>2026-04-29T16:57:57.000Z</time></trkpt>
        <trkpt lat="28.834286" lon="105.306177"><ele>478.54456</ele><time>2026-04-29T16:57:59.000Z</time></trkpt>
        <trkpt lat="28.834333" lon="105.30618"><ele>478.2834</ele><time>2026-04-29T16:58:01.000Z</time></trkpt>
        <trkpt lat="28.834389" lon="105.306206"><ele>476.76862</ele><time>2026-04-29T16:58:03.000Z</time></trkpt>
        <trkpt lat="28.834445" lon="105.30623"><ele>476.66086</ele><time>2026-04-29T16:58:05.000Z</time></trkpt>
        <trkpt lat="28.834496" lon="105.306267"><ele>476.343</ele><time>2026-04-29T16:58:07.000Z</time></trkpt>
        <trkpt lat="28.834558" lon="105.30629"><ele>474.60733</ele><time>2026-04-29T16:58:10.000Z</time></trkpt>
        <trkpt lat="28.834611" lon="105.306305"><ele>474.03247</ele><time>2026-04-29T16:58:12.000Z</time></trkpt>
        <trkpt lat="28.834661" lon="105.306336"><ele>472.7796</ele><time>2026-04-29T16:58:15.000Z</time></trkpt>
        <trkpt lat="28.834711" lon="105.306347"><ele>472.0918</ele><time>2026-04-29T16:58:17.000Z</time></trkpt>
        <trkpt lat="28.834757" lon="105.30636"><ele>471.57922</ele><time>2026-04-29T16:58:19.000Z</time></trkpt>
        <trkpt lat="28.834812" lon="105.306378"><ele>471.1026</ele><time>2026-04-29T16:58:21.000Z</time></trkpt>
        <trkpt lat="28.834858" lon="105.306383"><ele>470.1262</ele><time>2026-04-29T16:58:23.000Z</time></trkpt>
        <trkpt lat="28.834897" lon="105.306408"><ele>469.23666</ele><time>2026-04-29T16:58:25.000Z</time></trkpt>
        <trkpt lat="28.834946" lon="105.306424"><ele>468.3779</ele><time>2026-04-29T16:58:27.000Z</time></trkpt>
        <trkpt lat="28.834999" lon="105.306438"><ele>467.01672</ele><time>2026-04-29T16:58:29.000Z</time></trkpt>
        <trkpt lat="28.835052" lon="105.306466"><ele>465.76532</ele><time>2026-04-29T16:58:31.000Z</time></trkpt>
        <trkpt lat="28.835106" lon="105.306464"><ele>465.2894</ele><time>2026-04-29T16:58:33.000Z</time></trkpt>
        <trkpt lat="28.835151" lon="105.306461"><ele>464.1606</ele><time>2026-04-29T16:58:35.000Z</time></trkpt>
        <trkpt lat="28.835195" lon="105.306476"><ele>463.05112</ele><time>2026-04-29T16:58:37.000Z</time></trkpt>
        <trkpt lat="28.83526" lon="105.30648"><ele>461.70142</ele><time>2026-04-29T16:58:40.000Z</time></trkpt>
        <trkpt lat="28.835327" lon="105.306477"><ele>461.06647</ele><time>2026-04-29T16:58:43.000Z</time></trkpt>
        <trkpt lat="28.835394" lon="105.306477"><ele>460.49384</ele><time>2026-04-29T16:58:46.000Z</time></trkpt>
        <trkpt lat="28.835464" lon="105.306476"><ele>460.96606</ele><time>2026-04-29T16:58:49.000Z</time></trkpt>
        <trkpt lat="28.83551" lon="105.306481"><ele>460.4266</ele><time>2026-04-29T16:58:51.000Z</time></trkpt>
        <trkpt lat="28.835559" lon="105.30648"><ele>460.6281</ele><time>2026-04-29T16:58:53.000Z</time></trkpt>
        <trkpt lat="28.835606" lon="105.306473"><ele>461.46136</ele><time>2026-04-29T16:58:55.000Z</time></trkpt>
        <trkpt lat="28.835665" lon="105.306484"><ele>461.058</ele><time>2026-04-29T16:58:58.000Z</time></trkpt>
        <trkpt lat="28.835718" lon="105.306474"><ele>460.2739</ele><time>2026-04-29T16:59:00.000Z</time></trkpt>
        <trkpt lat="28.835791" lon="105.306489"><ele>458.6832</ele><time>2026-04-29T16:59:03.000Z</time></trkpt>
        <trkpt lat="28.83584" lon="105.306492"><ele>457.9943</ele><time>2026-04-29T16:59:05.000Z</time></trkpt>
        <trkpt lat="28.835909" lon="105.306481"><ele>455.97723</ele><time>2026-04-29T16:59:08.000Z</time></trkpt>
        <trkpt lat="28.835971" lon="105.306485"><ele>454.9393</ele><time>2026-04-29T16:59:10.000Z</time></trkpt>
        <trkpt lat="28.836033" lon="105.306483"><ele>454.0119</ele><time>2026-04-29T16:59:13.000Z</time></trkpt>
        <trkpt lat="28.836105" lon="105.306488"><ele>452.75168</ele><time>2026-04-29T16:59:16.000Z</time></trkpt>
        <trkpt lat="28.836158" lon="105.306495"><ele>453.05252</ele><time>2026-04-29T16:59:18.000Z</time></trkpt>
        <trkpt lat="28.836222" lon="105.306508"><ele>452.80646</ele><time>2026-04-29T16:59:21.000Z</time></trkpt>
        <trkpt lat="28.83628" lon="105.306495"><ele>451.1646</ele><time>2026-04-29T16:59:24.000Z</time></trkpt>
        <trkpt lat="28.836335" lon="105.306503"><ele>452.11996</ele><time>2026-04-29T16:59:26.000Z</time></trkpt>
        <trkpt lat="28.836402" lon="105.306514"><ele>450.6232</ele><time>2026-04-29T16:59:29.000Z</time></trkpt>
        <trkpt lat="28.83645" lon="105.306504"><ele>450.618</ele><time>2026-04-29T16:59:31.000Z</time></trkpt>
        <trkpt lat="28.8365" lon="105.306506"><ele>450.61084</ele><time>2026-04-29T16:59:33.000Z</time></trkpt>
        <trkpt lat="28.836563" lon="105.306519"><ele>450.4722</ele><time>2026-04-29T16:59:35.000Z</time></trkpt>
        <trkpt lat="28.836606" lon="105.306537"><ele>450.31183</ele><time>2026-04-29T16:59:37.000Z</time></trkpt>
        <trkpt lat="28.83667" lon="105.306525"><ele>449.2026</ele><time>2026-04-29T16:59:40.000Z</time></trkpt>
        <trkpt lat="28.836718" lon="105.306516"><ele>448.4657</ele><time>2026-04-29T16:59:42.000Z</time></trkpt>
        <trkpt lat="28.836764" lon="105.306497"><ele>447.5317</ele><time>2026-04-29T16:59:44.000Z</time></trkpt>
        <trkpt lat="28.836815" lon="105.306495"><ele>445.30533</ele><time>2026-04-29T16:59:48.000Z</time></trkpt>
        <trkpt lat="28.836867" lon="105.306493"><ele>445.17163</ele><time>2026-04-29T16:59:54.000Z</time></trkpt>
        <trkpt lat="28.836918" lon="105.306491"><ele>444.02548</ele><time>2026-04-29T16:59:58.000Z</time></trkpt>
        <trkpt lat="28.836963" lon="105.306501"><ele>443.38446</ele><time>2026-04-29T17:00:01.000Z</time></trkpt>
        <trkpt lat="28.837015" lon="105.306521"><ele>442.30902</ele><time>2026-04-29T17:00:04.000Z</time></trkpt>
        <trkpt lat="28.837074" lon="105.306532"><ele>442.52258</ele><time>2026-04-29T17:00:07.000Z</time></trkpt>
        <trkpt lat="28.837143" lon="105.306548"><ele>443.12463</ele><time>2026-04-29T17:00:10.000Z</time></trkpt>
        <trkpt lat="28.8372" lon="105.306532"><ele>441.22577</ele><time>2026-04-29T17:00:12.000Z</time></trkpt>
        <trkpt lat="28.837253" lon="105.306533"><ele>441.7984</ele><time>2026-04-29T17:00:13.000Z</time></trkpt>
        <trkpt lat="28.837335" lon="105.306542"><ele>442.05206</ele><time>2026-04-29T17:00:15.000Z</time></trkpt>
        <trkpt lat="28.837406" lon="105.306533"><ele>440.53268</ele><time>2026-04-29T17:00:17.000Z</time></trkpt>
        <trkpt lat="28.837467" lon="105.306521"><ele>440.44485</ele><time>2026-04-29T17:00:19.000Z</time></trkpt>
        <trkpt lat="28.837515" lon="105.306527"><ele>439.8387</ele><time>2026-04-29T17:00:21.000Z</time></trkpt>
        <trkpt lat="28.837564" lon="105.306529"><ele>439.99243</ele><time>2026-04-29T17:00:23.000Z</time></trkpt>
        <trkpt lat="28.837618" lon="105.306531"><ele>440.13437</ele><time>2026-04-29T17:00:25.000Z</time></trkpt>
        <trkpt lat="28.83768" lon="105.306518"><ele>439.53726</ele><time>2026-04-29T17:00:27.000Z</time></trkpt>
        <trkpt lat="28.837734" lon="105.306502"><ele>438.789</ele><time>2026-04-29T17:00:29.000Z</time></trkpt>
        <trkpt lat="28.837786" lon="105.306494"><ele>437.92148</ele><time>2026-04-29T17:00:31.000Z</time></trkpt>
        <trkpt lat="28.837848" lon="105.306476"><ele>437.03598</ele><time>2026-04-29T17:00:33.000Z</time></trkpt>
        <trkpt lat="28.837894" lon="105.306465"><ele>436.68378</ele><time>2026-04-29T17:00:35.000Z</time></trkpt>
        <trkpt lat="28.837957" lon="105.306425"><ele>434.4148</ele><time>2026-04-29T17:00:37.000Z</time></trkpt>
        <trkpt lat="28.83802" lon="105.306407"><ele>434.13916</ele><time>2026-04-29T17:00:39.000Z</time></trkpt>
        <trkpt lat="28.838081" lon="105.306374"><ele>432.87238</ele><time>2026-04-29T17:00:41.000Z</time></trkpt>
        <trkpt lat="28.838139" lon="105.306352"><ele>432.8334</ele><time>2026-04-29T17:00:43.000Z</time></trkpt>
        <trkpt lat="28.838195" lon="105.306337"><ele>432.33472</ele><time>2026-04-29T17:00:45.000Z</time></trkpt>
        <trkpt lat="28.838243" lon="105.306296"><ele>431.139</ele><time>2026-04-29T17:00:47.000Z</time></trkpt>
        <trkpt lat="28.838289" lon="105.306264"><ele>431.41226</ele><time>2026-04-29T17:00:49.000Z</time></trkpt>
        <trkpt lat="28.838343" lon="105.306249"><ele>430.7081</ele><time>2026-04-29T17:00:51.000Z</time></trkpt>
        <trkpt lat="28.838379" lon="105.306292"><ele>430.4582</ele><time>2026-04-29T17:00:53.000Z</time></trkpt>
        <trkpt lat="28.838403" lon="105.306338"><ele>430.90417</ele><time>2026-04-29T17:00:55.000Z</time></trkpt>
        <trkpt lat="28.838408" lon="105.306403"><ele>429.59714</ele><time>2026-04-29T17:00:57.000Z</time></trkpt>
        <trkpt lat="28.838396" lon="105.306465"><ele>429.968</ele><time>2026-04-29T17:00:59.000Z</time></trkpt>
        <trkpt lat="28.838372" lon="105.306517"><ele>428.67358</ele><time>2026-04-29T17:01:01.000Z</time></trkpt>
        <trkpt lat="28.83834" lon="105.306574"><ele>428.74133</ele><time>2026-04-29T17:01:03.000Z</time></trkpt>
        <trkpt lat="28.838311" lon="105.306621"><ele>428.3436</ele><time>2026-04-29T17:01:05.000Z</time></trkpt>
        <trkpt lat="28.838283" lon="105.306666"><ele>428.54318</ele><time>2026-04-29T17:01:07.000Z</time></trkpt>
        <trkpt lat="28.838272" lon="105.306724"><ele>428.6959</ele><time>2026-04-29T17:01:10.000Z</time></trkpt>
        <trkpt lat="28.838275" lon="105.306788"><ele>427.03934</ele><time>2026-04-29T17:01:15.000Z</time></trkpt>
        <trkpt lat="28.838288" lon="105.306869"><ele>424.5307</ele><time>2026-04-29T17:01:19.000Z</time></trkpt>
        <trkpt lat="28.838311" lon="105.306931"><ele>421.88687</ele><time>2026-04-29T17:01:23.000Z</time></trkpt>
        <trkpt lat="28.838332" lon="105.306983"><ele>420.66498</ele><time>2026-04-29T17:01:26.000Z</time></trkpt>
        <trkpt lat="28.838367" lon="105.307032"><ele>418.6176</ele><time>2026-04-29T17:01:30.000Z</time></trkpt>
        <trkpt lat="28.838404" lon="105.307073"><ele>416.17593</ele><time>2026-04-29T17:01:33.000Z</time></trkpt>
        <trkpt lat="28.838452" lon="105.307103"><ele>413.7445</ele><time>2026-04-29T17:01:37.000Z</time></trkpt>
        <trkpt lat="28.838463" lon="105.307162"><ele>412.4908</ele><time>2026-04-29T17:01:40.000Z</time></trkpt>
        <trkpt lat="28.838471" lon="105.307214"><ele>410.5706</ele><time>2026-04-29T17:01:43.000Z</time></trkpt>
        <trkpt lat="28.83848" lon="105.307271"><ele>409.9534</ele><time>2026-04-29T17:01:46.000Z</time></trkpt>
        <trkpt lat="28.838496" lon="105.307332"><ele>409.00034</ele><time>2026-04-29T17:01:48.000Z</time></trkpt>
        <trkpt lat="28.838511" lon="105.307405"><ele>408.67407</ele><time>2026-04-29T17:01:50.000Z</time></trkpt>
        <trkpt lat="28.838507" lon="105.307475"><ele>406.6843</ele><time>2026-04-29T17:01:52.000Z</time></trkpt>
        <trkpt lat="28.8385" lon="105.307539"><ele>406.8536</ele><time>2026-04-29T17:01:54.000Z</time></trkpt>
        <trkpt lat="28.83849" lon="105.307602"><ele>406.49017</ele><time>2026-04-29T17:01:57.000Z</time></trkpt>
        <trkpt lat="28.838457" lon="105.307664"><ele>405.60037</ele><time>2026-04-29T17:02:01.000Z</time></trkpt>
        <trkpt lat="28.838421" lon="105.307718"><ele>406.27252</ele><time>2026-04-29T17:02:07.000Z</time></trkpt>
        <trkpt lat="28.838384" lon="105.307771"><ele>406.32523</ele><time>2026-04-29T17:02:12.000Z</time></trkpt>
        <trkpt lat="28.838354" lon="105.307815"><ele>406.36835</ele><time>2026-04-29T17:02:16.000Z</time></trkpt>
        <trkpt lat="28.838344" lon="105.307869"><ele>405.80338</ele><time>2026-04-29T17:02:22.000Z</time></trkpt>
        <trkpt lat="28.838303" lon="105.307917"><ele>403.58286</ele><time>2026-04-29T17:02:30.000Z</time></trkpt>
        <trkpt lat="28.838261" lon="105.307954"><ele>403.98074</ele><time>2026-04-29T17:02:33.000Z</time></trkpt>
        <trkpt lat="28.83822" lon="105.307993"><ele>403.6363</ele><time>2026-04-29T17:02:36.000Z</time></trkpt>
        <trkpt lat="28.838192" lon="105.30805"><ele>403.34747</ele><time>2026-04-29T17:02:40.000Z</time></trkpt>
        <trkpt lat="28.838145" lon="105.30808"><ele>402.7753</ele><time>2026-04-29T17:02:47.000Z</time></trkpt>
        <trkpt lat="28.838093" lon="105.308092"><ele>403.69028</ele><time>2026-04-29T17:02:50.000Z</time></trkpt>
        <trkpt lat="28.838036" lon="105.308122"><ele>403.45367</ele><time>2026-04-29T17:02:55.000Z</time></trkpt>
        <trkpt lat="28.837989" lon="105.308143"><ele>402.62448</ele><time>2026-04-29T17:03:01.000Z</time></trkpt>
        <trkpt lat="28.837945" lon="105.308167"><ele>402.38928</ele><time>2026-04-29T17:03:05.000Z</time></trkpt>
        <trkpt lat="28.837898" lon="105.308202"><ele>403.54813</ele><time>2026-04-29T17:03:09.000Z</time></trkpt>
        <trkpt lat="28.837856" lon="105.308226"><ele>405.4764</ele><time>2026-04-29T17:03:13.000Z</time></trkpt>
        <trkpt lat="28.83786" lon="105.308279"><ele>404.09473</ele><time>2026-04-29T17:03:19.000Z</time></trkpt>
        <trkpt lat="28.837883" lon="105.308344"><ele>403.30902</ele><time>2026-04-29T17:03:25.000Z</time></trkpt>
        <trkpt lat="28.837891" lon="105.308397"><ele>402.92676</ele><time>2026-04-29T17:03:28.000Z</time></trkpt>
        <trkpt lat="28.837851" lon="105.308421"><ele>403.05206</ele><time>2026-04-29T17:03:31.000Z</time></trkpt>
        <trkpt lat="28.83784" lon="105.308482"><ele>402.5323</ele><time>2026-04-29T17:03:35.000Z</time></trkpt>
        <trkpt lat="28.837851" lon="105.308535"><ele>400.8684</ele><time>2026-04-29T17:03:39.000Z</time></trkpt>
        <trkpt lat="28.83787" lon="105.308587"><ele>397.99304</ele><time>2026-04-29T17:03:43.000Z</time></trkpt>
        <trkpt lat="28.837849" lon="105.308647"><ele>397.95776</ele><time>2026-04-29T17:03:46.000Z</time></trkpt>
        <trkpt lat="28.837814" lon="105.308684"><ele>396.825</ele><time>2026-04-29T17:03:50.000Z</time></trkpt>
        <trkpt lat="28.837832" lon="105.308746"><ele>394.92404</ele><time>2026-04-29T17:03:55.000Z</time></trkpt>
        <trkpt lat="28.837835" lon="105.308807"><ele>392.49265</ele><time>2026-04-29T17:03:59.000Z</time></trkpt>
        <trkpt lat="28.837872" lon="105.308854"><ele>393.31268</ele><time>2026-04-29T17:04:02.000Z</time></trkpt>
        <trkpt lat="28.837924" lon="105.308856"><ele>392.85648</ele><time>2026-04-29T17:04:06.000Z</time></trkpt>
        <trkpt lat="28.837958" lon="105.308905"><ele>391.91245</ele><time>2026-04-29T17:04:11.000Z</time></trkpt>
        <trkpt lat="28.837999" lon="105.308936"><ele>390.93912</ele><time>2026-04-29T17:04:16.000Z</time></trkpt>
        <trkpt lat="28.838059" lon="105.308974"><ele>388.8158</ele><time>2026-04-29T17:04:21.000Z</time></trkpt>
        <trkpt lat="28.838127" lon="105.308998"><ele>387.5519</ele><time>2026-04-29T17:04:25.000Z</time></trkpt>
        <trkpt lat="28.838186" lon="105.309007"><ele>385.93185</ele><time>2026-04-29T17:04:28.000Z</time></trkpt>
        <trkpt lat="28.838236" lon="105.309023"><ele>383.7548</ele><time>2026-04-29T17:04:31.000Z</time></trkpt>
        <trkpt lat="28.838296" lon="105.309033"><ele>383.65863</ele><time>2026-04-29T17:04:34.000Z</time></trkpt>
        <trkpt lat="28.838339" lon="105.309054"><ele>383.23508</ele><time>2026-04-29T17:04:36.000Z</time></trkpt>
        <trkpt lat="28.838405" lon="105.309073"><ele>382.15848</ele><time>2026-04-29T17:04:39.000Z</time></trkpt>
        <trkpt lat="28.838462" lon="105.30907"><ele>379.94833</ele><time>2026-04-29T17:04:42.000Z</time></trkpt>
        <trkpt lat="28.838522" lon="105.30906"><ele>377.85703</ele><time>2026-04-29T17:04:45.000Z</time></trkpt>
        <trkpt lat="28.838578" lon="105.309067"><ele>375.92676</ele><time>2026-04-29T17:04:49.000Z</time></trkpt>
        <trkpt lat="28.838636" lon="105.309063"><ele>374.21066</ele><time>2026-04-29T17:04:52.000Z</time></trkpt>
        <trkpt lat="28.838689" lon="105.309052"><ele>372.4873</ele><time>2026-04-29T17:04:55.000Z</time></trkpt>
        <trkpt lat="28.838737" lon="105.309082"><ele>371.36108</ele><time>2026-04-29T17:04:58.000Z</time></trkpt>
        <trkpt lat="28.838758" lon="105.309133"><ele>369.20557</ele><time>2026-04-29T17:05:39.000Z</time></trkpt>
        <trkpt lat="28.838728" lon="105.309172"><ele>368.0619</ele><time>2026-04-29T17:05:45.000Z</time></trkpt>
        <trkpt lat="28.838675" lon="105.309195"><ele>366.3199</ele><time>2026-04-29T17:05:51.000Z</time></trkpt>
        <trkpt lat="28.838624" lon="105.309228"><ele>364.44733</ele><time>2026-04-29T17:05:55.000Z</time></trkpt>
        <trkpt lat="28.83858" lon="105.309251"><ele>364.0061</ele><time>2026-04-29T17:05:59.000Z</time></trkpt>
        <trkpt lat="28.838528" lon="105.309266"><ele>363.3617</ele><time>2026-04-29T17:06:04.000Z</time></trkpt>
        <trkpt lat="28.838487" lon="105.309295"><ele>363.20728</ele><time>2026-04-29T17:06:07.000Z</time></trkpt>
        <trkpt lat="28.838449" lon="105.309336"><ele>362.2712</ele><time>2026-04-29T17:06:10.000Z</time></trkpt>
        <trkpt lat="28.838395" lon="105.309357"><ele>361.43597</ele><time>2026-04-29T17:06:14.000Z</time></trkpt>
        <trkpt lat="28.838343" lon="105.309392"><ele>361.12265</ele><time>2026-04-29T17:06:17.000Z</time></trkpt>
        <trkpt lat="28.838283" lon="105.309409"><ele>361.32693</ele><time>2026-04-29T17:06:20.000Z</time></trkpt>
        <trkpt lat="28.838225" lon="105.309417"><ele>360.59357</ele><time>2026-04-29T17:06:23.000Z</time></trkpt>
        <trkpt lat="28.838162" lon="105.309438"><ele>360.89743</ele><time>2026-04-29T17:06:26.000Z</time></trkpt>
        <trkpt lat="28.838105" lon="105.309461"><ele>360.73987</ele><time>2026-04-29T17:06:29.000Z</time></trkpt>
        <trkpt lat="28.838069" lon="105.309502"><ele>361.2007</ele><time>2026-04-29T17:06:31.000Z</time></trkpt>
        <trkpt lat="28.838033" lon="105.309538"><ele>360.42627</ele><time>2026-04-29T17:06:33.000Z</time></trkpt>
        <trkpt lat="28.838019" lon="105.309602"><ele>361.94138</ele><time>2026-04-29T17:06:36.000Z</time></trkpt>
        <trkpt lat="28.838061" lon="105.309653"><ele>362.21713</ele><time>2026-04-29T17:06:39.000Z</time></trkpt>
        <trkpt lat="28.838111" lon="105.309627"><ele>361.3879</ele><time>2026-04-29T17:06:41.000Z</time></trkpt>
        <trkpt lat="28.838153" lon="105.309593"><ele>360.75458</ele><time>2026-04-29T17:06:43.000Z</time></trkpt>
        <trkpt lat="28.83822" lon="105.309605"><ele>360.0128</ele><time>2026-04-29T17:06:46.000Z</time></trkpt>
        <trkpt lat="28.838274" lon="105.309644"><ele>359.4685</ele><time>2026-04-29T17:06:48.000Z</time></trkpt>
        <trkpt lat="28.838325" lon="105.309634"><ele>358.55408</ele><time>2026-04-29T17:06:50.000Z</time></trkpt>
        <trkpt lat="28.838372" lon="105.309651"><ele>357.94495</ele><time>2026-04-29T17:06:52.000Z</time></trkpt>
        <trkpt lat="28.838424" lon="105.30967"><ele>356.92468</ele><time>2026-04-29T17:06:55.000Z</time></trkpt>
        <trkpt lat="28.838439" lon="105.309739"><ele>355.60178</ele><time>2026-04-29T17:06:58.000Z</time></trkpt>
        <trkpt lat="28.838439" lon="105.309798"><ele>353.83524</ele><time>2026-04-29T17:07:00.000Z</time></trkpt>
        <trkpt lat="28.838438" lon="105.309853"><ele>353.5644</ele><time>2026-04-29T17:07:02.000Z</time></trkpt>
        <trkpt lat="28.838429" lon="105.309928"><ele>351.99918</ele><time>2026-04-29T17:07:05.000Z</time></trkpt>
        <trkpt lat="28.838427" lon="105.309989"><ele>351.5531</ele><time>2026-04-29T17:07:08.000Z</time></trkpt>
        <trkpt lat="28.838426" lon="105.310041"><ele>351.77228</ele><time>2026-04-29T17:07:10.000Z</time></trkpt>
        <trkpt lat="28.838388" lon="105.310106"><ele>351.2437</ele><time>2026-04-29T17:07:13.000Z</time></trkpt>
        <trkpt lat="28.838348" lon="105.31015"><ele>350.78323</ele><time>2026-04-29T17:07:15.000Z</time></trkpt>
        <trkpt lat="28.838355" lon="105.310222"><ele>350.7978</ele><time>2026-04-29T17:07:17.000Z</time></trkpt>
        <trkpt lat="28.838359" lon="105.310293"><ele>351.39053</ele><time>2026-04-29T17:07:20.000Z</time></trkpt>
        <trkpt lat="28.838359" lon="105.310354"><ele>350.51263</ele><time>2026-04-29T17:07:22.000Z</time></trkpt>
        <trkpt lat="28.838353" lon="105.310409"><ele>350.28867</ele><time>2026-04-29T17:07:24.000Z</time></trkpt>
        <trkpt lat="28.838369" lon="105.310466"><ele>349.02408</ele><time>2026-04-29T17:07:26.000Z</time></trkpt>
        <trkpt lat="28.838377" lon="105.310526"><ele>348.33408</ele><time>2026-04-29T17:07:28.000Z</time></trkpt>
        <trkpt lat="28.838388" lon="105.310586"><ele>348.95807</ele><time>2026-04-29T17:07:30.000Z</time></trkpt>
        <trkpt lat="28.838393" lon="105.310645"><ele>349.31656</ele><time>2026-04-29T17:07:32.000Z</time></trkpt>
        <trkpt lat="28.838419" lon="105.310712"><ele>350.73618</ele><time>2026-04-29T17:07:35.000Z</time></trkpt>
        <trkpt lat="28.83846" lon="105.310751"><ele>351.0452</ele><time>2026-04-29T17:07:38.000Z</time></trkpt>
        <trkpt lat="28.838509" lon="105.310782"><ele>351.82605</ele><time>2026-04-29T17:07:40.000Z</time></trkpt>
        <trkpt lat="28.838552" lon="105.310813"><ele>352.8499</ele><time>2026-04-29T17:07:42.000Z</time></trkpt>
        <trkpt lat="28.838593" lon="105.310835"><ele>355.1423</ele><time>2026-04-29T17:07:45.000Z</time></trkpt>
        <trkpt lat="28.838645" lon="105.310838"><ele>355.6149</ele><time>2026-04-29T17:07:50.000Z</time></trkpt>
        <trkpt lat="28.838701" lon="105.310858"><ele>355.5472</ele><time>2026-04-29T17:07:55.000Z</time></trkpt>
        <trkpt lat="28.838761" lon="105.310852"><ele>356.91245</ele><time>2026-04-29T17:08:00.000Z</time></trkpt>
        <trkpt lat="28.838733" lon="105.310899"><ele>357.0481</ele><time>2026-04-29T17:08:05.000Z</time></trkpt>
        <trkpt lat="28.838692" lon="105.310934"><ele>358.34085</ele><time>2026-04-29T17:08:09.000Z</time></trkpt>
        <trkpt lat="28.838698" lon="105.31099"><ele>360.5183</ele><time>2026-04-29T17:08:17.000Z</time></trkpt>
        <trkpt lat="28.838675" lon="105.31104"><ele>361.89877</ele><time>2026-04-29T17:08:23.000Z</time></trkpt>
        <trkpt lat="28.838629" lon="105.311076"><ele>362.792</ele><time>2026-04-29T17:08:27.000Z</time></trkpt>
        <trkpt lat="28.838632" lon="105.311137"><ele>364.4108</ele><time>2026-04-29T17:08:32.000Z</time></trkpt>
        <trkpt lat="28.838634" lon="105.311191"><ele>364.69638</ele><time>2026-04-29T17:08:35.000Z</time></trkpt>
        <trkpt lat="28.838635" lon="105.311249"><ele>366.2595</ele><time>2026-04-29T17:08:41.000Z</time></trkpt>
        <trkpt lat="28.838599" lon="105.311281"><ele>368.16116</ele><time>2026-04-29T17:08:49.000Z</time></trkpt>
        <trkpt lat="28.83857" lon="105.311322"><ele>368.4985</ele><time>2026-04-29T17:08:56.000Z</time></trkpt>
        <trkpt lat="28.838559" lon="105.311378"><ele>369.60834</ele><time>2026-04-29T17:09:03.000Z</time></trkpt>
        <trkpt lat="28.838549" lon="105.311429"><ele>372.16046</ele><time>2026-04-29T17:09:10.000Z</time></trkpt>
        <trkpt lat="28.838547" lon="105.311485"><ele>373.66855</ele><time>2026-04-29T17:09:15.000Z</time></trkpt>
        <trkpt lat="28.838531" lon="105.311537"><ele>375.18365</ele><time>2026-04-29T17:09:20.000Z</time></trkpt>
        <trkpt lat="28.838531" lon="105.311593"><ele>376.02652</ele><time>2026-04-29T17:09:25.000Z</time></trkpt>
        <trkpt lat="28.838516" lon="105.311652"><ele>376.60266</ele><time>2026-04-29T17:09:29.000Z</time></trkpt>
        <trkpt lat="28.838499" lon="105.311708"><ele>378.53412</ele><time>2026-04-29T17:09:36.000Z</time></trkpt>
        <trkpt lat="28.838491" lon="105.311761"><ele>380.76477</ele><time>2026-04-29T17:09:40.000Z</time></trkpt>
        <trkpt lat="28.838491" lon="105.311821"><ele>382.27115</ele><time>2026-04-29T17:09:46.000Z</time></trkpt>
        <trkpt lat="28.838479" lon="105.311874"><ele>384.6584</ele><time>2026-04-29T17:09:50.000Z</time></trkpt>
        <trkpt lat="28.838434" lon="105.311886"><ele>384.04544</ele><time>2026-04-29T17:09:54.000Z</time></trkpt>
        <trkpt lat="28.838388" lon="105.311899"><ele>385.21872</ele><time>2026-04-29T17:10:00.000Z</time></trkpt>
        <trkpt lat="28.838342" lon="105.311923"><ele>387.08932</ele><time>2026-04-29T17:10:09.000Z</time></trkpt>
        <trkpt lat="28.838318" lon="105.311976"><ele>387.36</ele><time>2026-04-29T17:10:19.000Z</time></trkpt>
        <trkpt lat="28.838307" lon="105.312039"><ele>389.1264</ele><time>2026-04-29T17:10:26.000Z</time></trkpt>
        <trkpt lat="28.838316" lon="105.31209"><ele>391.60873</ele><time>2026-04-29T17:10:33.000Z</time></trkpt>
        <trkpt lat="28.838312" lon="105.312147"><ele>393.51035</ele><time>2026-04-29T17:10:40.000Z</time></trkpt>
        <trkpt lat="28.838324" lon="105.312203"><ele>394.4273</ele><time>2026-04-29T17:10:45.000Z</time></trkpt>
        <trkpt lat="28.838342" lon="105.312251"><ele>396.98108</ele><time>2026-04-29T17:10:52.000Z</time></trkpt>
        <trkpt lat="28.838359" lon="105.312301"><ele>398.1279</ele><time>2026-04-29T17:10:58.000Z</time></trkpt>
        <trkpt lat="28.838376" lon="105.312349"><ele>399.28873</ele><time>2026-04-29T17:11:06.000Z</time></trkpt>
        <trkpt lat="28.838386" lon="105.312406"><ele>400.14578</ele><time>2026-04-29T17:11:15.000Z</time></trkpt>
        <trkpt lat="28.838354" lon="105.312454"><ele>400.09274</ele><time>2026-04-29T17:11:20.000Z</time></trkpt>
        <trkpt lat="28.838322" lon="105.3125"><ele>400.7998</ele><time>2026-04-29T17:11:28.000Z</time></trkpt>
        <trkpt lat="28.838292" lon="105.312541"><ele>402.80887</ele><time>2026-04-29T17:11:31.000Z</time></trkpt>
        <trkpt lat="28.838248" lon="105.312574"><ele>403.34912</ele><time>2026-04-29T17:11:36.000Z</time></trkpt>
        <trkpt lat="28.838198" lon="105.312583"><ele>404.88052</ele><time>2026-04-29T17:11:41.000Z</time></trkpt>
        <trkpt lat="28.838142" lon="105.312569"><ele>404.7292</ele><time>2026-04-29T17:11:45.000Z</time></trkpt>
        <trkpt lat="28.838091" lon="105.312541"><ele>406.46945</ele><time>2026-04-29T17:11:50.000Z</time></trkpt>
        <trkpt lat="28.838045" lon="105.312545"><ele>407.86203</ele><time>2026-04-29T17:11:56.000Z</time></trkpt>
        <trkpt lat="28.837996" lon="105.312543"><ele>408.8914</ele><time>2026-04-29T17:12:03.000Z</time></trkpt>
        <trkpt lat="28.837953" lon="105.312566"><ele>410.54974</ele><time>2026-04-29T17:12:10.000Z</time></trkpt>
        <trkpt lat="28.837924" lon="105.312621"><ele>412.2724</ele><time>2026-04-29T17:12:16.000Z</time></trkpt>
        <trkpt lat="28.837895" lon="105.312662"><ele>414.2171</ele><time>2026-04-29T17:12:23.000Z</time></trkpt>
        <trkpt lat="28.837857" lon="105.312701"><ele>416.0715</ele><time>2026-04-29T17:12:29.000Z</time></trkpt>
        <trkpt lat="28.837813" lon="105.312735"><ele>416.9118</ele><time>2026-04-29T17:12:34.000Z</time></trkpt>
        <trkpt lat="28.837771" lon="105.312773"><ele>418.48352</ele><time>2026-04-29T17:12:39.000Z</time></trkpt>
        <trkpt lat="28.837721" lon="105.312795"><ele>421.5396</ele><time>2026-04-29T17:12:48.000Z</time></trkpt>
        <trkpt lat="28.837682" lon="105.312824"><ele>423.07495</ele><time>2026-04-29T17:12:56.000Z</time></trkpt>
        <trkpt lat="28.837638" lon="105.312836"><ele>423.24677</ele><time>2026-04-29T17:13:02.000Z</time></trkpt>
        <trkpt lat="28.837589" lon="105.312855"><ele>425.8063</ele><time>2026-04-29T17:13:08.000Z</time></trkpt>
        <trkpt lat="28.837537" lon="105.312871"><ele>426.4156</ele><time>2026-04-29T17:13:16.000Z</time></trkpt>
        <trkpt lat="28.837493" lon="105.312908"><ele>427.69177</ele><time>2026-04-29T17:13:21.000Z</time></trkpt>
        <trkpt lat="28.837448" lon="105.31292"><ele>428.82803</ele><time>2026-04-29T17:13:26.000Z</time></trkpt>
        <trkpt lat="28.837404" lon="105.31295"><ele>430.27524</ele><time>2026-04-29T17:13:31.000Z</time></trkpt>
        <trkpt lat="28.837355" lon="105.312986"><ele>431.76468</ele><time>2026-04-29T17:13:35.000Z</time></trkpt>
        <trkpt lat="28.837302" lon="105.312999"><ele>431.8663</ele><time>2026-04-29T17:13:40.000Z</time></trkpt>
        <trkpt lat="28.837246" lon="105.312996"><ele>433.69498</ele><time>2026-04-29T17:13:44.000Z</time></trkpt>
        <trkpt lat="28.837207" lon="105.313028"><ele>434.38007</ele><time>2026-04-29T17:13:50.000Z</time></trkpt>
        <trkpt lat="28.837157" lon="105.313032"><ele>436.2446</ele><time>2026-04-29T17:13:56.000Z</time></trkpt>
        <trkpt lat="28.837127" lon="105.313073"><ele>437.93134</ele><time>2026-04-29T17:14:00.000Z</time></trkpt>
        <trkpt lat="28.837088" lon="105.313112"><ele>438.88745</ele><time>2026-04-29T17:14:04.000Z</time></trkpt>
        <trkpt lat="28.837054" lon="105.313152"><ele>440.77142</ele><time>2026-04-29T17:14:11.000Z</time></trkpt>
        <trkpt lat="28.837008" lon="105.313167"><ele>442.29163</ele><time>2026-04-29T17:14:16.000Z</time></trkpt>
        <trkpt lat="28.836963" lon="105.31319"><ele>443.9457</ele><time>2026-04-29T17:14:20.000Z</time></trkpt>
        <trkpt lat="28.836915" lon="105.313159"><ele>443.9262</ele><time>2026-04-29T17:14:24.000Z</time></trkpt>
        <trkpt lat="28.836873" lon="105.313121"><ele>444.5736</ele><time>2026-04-29T17:14:28.000Z</time></trkpt>
        <trkpt lat="28.836843" lon="105.313068"><ele>445.00195</ele><time>2026-04-29T17:14:33.000Z</time></trkpt>
        <trkpt lat="28.836796" lon="105.313089"><ele>447.55</ele><time>2026-04-29T17:14:43.000Z</time></trkpt>
        <trkpt lat="28.836766" lon="105.313132"><ele>449.51465</ele><time>2026-04-29T17:14:49.000Z</time></trkpt>
        <trkpt lat="28.836713" lon="105.313127"><ele>450.52435</ele><time>2026-04-29T17:14:59.000Z</time></trkpt>
        <trkpt lat="28.836687" lon="105.313083"><ele>451.35333</ele><time>2026-04-29T17:15:03.000Z</time></trkpt>
        <trkpt lat="28.836644" lon="105.313046"><ele>449.90833</ele><time>2026-04-29T17:15:08.000Z</time></trkpt>
        <trkpt lat="28.836611" lon="105.31309"><ele>451.14963</ele><time>2026-04-29T17:15:12.000Z</time></trkpt>
        <trkpt lat="28.836564" lon="105.313113"><ele>452.90796</ele><time>2026-04-29T17:15:16.000Z</time></trkpt>
        <trkpt lat="28.836556" lon="105.313164"><ele>454.05002</ele><time>2026-04-29T17:15:20.000Z</time></trkpt>
        <trkpt lat="28.836511" lon="105.313173"><ele>455.08603</ele><time>2026-04-29T17:15:25.000Z</time></trkpt>
        <trkpt lat="28.836455" lon="105.313145"><ele>454.19864</ele><time>2026-04-29T17:15:29.000Z</time></trkpt>
        <trkpt lat="28.836406" lon="105.313133"><ele>453.47302</ele><time>2026-04-29T17:15:33.000Z</time></trkpt>
        <trkpt lat="28.836349" lon="105.313146"><ele>453.90057</ele><time>2026-04-29T17:15:36.000Z</time></trkpt>
        <trkpt lat="28.836315" lon="105.313108"><ele>454.51312</ele><time>2026-04-29T17:15:39.000Z</time></trkpt>
        <trkpt lat="28.83627" lon="105.313068"><ele>454.9344</ele><time>2026-04-29T17:15:41.000Z</time></trkpt>
        <trkpt lat="28.83623" lon="105.313036"><ele>455.40384</ele><time>2026-04-29T17:15:43.000Z</time></trkpt>
        <trkpt lat="28.836182" lon="105.312988"><ele>454.90643</ele><time>2026-04-29T17:15:46.000Z</time></trkpt>
        <trkpt lat="28.836143" lon="105.312956"><ele>454.7829</ele><time>2026-04-29T17:15:48.000Z</time></trkpt>
        <trkpt lat="28.836114" lon="105.312911"><ele>454.00522</ele><time>2026-04-29T17:15:50.000Z</time></trkpt>
        <trkpt lat="28.836067" lon="105.312875"><ele>455.74707</ele><time>2026-04-29T17:15:52.000Z</time></trkpt>
        <trkpt lat="28.836018" lon="105.312854"><ele>455.63864</ele><time>2026-04-29T17:15:54.000Z</time></trkpt>
        <trkpt lat="28.835978" lon="105.312831"><ele>455.49313</ele><time>2026-04-29T17:15:56.000Z</time></trkpt>
        <trkpt lat="28.835936" lon="105.312796"><ele>455.81537</ele><time>2026-04-29T17:15:58.000Z</time></trkpt>
        <trkpt lat="28.835898" lon="105.312836"><ele>457.9359</ele><time>2026-04-29T17:16:00.000Z</time></trkpt>
        <trkpt lat="28.835871" lon="105.312888"><ele>460.53214</ele><time>2026-04-29T17:16:02.000Z</time></trkpt>
        <trkpt lat="28.835815" lon="105.312891"><ele>460.54364</ele><time>2026-04-29T17:16:05.000Z</time></trkpt>
        <trkpt lat="28.835755" lon="105.312853"><ele>459.4058</ele><time>2026-04-29T17:16:09.000Z</time></trkpt>
        <trkpt lat="28.835699" lon="105.312818"><ele>461.23407</ele><time>2026-04-29T17:16:12.000Z</time></trkpt>
        <trkpt lat="28.835647" lon="105.312821"><ele>461.70987</ele><time>2026-04-29T17:16:14.000Z</time></trkpt>
        <trkpt lat="28.835598" lon="105.312813"><ele>462.84546</ele><time>2026-04-29T17:16:18.000Z</time></trkpt>
        <trkpt lat="28.835537" lon="105.31279"><ele>463.63287</ele><time>2026-04-29T17:16:22.000Z</time></trkpt>
        <trkpt lat="28.835481" lon="105.312776"><ele>465.38522</ele><time>2026-04-29T17:16:25.000Z</time></trkpt>
        <trkpt lat="28.835448" lon="105.312732"><ele>465.57437</ele><time>2026-04-29T17:16:27.000Z</time></trkpt>
        <trkpt lat="28.835412" lon="105.312689"><ele>464.20135</ele><time>2026-04-29T17:16:30.000Z</time></trkpt>
        <trkpt lat="28.83537" lon="105.312717"><ele>463.66837</ele><time>2026-04-29T17:16:32.000Z</time></trkpt>
        <trkpt lat="28.835319" lon="105.312729"><ele>464.3711</ele><time>2026-04-29T17:16:34.000Z</time></trkpt>
        <trkpt lat="28.835261" lon="105.312742"><ele>466.70236</ele><time>2026-04-29T17:16:37.000Z</time></trkpt>
        <trkpt lat="28.8352" lon="105.312767"><ele>468.6264</ele><time>2026-04-29T17:16:41.000Z</time></trkpt>
        <trkpt lat="28.83514" lon="105.312773"><ele>469.58658</ele><time>2026-04-29T17:16:45.000Z</time></trkpt>
        <trkpt lat="28.835086" lon="105.312775"><ele>467.6103</ele><time>2026-04-29T17:16:52.000Z</time></trkpt>
        <trkpt lat="28.83504" lon="105.312799"><ele>468.69012</ele><time>2026-04-29T17:16:59.000Z</time></trkpt>
        <trkpt lat="28.834992" lon="105.312819"><ele>468.90625</ele><time>2026-04-29T17:17:04.000Z</time></trkpt>
        <trkpt lat="28.834946" lon="105.312822"><ele>469.69244</ele><time>2026-04-29T17:17:08.000Z</time></trkpt>
        <trkpt lat="28.834899" lon="105.312829"><ele>469.225</ele><time>2026-04-29T17:17:14.000Z</time></trkpt>
        <trkpt lat="28.83485" lon="105.31283"><ele>469.3823</ele><time>2026-04-29T17:17:19.000Z</time></trkpt>
        <trkpt lat="28.834798" lon="105.312836"><ele>470.4311</ele><time>2026-04-29T17:17:25.000Z</time></trkpt>
        <trkpt lat="28.834748" lon="105.312842"><ele>471.78998</ele><time>2026-04-29T17:17:33.000Z</time></trkpt>
        <trkpt lat="28.834696" lon="105.312848"><ele>468.59198</ele><time>2026-04-29T17:17:37.000Z</time></trkpt>
        <trkpt lat="28.834646" lon="105.31284"><ele>466.26456</ele><time>2026-04-29T17:17:42.000Z</time></trkpt>
        <trkpt lat="28.834599" lon="105.312851"><ele>466.06824</ele><time>2026-04-29T17:17:56.000Z</time></trkpt>
        <trkpt lat="28.834556" lon="105.312874"><ele>466.25992</ele><time>2026-04-29T17:18:02.000Z</time></trkpt>
        <trkpt lat="28.834508" lon="105.312883"><ele>467.227</ele><time>2026-04-29T17:18:09.000Z</time></trkpt>
        <trkpt lat="28.834464" lon="105.312896"><ele>468.98706</ele><time>2026-04-29T17:18:17.000Z</time></trkpt>
        <trkpt lat="28.834417" lon="105.312903"><ele>468.6715</ele><time>2026-04-29T17:18:25.000Z</time></trkpt>
        <trkpt lat="28.834391" lon="105.312852"><ele>466.84085</ele><time>2026-04-29T17:18:30.000Z</time></trkpt>
        <trkpt lat="28.834395" lon="105.312907"><ele>480.55988</ele><time>2026-04-29T17:18:38.000Z</time></trkpt>
        <trkpt lat="28.834356" lon="105.312942"><ele>492.83084</ele><time>2026-04-29T17:18:54.000Z</time></trkpt>
        <trkpt lat="28.834311" lon="105.312969"><ele>493.7997</ele><time>2026-04-29T17:19:12.000Z</time></trkpt>
        <trkpt lat="28.834267" lon="105.312988"><ele>495.156</ele><time>2026-04-29T17:19:22.000Z</time></trkpt>
        <trkpt lat="28.834226" lon="105.31301"><ele>495.24924</ele><time>2026-04-29T17:19:28.000Z</time></trkpt>
        <trkpt lat="28.834179" lon="105.313021"><ele>495.8625</ele><time>2026-04-29T17:19:38.000Z</time></trkpt>
        <trkpt lat="28.834129" lon="105.313025"><ele>497.775</ele><time>2026-04-29T17:19:47.000Z</time></trkpt>
        <trkpt lat="28.834085" lon="105.313006"><ele>496.43042</ele><time>2026-04-29T17:19:53.000Z</time></trkpt>
        <trkpt lat="28.834046" lon="105.312975"><ele>494.37378</ele><time>2026-04-29T17:19:59.000Z</time></trkpt>
        <trkpt lat="28.834003" lon="105.31294"><ele>491.9616</ele><time>2026-04-29T17:20:02.000Z</time></trkpt>
        <trkpt lat="28.833992" lon="105.312887"><ele>490.13687</ele><time>2026-04-29T17:20:06.000Z</time></trkpt>
        <trkpt lat="28.833974" lon="105.312838"><ele>486.24338</ele><time>2026-04-29T17:20:11.000Z</time></trkpt>
        <trkpt lat="28.833982" lon="105.312775"><ele>484.22482</ele><time>2026-04-29T17:20:15.000Z</time></trkpt>
        <trkpt lat="28.834005" lon="105.312731"><ele>484.7488</ele><time>2026-04-29T17:20:18.000Z</time></trkpt>
        <trkpt lat="28.834" lon="105.312674"><ele>483.42993</ele><time>2026-04-29T17:20:22.000Z</time></trkpt>
        <trkpt lat="28.833988" lon="105.312614"><ele>482.57095</ele><time>2026-04-29T17:20:26.000Z</time></trkpt>
        <trkpt lat="28.834016" lon="105.312567"><ele>483.22964</ele><time>2026-04-29T17:20:31.000Z</time></trkpt>
        <trkpt lat="28.83399" lon="105.312524"><ele>501.32812</ele><time>2026-04-29T17:20:39.000Z</time></trkpt>
        <trkpt lat="28.833942" lon="105.312493"><ele>516.9253</ele><time>2026-04-29T17:20:57.000Z</time></trkpt>
        <trkpt lat="28.833896" lon="105.312482"><ele>513.57196</ele><time>2026-04-29T17:21:03.000Z</time></trkpt>
        <trkpt lat="28.833851" lon="105.312471"><ele>510.82016</ele><time>2026-04-29T17:21:09.000Z</time></trkpt>
        <trkpt lat="28.833801" lon="105.312477"><ele>507.82974</ele><time>2026-04-29T17:21:14.000Z</time></trkpt>
        <trkpt lat="28.833759" lon="105.312456"><ele>505.72986</ele><time>2026-04-29T17:21:19.000Z</time></trkpt>
        <trkpt lat="28.833727" lon="105.31241"><ele>509.336</ele><time>2026-04-29T17:21:30.000Z</time></trkpt>
        <trkpt lat="28.833757" lon="105.312361"><ele>510.66354</ele><time>2026-04-29T17:21:32.000Z</time></trkpt>
        <trkpt lat="28.833757" lon="105.312304"><ele>518.53033</ele><time>2026-04-29T17:21:42.000Z</time></trkpt>
        <trkpt lat="28.833762" lon="105.312249"><ele>521.6507</ele><time>2026-04-29T17:21:48.000Z</time></trkpt>
        <trkpt lat="28.833789" lon="105.312191"><ele>526.27094</ele><time>2026-04-29T17:21:57.000Z</time></trkpt>
        <trkpt lat="28.833764" lon="105.312143"><ele>528.6908</ele><time>2026-04-29T17:22:06.000Z</time></trkpt>
        <trkpt lat="28.833728" lon="105.312105"><ele>529.3695</ele><time>2026-04-29T17:22:13.000Z</time></trkpt>
        <trkpt lat="28.833689" lon="105.312077"><ele>530.5744</ele><time>2026-04-29T17:22:23.000Z</time></trkpt>
        <trkpt lat="28.833653" lon="105.312044"><ele>530.5694</ele><time>2026-04-29T17:22:27.000Z</time></trkpt>
        <trkpt lat="28.833654" lon="105.311987"><ele>535.6853</ele><time>2026-04-29T17:22:36.000Z</time></trkpt>
        <trkpt lat="28.833619" lon="105.311948"><ele>537.9978</ele><time>2026-04-29T17:22:47.000Z</time></trkpt>
        <trkpt lat="28.833559" lon="105.31195"><ele>535.8012</ele><time>2026-04-29T17:22:51.000Z</time></trkpt>
        <trkpt lat="28.833592" lon="105.311781"><ele>541.4841</ele><time>2026-04-29T17:23:27.000Z</time></trkpt>
        <trkpt lat="28.833575" lon="105.311732"><ele>549.6499</ele><time>2026-04-29T17:23:50.000Z</time></trkpt>
        <trkpt lat="28.833588" lon="105.311677"><ele>555.4658</ele><time>2026-04-29T17:24:02.000Z</time></trkpt>
        <trkpt lat="28.83361" lon="105.311632"><ele>553.53326</ele><time>2026-04-29T17:24:09.000Z</time></trkpt>
        <trkpt lat="28.833616" lon="105.311578"><ele>552.21893</ele><time>2026-04-29T17:24:14.000Z</time></trkpt>
        <trkpt lat="28.833646" lon="105.311532"><ele>548.3431</ele><time>2026-04-29T17:24:19.000Z</time></trkpt>
        <trkpt lat="28.833658" lon="105.31148"><ele>543.4642</ele><time>2026-04-29T17:24:24.000Z</time></trkpt>
        <trkpt lat="28.833683" lon="105.311429"><ele>540.73364</ele><time>2026-04-29T17:24:32.000Z</time></trkpt>
        <trkpt lat="28.83363" lon="105.311457"><ele>539.53564</ele><time>2026-04-29T17:25:39.000Z</time></trkpt>
        <trkpt lat="28.833597" lon="105.311494"><ele>549.3453</ele><time>2026-04-29T17:25:59.000Z</time></trkpt>
        <trkpt lat="28.833582" lon="105.311553"><ele>553.19836</ele><time>2026-04-29T17:27:15.000Z</time></trkpt>
        <trkpt lat="28.833522" lon="105.311693"><ele>556.10455</ele><time>2026-04-29T17:27:35.000Z</time></trkpt>
        <trkpt lat="28.833473" lon="105.311703"><ele>556.52563</ele><time>2026-04-29T17:27:40.000Z</time></trkpt>
        <trkpt lat="28.833488" lon="105.311754"><ele>558.3108</ele><time>2026-04-29T17:27:43.000Z</time></trkpt>
        <trkpt lat="28.833518" lon="105.311827"><ele>562.2739</ele><time>2026-04-29T17:27:49.000Z</time></trkpt>
        <trkpt lat="28.833481" lon="105.311795"><ele>563.1269</ele><time>2026-04-29T17:27:50.000Z</time></trkpt>
        <trkpt lat="28.833439" lon="105.311837"><ele>565.56323</ele><time>2026-04-29T17:27:53.000Z</time></trkpt>
        <trkpt lat="28.833365" lon="105.311873"><ele>565.0615</ele><time>2026-04-29T17:28:22.000Z</time></trkpt>
        <trkpt lat="28.833369" lon="105.311821"><ele>569.4766</ele><time>2026-04-29T17:28:30.000Z</time></trkpt>
        <trkpt lat="28.833381" lon="105.311759"><ele>570.9759</ele><time>2026-04-29T17:28:38.000Z</time></trkpt>
        <trkpt lat="28.833414" lon="105.311719"><ele>573.6536</ele><time>2026-04-29T17:28:44.000Z</time></trkpt>
        <trkpt lat="28.833461" lon="105.311703"><ele>574.11005</ele><time>2026-04-29T17:28:50.000Z</time></trkpt>
        <trkpt lat="28.833449" lon="105.311649"><ele>575.7718</ele><time>2026-04-29T17:28:58.000Z</time></trkpt>
        <trkpt lat="28.833436" lon="105.311598"><ele>574.48175</ele><time>2026-04-29T17:29:09.000Z</time></trkpt>
        <trkpt lat="28.833439" lon="105.311545"><ele>574.43</ele><time>2026-04-29T17:29:18.000Z</time></trkpt>
        <trkpt lat="28.833464" lon="105.311495"><ele>573.9587</ele><time>2026-04-29T17:29:32.000Z</time></trkpt>
        <trkpt lat="28.833466" lon="105.311436"><ele>576.28485</ele><time>2026-04-29T17:29:40.000Z</time></trkpt>
        <trkpt lat="28.833484" lon="105.311381"><ele>579.36426</ele><time>2026-04-29T17:29:54.000Z</time></trkpt>
        <trkpt lat="28.833494" lon="105.31133"><ele>579.7104</ele><time>2026-04-29T17:30:03.000Z</time></trkpt>
        <trkpt lat="28.833496" lon="105.311278"><ele>579.64514</ele><time>2026-04-29T17:30:40.000Z</time></trkpt>
        <trkpt lat="28.833455" lon="105.311253"><ele>581.9984</ele><time>2026-04-29T17:30:51.000Z</time></trkpt>
        <trkpt lat="28.833418" lon="105.31122"><ele>582.84644</ele><time>2026-04-29T17:31:01.000Z</time></trkpt>
        <trkpt lat="28.833387" lon="105.311175"><ele>584.7682</ele><time>2026-04-29T17:31:08.000Z</time></trkpt>
        <trkpt lat="28.833363" lon="105.311121"><ele>588.6029</ele><time>2026-04-29T17:31:19.000Z</time></trkpt>
        <trkpt lat="28.83332" lon="105.311093"><ele>593.0482</ele><time>2026-04-29T17:31:26.000Z</time></trkpt>
        <trkpt lat="28.83328" lon="105.311063"><ele>597.56494</ele><time>2026-04-29T17:31:34.000Z</time></trkpt>
        <trkpt lat="28.833232" lon="105.311043"><ele>597.3166</ele><time>2026-04-29T17:31:43.000Z</time></trkpt>
        <trkpt lat="28.833194" lon="105.311015"><ele>597.92993</ele><time>2026-04-29T17:31:48.000Z</time></trkpt>
        <trkpt lat="28.833153" lon="105.310989"><ele>598.38495</ele><time>2026-04-29T17:31:51.000Z</time></trkpt>
        <trkpt lat="28.833101" lon="105.310977"><ele>599.5391</ele><time>2026-04-29T17:31:58.000Z</time></trkpt>
        <trkpt lat="28.833076" lon="105.310928"><ele>601.1299</ele><time>2026-04-29T17:32:08.000Z</time></trkpt>
        <trkpt lat="28.83304" lon="105.31089"><ele>604.0385</ele><time>2026-04-29T17:32:13.000Z</time></trkpt>
        <trkpt lat="28.832998" lon="105.310859"><ele>604.35175</ele><time>2026-04-29T17:32:17.000Z</time></trkpt>
        <trkpt lat="28.832951" lon="105.310824"><ele>604.41254</ele><time>2026-04-29T17:32:21.000Z</time></trkpt>
        <trkpt lat="28.832914" lon="105.310779"><ele>605.6609</ele><time>2026-04-29T17:32:25.000Z</time></trkpt>
        <trkpt lat="28.832879" lon="105.310731"><ele>607.2781</ele><time>2026-04-29T17:32:29.000Z</time></trkpt>
        <trkpt lat="28.832846" lon="105.310693"><ele>607.9715</ele><time>2026-04-29T17:32:33.000Z</time></trkpt>
        <trkpt lat="28.832809" lon="105.310647"><ele>608.1421</ele><time>2026-04-29T17:32:38.000Z</time></trkpt>
        <trkpt lat="28.832765" lon="105.310623"><ele>608.62726</ele><time>2026-04-29T17:32:42.000Z</time></trkpt>
        <trkpt lat="28.832718" lon="105.3106"><ele>608.82263</ele><time>2026-04-29T17:32:46.000Z</time></trkpt>
        <trkpt lat="28.832685" lon="105.310565"><ele>609.8935</ele><time>2026-04-29T17:32:49.000Z</time></trkpt>
        <trkpt lat="28.832638" lon="105.310546"><ele>608.5439</ele><time>2026-04-29T17:32:53.000Z</time></trkpt>
        <trkpt lat="28.832589" lon="105.310535"><ele>611.1623</ele><time>2026-04-29T17:32:57.000Z</time></trkpt>
        <trkpt lat="28.832537" lon="105.310509"><ele>614.7414</ele><time>2026-04-29T17:33:01.000Z</time></trkpt>
        <trkpt lat="28.832493" lon="105.310482"><ele>617.3947</ele><time>2026-04-29T17:33:04.000Z</time></trkpt>
        <trkpt lat="28.832446" lon="105.310447"><ele>620.12054</ele><time>2026-04-29T17:33:09.000Z</time></trkpt>
        <trkpt lat="28.832399" lon="105.310412"><ele>621.69006</ele><time>2026-04-29T17:33:13.000Z</time></trkpt>
        <trkpt lat="28.832357" lon="105.310369"><ele>621.86957</ele><time>2026-04-29T17:33:17.000Z</time></trkpt>
        <trkpt lat="28.83231" lon="105.31034"><ele>622.32635</ele><time>2026-04-29T17:33:21.000Z</time></trkpt>
        <trkpt lat="28.832264" lon="105.310306"><ele>622.1365</ele><time>2026-04-29T17:33:26.000Z</time></trkpt>
        <trkpt lat="28.83223" lon="105.310264"><ele>621.1952</ele><time>2026-04-29T17:33:31.000Z</time></trkpt>
        <trkpt lat="28.832192" lon="105.310234"><ele>622.3627</ele><time>2026-04-29T17:33:39.000Z</time></trkpt>
        <trkpt lat="28.83215" lon="105.310206"><ele>623.093</ele><time>2026-04-29T17:33:50.000Z</time></trkpt>
        <trkpt lat="28.832104" lon="105.310194"><ele>621.55255</ele><time>2026-04-29T17:33:57.000Z</time></trkpt>
        <trkpt lat="28.832055" lon="105.310206"><ele>619.83545</ele><time>2026-04-29T17:34:03.000Z</time></trkpt>
        <trkpt lat="28.832011" lon="105.310233"><ele>618.16016</ele><time>2026-04-29T17:34:08.000Z</time></trkpt>
        <trkpt lat="28.831972" lon="105.31026"><ele>618.43756</ele><time>2026-04-29T17:34:14.000Z</time></trkpt>
        <trkpt lat="28.831935" lon="105.310303"><ele>619.31793</ele><time>2026-04-29T17:34:21.000Z</time></trkpt>
        <trkpt lat="28.831939" lon="105.310357"><ele>620.32715</ele><time>2026-04-29T17:34:24.000Z</time></trkpt>
        <trkpt lat="28.831947" lon="105.31041"><ele>622.27484</ele><time>2026-04-29T17:34:28.000Z</time></trkpt>
        <trkpt lat="28.831971" lon="105.310457"><ele>623.68896</ele><time>2026-04-29T17:34:34.000Z</time></trkpt>
        <trkpt lat="28.832016" lon="105.310491"><ele>623.6565</ele><time>2026-04-29T17:34:41.000Z</time></trkpt>
        <trkpt lat="28.832046" lon="105.31053"><ele>623.8292</ele><time>2026-04-29T17:34:46.000Z</time></trkpt>
        <trkpt lat="28.832068" lon="105.310585"><ele>625.2797</ele><time>2026-04-29T17:34:51.000Z</time></trkpt>
        <trkpt lat="28.832097" lon="105.310632"><ele>625.5138</ele><time>2026-04-29T17:34:57.000Z</time></trkpt>
        <trkpt lat="28.832138" lon="105.310666"><ele>627.5443</ele><time>2026-04-29T17:35:05.000Z</time></trkpt>
        <trkpt lat="28.832161" lon="105.310715"><ele>629.0923</ele><time>2026-04-29T17:35:11.000Z</time></trkpt>
        <trkpt lat="28.832181" lon="105.310779"><ele>630.3354</ele><time>2026-04-29T17:35:17.000Z</time></trkpt>
        <trkpt lat="28.832187" lon="105.31083"><ele>631.2243</ele><time>2026-04-29T17:35:20.000Z</time></trkpt>
        <trkpt lat="28.832188" lon="105.310885"><ele>632.1458</ele><time>2026-04-29T17:35:25.000Z</time></trkpt>
        <trkpt lat="28.832187" lon="105.310941"><ele>633.0427</ele><time>2026-04-29T17:35:30.000Z</time></trkpt>
        <trkpt lat="28.832176" lon="105.310998"><ele>631.91815</ele><time>2026-04-29T17:35:35.000Z</time></trkpt>
        <trkpt lat="28.832184" lon="105.311056"><ele>631.80133</ele><time>2026-04-29T17:35:39.000Z</time></trkpt>
        <trkpt lat="28.832163" lon="105.311126"><ele>632.37915</ele><time>2026-04-29T17:35:44.000Z</time></trkpt>
        <trkpt lat="28.83214" lon="105.31117"><ele>630.79694</ele><time>2026-04-29T17:35:47.000Z</time></trkpt>
        <trkpt lat="28.832119" lon="105.311219"><ele>629.01074</ele><time>2026-04-29T17:35:51.000Z</time></trkpt>
        <trkpt lat="28.832089" lon="105.31129"><ele>626.6594</ele><time>2026-04-29T17:35:55.000Z</time></trkpt>
        <trkpt lat="28.832073" lon="105.311342"><ele>626.11584</ele><time>2026-04-29T17:35:58.000Z</time></trkpt>
        <trkpt lat="28.832045" lon="105.311396"><ele>624.4506</ele><time>2026-04-29T17:36:00.000Z</time></trkpt>
        <trkpt lat="28.832031" lon="105.311467"><ele>624.04565</ele><time>2026-04-29T17:36:02.000Z</time></trkpt>
        <trkpt lat="28.832013" lon="105.31153"><ele>624.31915</ele><time>2026-04-29T17:36:05.000Z</time></trkpt>
        <trkpt lat="28.831978" lon="105.311591"><ele>624.0733</ele><time>2026-04-29T17:36:08.000Z</time></trkpt>
        <trkpt lat="28.831956" lon="105.311648"><ele>623.97504</ele><time>2026-04-29T17:36:10.000Z</time></trkpt>
        <trkpt lat="28.831943" lon="105.311707"><ele>623.8529</ele><time>2026-04-29T17:36:12.000Z</time></trkpt>
        <trkpt lat="28.831915" lon="105.311774"><ele>623.79517</ele><time>2026-04-29T17:36:15.000Z</time></trkpt>
        <trkpt lat="28.831884" lon="105.311828"><ele>623.97266</ele><time>2026-04-29T17:36:17.000Z</time></trkpt>
        <trkpt lat="28.831856" lon="105.311886"><ele>624.3459</ele><time>2026-04-29T17:36:19.000Z</time></trkpt>
        <trkpt lat="28.8319" lon="105.31191"><ele>621.48706</ele><time>2026-04-29T17:36:27.000Z</time></trkpt>
        <trkpt lat="28.831932" lon="105.311953"><ele>621.0798</ele><time>2026-04-29T17:36:29.000Z</time></trkpt>
        <trkpt lat="28.831976" lon="105.312003"><ele>619.7728</ele><time>2026-04-29T17:36:32.000Z</time></trkpt>
        <trkpt lat="28.831988" lon="105.312054"><ele>620.0749</ele><time>2026-04-29T17:36:34.000Z</time></trkpt>
        <trkpt lat="28.832" lon="105.312105"><ele>620.6767</ele><time>2026-04-29T17:36:36.000Z</time></trkpt>
        <trkpt lat="28.832009" lon="105.312162"><ele>621.1402</ele><time>2026-04-29T17:36:39.000Z</time></trkpt>
        <trkpt lat="28.832034" lon="105.312209"><ele>621.1964</ele><time>2026-04-29T17:36:42.000Z</time></trkpt>
        <trkpt lat="28.832065" lon="105.312253"><ele>621.11346</ele><time>2026-04-29T17:36:45.000Z</time></trkpt>
        <trkpt lat="28.832115" lon="105.312292"><ele>620.61475</ele><time>2026-04-29T17:36:49.000Z</time></trkpt>
        <trkpt lat="28.83217" lon="105.31232"><ele>619.67</ele><time>2026-04-29T17:36:53.000Z</time></trkpt>
        <trkpt lat="28.832214" lon="105.312336"><ele>619.1177</ele><time>2026-04-29T17:36:56.000Z</time></trkpt>
        <trkpt lat="28.832262" lon="105.312371"><ele>617.25604</ele><time>2026-04-29T17:37:00.000Z</time></trkpt>
        <trkpt lat="28.832316" lon="105.31241"><ele>613.82996</ele><time>2026-04-29T17:37:05.000Z</time></trkpt>
        <trkpt lat="28.832376" lon="105.312435"><ele>613.6628</ele><time>2026-04-29T17:37:08.000Z</time></trkpt>
        <trkpt lat="28.832425" lon="105.312453"><ele>613.9892</ele><time>2026-04-29T17:37:15.000Z</time></trkpt>
        <trkpt lat="28.832487" lon="105.312496"><ele>611.71735</ele><time>2026-04-29T17:37:20.000Z</time></trkpt>
        <trkpt lat="28.832523" lon="105.312536"><ele>611.5338</ele><time>2026-04-29T17:37:23.000Z</time></trkpt>
        <trkpt lat="28.832554" lon="105.312588"><ele>610.9337</ele><time>2026-04-29T17:37:27.000Z</time></trkpt>
        <trkpt lat="28.832567" lon="105.312652"><ele>611.4396</ele><time>2026-04-29T17:37:34.000Z</time></trkpt>
        <trkpt lat="28.832571" lon="105.312705"><ele>609.6995</ele><time>2026-04-29T17:37:38.000Z</time></trkpt>
        <trkpt lat="28.83257" lon="105.312761"><ele>609.30835</ele><time>2026-04-29T17:37:40.000Z</time></trkpt>
        <trkpt lat="28.832564" lon="105.312818"><ele>608.68854</ele><time>2026-04-29T17:37:43.000Z</time></trkpt>
        <trkpt lat="28.832561" lon="105.312874"><ele>607.0228</ele><time>2026-04-29T17:37:47.000Z</time></trkpt>
        <trkpt lat="28.832537" lon="105.312922"><ele>603.7347</ele><time>2026-04-29T17:37:53.000Z</time></trkpt>
        <trkpt lat="28.832521" lon="105.312972"><ele>601.4222</ele><time>2026-04-29T17:38:03.000Z</time></trkpt>
        <trkpt lat="28.832528" lon="105.313028"><ele>600.4327</ele><time>2026-04-29T17:38:07.000Z</time></trkpt>
        <trkpt lat="28.832532" lon="105.313079"><ele>598.85486</ele><time>2026-04-29T17:38:11.000Z</time></trkpt>
        <trkpt lat="28.832535" lon="105.313134"><ele>596.71545</ele><time>2026-04-29T17:38:17.000Z</time></trkpt>
        <trkpt lat="28.832543" lon="105.313192"><ele>594.2597</ele><time>2026-04-29T17:38:20.000Z</time></trkpt>
        <trkpt lat="28.832539" lon="105.313251"><ele>591.6644</ele><time>2026-04-29T17:38:27.000Z</time></trkpt>
        <trkpt lat="28.83253" lon="105.313302"><ele>590.76166</ele><time>2026-04-29T17:38:32.000Z</time></trkpt>
        <trkpt lat="28.832526" lon="105.313356"><ele>589.6264</ele><time>2026-04-29T17:38:38.000Z</time></trkpt>
        <trkpt lat="28.832554" lon="105.313406"><ele>588.2008</ele><time>2026-04-29T17:38:42.000Z</time></trkpt>
        <trkpt lat="28.832586" lon="105.313458"><ele>587.6256</ele><time>2026-04-29T17:38:46.000Z</time></trkpt>
        <trkpt lat="28.832629" lon="105.313507"><ele>586.5712</ele><time>2026-04-29T17:38:49.000Z</time></trkpt>
        <trkpt lat="28.832665" lon="105.313539"><ele>586.1411</ele><time>2026-04-29T17:38:51.000Z</time></trkpt>
        <trkpt lat="28.832706" lon="105.313571"><ele>585.7712</ele><time>2026-04-29T17:38:54.000Z</time></trkpt>
        <trkpt lat="28.832739" lon="105.313614"><ele>582.7291</ele><time>2026-04-29T17:38:59.000Z</time></trkpt>
        <trkpt lat="28.832702" lon="105.313666"><ele>580.82117</ele><time>2026-04-29T17:39:05.000Z</time></trkpt>
        <trkpt lat="28.832668" lon="105.313716"><ele>584.48395</ele><time>2026-04-29T17:39:10.000Z</time></trkpt>
        <trkpt lat="28.832637" lon="105.31377"><ele>585.8963</ele><time>2026-04-29T17:39:14.000Z</time></trkpt>
        <trkpt lat="28.832623" lon="105.313822"><ele>587.96967</ele><time>2026-04-29T17:39:21.000Z</time></trkpt>
        <trkpt lat="28.832611" lon="105.313872"><ele>590.4559</ele><time>2026-04-29T17:39:29.000Z</time></trkpt>
        <trkpt lat="28.832654" lon="105.313899"><ele>591.76086</ele><time>2026-04-29T17:39:42.000Z</time></trkpt>
        <trkpt lat="28.832685" lon="105.313947"><ele>591.1149</ele><time>2026-04-29T17:39:50.000Z</time></trkpt>
        <trkpt lat="28.832656" lon="105.313994"><ele>592.1635</ele><time>2026-04-29T17:40:00.000Z</time></trkpt>
        <trkpt lat="28.832643" lon="105.314051"><ele>593.8137</ele><time>2026-04-29T17:40:07.000Z</time></trkpt>
        <trkpt lat="28.832613" lon="105.314092"><ele>595.5877</ele><time>2026-04-29T17:40:15.000Z</time></trkpt>
        <trkpt lat="28.832574" lon="105.314134"><ele>597.5543</ele><time>2026-04-29T17:40:20.000Z</time></trkpt>
        <trkpt lat="28.832554" lon="105.314181"><ele>598.2312</ele><time>2026-04-29T17:40:25.000Z</time></trkpt>
        <trkpt lat="28.832599" lon="105.31421"><ele>597.3181</ele><time>2026-04-29T17:40:29.000Z</time></trkpt>
        <trkpt lat="28.832656" lon="105.31422"><ele>598.0026</ele><time>2026-04-29T17:40:33.000Z</time></trkpt>
        <trkpt lat="28.832681" lon="105.314264"><ele>597.8687</ele><time>2026-04-29T17:40:38.000Z</time></trkpt>
        <trkpt lat="28.832716" lon="105.314297"><ele>597.6591</ele><time>2026-04-29T17:40:41.000Z</time></trkpt>
        <trkpt lat="28.832753" lon="105.314337"><ele>598.566</ele><time>2026-04-29T17:40:45.000Z</time></trkpt>
        <trkpt lat="28.83279" lon="105.314374"><ele>600.7185</ele><time>2026-04-29T17:40:49.000Z</time></trkpt>
        <trkpt lat="28.832826" lon="105.314421"><ele>601.4186</ele><time>2026-04-29T17:40:53.000Z</time></trkpt>
        <trkpt lat="28.832857" lon="105.314458"><ele>602.0954</ele><time>2026-04-29T17:40:57.000Z</time></trkpt>
        <trkpt lat="28.832889" lon="105.314498"><ele>602.00854</ele><time>2026-04-29T17:41:01.000Z</time></trkpt>
        <trkpt lat="28.83294" lon="105.314491"><ele>602.9882</ele><time>2026-04-29T17:41:05.000Z</time></trkpt>
        <trkpt lat="28.832986" lon="105.314472"><ele>603.6432</ele><time>2026-04-29T17:41:08.000Z</time></trkpt>
        <trkpt lat="28.833041" lon="105.314464"><ele>603.97614</ele><time>2026-04-29T17:41:12.000Z</time></trkpt>
        <trkpt lat="28.833089" lon="105.314475"><ele>603.7954</ele><time>2026-04-29T17:41:16.000Z</time></trkpt>
        <trkpt lat="28.833141" lon="105.314477"><ele>601.89343</ele><time>2026-04-29T17:41:20.000Z</time></trkpt>
        <trkpt lat="28.833195" lon="105.314483"><ele>601.67566</ele><time>2026-04-29T17:41:25.000Z</time></trkpt>
        <trkpt lat="28.833248" lon="105.314481"><ele>601.5583</ele><time>2026-04-29T17:41:29.000Z</time></trkpt>
        <trkpt lat="28.833298" lon="105.314478"><ele>601.6224</ele><time>2026-04-29T17:41:33.000Z</time></trkpt>
        <trkpt lat="28.833361" lon="105.314472"><ele>602.8744</ele><time>2026-04-29T17:41:36.000Z</time></trkpt>
        <trkpt lat="28.833406" lon="105.314461"><ele>602.4651</ele><time>2026-04-29T17:41:39.000Z</time></trkpt>
        <trkpt lat="28.833464" lon="105.31446"><ele>600.8517</ele><time>2026-04-29T17:41:43.000Z</time></trkpt>
        <trkpt lat="28.833511" lon="105.314475"><ele>598.47656</ele><time>2026-04-29T17:41:47.000Z</time></trkpt>
        <trkpt lat="28.833563" lon="105.314484"><ele>597.7279</ele><time>2026-04-29T17:41:51.000Z</time></trkpt>
        <trkpt lat="28.833611" lon="105.314484"><ele>596.79175</ele><time>2026-04-29T17:41:55.000Z</time></trkpt>
        <trkpt lat="28.833659" lon="105.314493"><ele>595.37384</ele><time>2026-04-29T17:41:59.000Z</time></trkpt>
        <trkpt lat="28.833702" lon="105.314518"><ele>593.63763</ele><time>2026-04-29T17:42:02.000Z</time></trkpt>
        <trkpt lat="28.833758" lon="105.314524"><ele>592.5947</ele><time>2026-04-29T17:42:06.000Z</time></trkpt>
        <trkpt lat="28.83381" lon="105.314539"><ele>591.1571</ele><time>2026-04-29T17:42:10.000Z</time></trkpt>
        <trkpt lat="28.83386" lon="105.314568"><ele>590.0125</ele><time>2026-04-29T17:42:15.000Z</time></trkpt>
        <trkpt lat="28.833906" lon="105.314611"><ele>588.60675</ele><time>2026-04-29T17:42:19.000Z</time></trkpt>
        <trkpt lat="28.833948" lon="105.314642"><ele>587.85065</ele><time>2026-04-29T17:42:23.000Z</time></trkpt>
        <trkpt lat="28.83398" lon="105.314682"><ele>585.8844</ele><time>2026-04-29T17:42:26.000Z</time></trkpt>
        <trkpt lat="28.834014" lon="105.314727"><ele>585.28723</ele><time>2026-04-29T17:42:30.000Z</time></trkpt>
        <trkpt lat="28.834048" lon="105.314763"><ele>584.2561</ele><time>2026-04-29T17:42:33.000Z</time></trkpt>
        <trkpt lat="28.834099" lon="105.314772"><ele>581.9506</ele><time>2026-04-29T17:42:36.000Z</time></trkpt>
        <trkpt lat="28.834149" lon="105.314787"><ele>581.0401</ele><time>2026-04-29T17:42:40.000Z</time></trkpt>
        <trkpt lat="28.834203" lon="105.314786"><ele>580.37885</ele><time>2026-04-29T17:42:44.000Z</time></trkpt>
        <trkpt lat="28.834252" lon="105.314777"><ele>582.15356</ele><time>2026-04-29T17:42:49.000Z</time></trkpt>
        <trkpt lat="28.834296" lon="105.314763"><ele>586.7696</ele><time>2026-04-29T17:42:55.000Z</time></trkpt>
        <trkpt lat="28.834342" lon="105.314759"><ele>577.1485</ele><time>2026-04-29T17:43:01.000Z</time></trkpt>
        <trkpt lat="28.834391" lon="105.31478"><ele>570.4939</ele><time>2026-04-29T17:43:07.000Z</time></trkpt>
        <trkpt lat="28.834439" lon="105.314805"><ele>568.29205</ele><time>2026-04-29T17:43:11.000Z</time></trkpt>
        <trkpt lat="28.834485" lon="105.314849"><ele>567.8296</ele><time>2026-04-29T17:43:14.000Z</time></trkpt>
        <trkpt lat="28.834531" lon="105.314877"><ele>569.1482</ele><time>2026-04-29T17:43:30.000Z</time></trkpt>
        <trkpt lat="28.834589" lon="105.314897"><ele>567.1048</ele><time>2026-04-29T17:43:41.000Z</time></trkpt>
        <trkpt lat="28.834549" lon="105.314869"><ele>584.4478</ele><time>2026-04-29T17:44:46.000Z</time></trkpt>
        <trkpt lat="28.834524" lon="105.314919"><ele>590.90894</ele><time>2026-04-29T17:45:32.000Z</time></trkpt>
        <trkpt lat="28.834474" lon="105.314931"><ele>589.79114</ele><time>2026-04-29T17:46:37.000Z</time></trkpt>
        <trkpt lat="28.834463" lon="105.314874"><ele>580.9672</ele><time>2026-04-29T17:46:42.000Z</time></trkpt>
        <trkpt lat="28.834403" lon="105.314835"><ele>578.7694</ele><time>2026-04-29T17:46:46.000Z</time></trkpt>
        <trkpt lat="28.834344" lon="105.314807"><ele>576.1847</ele><time>2026-04-29T17:46:52.000Z</time></trkpt>
        <trkpt lat="28.834285" lon="105.314801"><ele>574.6553</ele><time>2026-04-29T17:46:56.000Z</time></trkpt>
        <trkpt lat="28.83423" lon="105.314811"><ele>575.77454</ele><time>2026-04-29T17:47:00.000Z</time></trkpt>
        <trkpt lat="28.834186" lon="105.314801"><ele>576.8028</ele><time>2026-04-29T17:47:03.000Z</time></trkpt>
        <trkpt lat="28.834129" lon="105.31479"><ele>578.103</ele><time>2026-04-29T17:47:07.000Z</time></trkpt>
        <trkpt lat="28.834103" lon="105.314835"><ele>579.94556</ele><time>2026-04-29T17:47:13.000Z</time></trkpt>
        <trkpt lat="28.834071" lon="105.314889"><ele>579.38025</ele><time>2026-04-29T17:47:19.000Z</time></trkpt>
        <trkpt lat="28.834034" lon="105.314929"><ele>579.02985</ele><time>2026-04-29T17:47:24.000Z</time></trkpt>
        <trkpt lat="28.833992" lon="105.314976"><ele>579.62665</ele><time>2026-04-29T17:47:28.000Z</time></trkpt>
        <trkpt lat="28.833965" lon="105.315019"><ele>579.881</ele><time>2026-04-29T17:47:31.000Z</time></trkpt>
        <trkpt lat="28.833921" lon="105.315064"><ele>578.96423</ele><time>2026-04-29T17:47:35.000Z</time></trkpt>
        <trkpt lat="28.833871" lon="105.315085"><ele>580.35815</ele><time>2026-04-29T17:47:38.000Z</time></trkpt>
        <trkpt lat="28.833823" lon="105.315097"><ele>579.42346</ele><time>2026-04-29T17:47:41.000Z</time></trkpt>
        <trkpt lat="28.833772" lon="105.315124"><ele>579.3304</ele><time>2026-04-29T17:47:44.000Z</time></trkpt>
        <trkpt lat="28.83372" lon="105.315131"><ele>579.16016</ele><time>2026-04-29T17:47:47.000Z</time></trkpt>
        <trkpt lat="28.833666" lon="105.315134"><ele>579.20404</ele><time>2026-04-29T17:47:51.000Z</time></trkpt>
        <trkpt lat="28.833612" lon="105.315154"><ele>579.43475</ele><time>2026-04-29T17:47:55.000Z</time></trkpt>
        <trkpt lat="28.833562" lon="105.315167"><ele>579.4945</ele><time>2026-04-29T17:47:58.000Z</time></trkpt>
        <trkpt lat="28.833512" lon="105.315175"><ele>578.5113</ele><time>2026-04-29T17:48:01.000Z</time></trkpt>
        <trkpt lat="28.833455" lon="105.315188"><ele>578.1411</ele><time>2026-04-29T17:48:04.000Z</time></trkpt>
        <trkpt lat="28.833395" lon="105.31521"><ele>577.95276</ele><time>2026-04-29T17:48:08.000Z</time></trkpt>
        <trkpt lat="28.833347" lon="105.31523"><ele>577.6185</ele><time>2026-04-29T17:48:10.000Z</time></trkpt>
        <trkpt lat="28.833308" lon="105.31526"><ele>577.8534</ele><time>2026-04-29T17:48:12.000Z</time></trkpt>
        <trkpt lat="28.833253" lon="105.31529"><ele>578.6427</ele><time>2026-04-29T17:48:15.000Z</time></trkpt>
        <trkpt lat="28.833204" lon="105.315309"><ele>577.6935</ele><time>2026-04-29T17:48:18.000Z</time></trkpt>
        <trkpt lat="28.833153" lon="105.315356"><ele>575.4796</ele><time>2026-04-29T17:48:21.000Z</time></trkpt>
        <trkpt lat="28.833111" lon="105.315402"><ele>574.153</ele><time>2026-04-29T17:48:24.000Z</time></trkpt>
        <trkpt lat="28.833062" lon="105.315422"><ele>571.24274</ele><time>2026-04-29T17:48:29.000Z</time></trkpt>
        <trkpt lat="28.833019" lon="105.315445"><ele>570.534</ele><time>2026-04-29T17:48:34.000Z</time></trkpt>
        <trkpt lat="28.832987" lon="105.315483"><ele>570.7915</ele><time>2026-04-29T17:48:37.000Z</time></trkpt>
        <trkpt lat="28.832988" lon="105.315535"><ele>572.2453</ele><time>2026-04-29T17:48:43.000Z</time></trkpt>
        <trkpt lat="28.832967" lon="105.315584"><ele>573.165</ele><time>2026-04-29T17:48:54.000Z</time></trkpt>
        <trkpt lat="28.832956" lon="105.315533"><ele>572.4031</ele><time>2026-04-29T17:51:41.000Z</time></trkpt>
        <trkpt lat="28.832914" lon="105.315503"><ele>568.1109</ele><time>2026-04-29T17:51:49.000Z</time></trkpt>
        <trkpt lat="28.832848" lon="105.315436"><ele>571.05975</ele><time>2026-04-29T17:51:58.000Z</time></trkpt>
        <trkpt lat="28.832778" lon="105.315353"><ele>575.2797</ele><time>2026-04-29T17:52:07.000Z</time></trkpt>
        <trkpt lat="28.832734" lon="105.315327"><ele>577.38385</ele><time>2026-04-29T17:52:11.000Z</time></trkpt>
        <trkpt lat="28.832682" lon="105.315329"><ele>578.6477</ele><time>2026-04-29T17:52:15.000Z</time></trkpt>
        <trkpt lat="28.832634" lon="105.315328"><ele>582.6467</ele><time>2026-04-29T17:52:21.000Z</time></trkpt>
        <trkpt lat="28.832594" lon="105.3153"><ele>585.53876</ele><time>2026-04-29T17:52:29.000Z</time></trkpt>
        <trkpt lat="28.832549" lon="105.315315"><ele>587.2263</ele><time>2026-04-29T17:52:37.000Z</time></trkpt>
        <trkpt lat="28.832498" lon="105.31531"><ele>587.51245</ele><time>2026-04-29T17:52:46.000Z</time></trkpt>
        <trkpt lat="28.832447" lon="105.315288"><ele>588.7379</ele><time>2026-04-29T17:52:52.000Z</time></trkpt>
        <trkpt lat="28.832402" lon="105.315269"><ele>590.02954</ele><time>2026-04-29T17:52:58.000Z</time></trkpt>
        <trkpt lat="28.832351" lon="105.315226"><ele>592.8297</ele><time>2026-04-29T17:53:07.000Z</time></trkpt>
        <trkpt lat="28.832296" lon="105.315198"><ele>593.3116</ele><time>2026-04-29T17:53:12.000Z</time></trkpt>
        <trkpt lat="28.832255" lon="105.315168"><ele>593.7976</ele><time>2026-04-29T17:53:15.000Z</time></trkpt>
        <trkpt lat="28.83221" lon="105.315142"><ele>595.9314</ele><time>2026-04-29T17:53:19.000Z</time></trkpt>
        <trkpt lat="28.832167" lon="105.315111"><ele>597.1973</ele><time>2026-04-29T17:53:23.000Z</time></trkpt>
        <trkpt lat="28.832117" lon="105.31509"><ele>597.8917</ele><time>2026-04-29T17:53:29.000Z</time></trkpt>
        <trkpt lat="28.832064" lon="105.31509"><ele>599.10394</ele><time>2026-04-29T17:53:34.000Z</time></trkpt>
        <trkpt lat="28.83201" lon="105.315092"><ele>598.86255</ele><time>2026-04-29T17:53:39.000Z</time></trkpt>
        <trkpt lat="28.831963" lon="105.315114"><ele>598.6367</ele><time>2026-04-29T17:53:43.000Z</time></trkpt>
        <trkpt lat="28.831924" lon="105.315152"><ele>598.52423</ele><time>2026-04-29T17:53:46.000Z</time></trkpt>
        <trkpt lat="28.831885" lon="105.315186"><ele>599.04596</ele><time>2026-04-29T17:53:49.000Z</time></trkpt>
        <trkpt lat="28.831855" lon="105.315233"><ele>598.5751</ele><time>2026-04-29T17:53:53.000Z</time></trkpt>
        <trkpt lat="28.831845" lon="105.315294"><ele>598.11993</ele><time>2026-04-29T17:53:58.000Z</time></trkpt>
        <trkpt lat="28.831829" lon="105.315354"><ele>597.9095</ele><time>2026-04-29T17:54:01.000Z</time></trkpt>
        <trkpt lat="28.831836" lon="105.315408"><ele>595.7778</ele><time>2026-04-29T17:54:05.000Z</time></trkpt>
        <trkpt lat="28.831852" lon="105.315479"><ele>595.55475</ele><time>2026-04-29T17:54:08.000Z</time></trkpt>
        <trkpt lat="28.831851" lon="105.315534"><ele>593.9279</ele><time>2026-04-29T17:54:12.000Z</time></trkpt>
        <trkpt lat="28.831848" lon="105.315594"><ele>594.78796</ele><time>2026-04-29T17:54:17.000Z</time></trkpt>
        <trkpt lat="28.831842" lon="105.315662"><ele>595.9183</ele><time>2026-04-29T17:54:20.000Z</time></trkpt>
        <trkpt lat="28.831813" lon="105.315716"><ele>590.1761</ele><time>2026-04-29T17:54:25.000Z</time></trkpt>
        <trkpt lat="28.831772" lon="105.315743"><ele>586.9016</ele><time>2026-04-29T17:54:29.000Z</time></trkpt>
        <trkpt lat="28.83173" lon="105.315775"><ele>586.17737</ele><time>2026-04-29T17:54:32.000Z</time></trkpt>
        <trkpt lat="28.831692" lon="105.315816"><ele>584.87994</ele><time>2026-04-29T17:54:35.000Z</time></trkpt>
        <trkpt lat="28.83166" lon="105.315854"><ele>582.9738</ele><time>2026-04-29T17:54:38.000Z</time></trkpt>
        <trkpt lat="28.831629" lon="105.315899"><ele>582.2473</ele><time>2026-04-29T17:54:41.000Z</time></trkpt>
        <trkpt lat="28.831587" lon="105.315925"><ele>580.9922</ele><time>2026-04-29T17:54:45.000Z</time></trkpt>
        <trkpt lat="28.831541" lon="105.315955"><ele>579.94934</ele><time>2026-04-29T17:54:50.000Z</time></trkpt>
        <trkpt lat="28.831491" lon="105.315989"><ele>579.09814</ele><time>2026-04-29T17:54:54.000Z</time></trkpt>
        <trkpt lat="28.831443" lon="105.316022"><ele>576.28296</ele><time>2026-04-29T17:55:03.000Z</time></trkpt>
        <trkpt lat="28.831396" lon="105.316047"><ele>575.8144</ele><time>2026-04-29T17:55:07.000Z</time></trkpt>
        <trkpt lat="28.831362" lon="105.316084"><ele>575.1759</ele><time>2026-04-29T17:55:10.000Z</time></trkpt>
        <trkpt lat="28.831327" lon="105.316118"><ele>573.23553</ele><time>2026-04-29T17:55:14.000Z</time></trkpt>
        <trkpt lat="28.831283" lon="105.316154"><ele>570.31226</ele><time>2026-04-29T17:55:19.000Z</time></trkpt>
        <trkpt lat="28.831237" lon="105.316175"><ele>568.1938</ele><time>2026-04-29T17:55:26.000Z</time></trkpt>
        <trkpt lat="28.831186" lon="105.3162"><ele>567.88525</ele><time>2026-04-29T17:55:36.000Z</time></trkpt>
        <trkpt lat="28.831136" lon="105.316223"><ele>566.38544</ele><time>2026-04-29T17:55:42.000Z</time></trkpt>
        <trkpt lat="28.831092" lon="105.316237"><ele>564.54694</ele><time>2026-04-29T17:55:46.000Z</time></trkpt>
        <trkpt lat="28.831049" lon="105.316208"><ele>563.8149</ele><time>2026-04-29T17:55:51.000Z</time></trkpt>
        <trkpt lat="28.831007" lon="105.316172"><ele>562.00214</ele><time>2026-04-29T17:55:56.000Z</time></trkpt>
        <trkpt lat="28.830962" lon="105.316189"><ele>560.81836</ele><time>2026-04-29T17:56:05.000Z</time></trkpt>
        <trkpt lat="28.830927" lon="105.316223"><ele>559.52277</ele><time>2026-04-29T17:56:11.000Z</time></trkpt>
        <trkpt lat="28.830878" lon="105.316218"><ele>557.6225</ele><time>2026-04-29T17:56:15.000Z</time></trkpt>
        <trkpt lat="28.830833" lon="105.31621"><ele>557.693</ele><time>2026-04-29T17:56:18.000Z</time></trkpt>
        <trkpt lat="28.830846" lon="105.316153"><ele>558.1639</ele><time>2026-04-29T17:56:21.000Z</time></trkpt>
        <trkpt lat="28.830863" lon="105.316098"><ele>561.3413</ele><time>2026-04-29T17:56:25.000Z</time></trkpt>
        <trkpt lat="28.830835" lon="105.316037"><ele>563.2501</ele><time>2026-04-29T17:56:28.000Z</time></trkpt>
        <trkpt lat="28.830816" lon="105.315968"><ele>564.6031</ele><time>2026-04-29T17:56:31.000Z</time></trkpt>
        <trkpt lat="28.830783" lon="105.315909"><ele>566.8151</ele><time>2026-04-29T17:56:34.000Z</time></trkpt>
        <trkpt lat="28.830739" lon="105.315891"><ele>567.99524</ele><time>2026-04-29T17:56:36.000Z</time></trkpt>
        <trkpt lat="28.830677" lon="105.315885"><ele>569.91394</ele><time>2026-04-29T17:56:39.000Z</time></trkpt>
        <trkpt lat="28.830631" lon="105.315906"><ele>571.2755</ele><time>2026-04-29T17:56:42.000Z</time></trkpt>
        <trkpt lat="28.830605" lon="105.31595"><ele>571.4235</ele><time>2026-04-29T17:56:45.000Z</time></trkpt>
        <trkpt lat="28.830605" lon="105.316012"><ele>572.53766</ele><time>2026-04-29T17:56:48.000Z</time></trkpt>
        <trkpt lat="28.830592" lon="105.316073"><ele>572.4508</ele><time>2026-04-29T17:56:54.000Z</time></trkpt>
        <trkpt lat="28.83056" lon="105.31612"><ele>573.40796</ele><time>2026-04-29T17:56:58.000Z</time></trkpt>
        <trkpt lat="28.830537" lon="105.31619"><ele>573.2709</ele><time>2026-04-29T17:57:02.000Z</time></trkpt>
        <trkpt lat="28.830515" lon="105.316246"><ele>572.9392</ele><time>2026-04-29T17:57:05.000Z</time></trkpt>
        <trkpt lat="28.830493" lon="105.316307"><ele>571.0451</ele><time>2026-04-29T17:57:10.000Z</time></trkpt>
        <trkpt lat="28.830457" lon="105.316345"><ele>570.40295</ele><time>2026-04-29T17:57:13.000Z</time></trkpt>
        <trkpt lat="28.830399" lon="105.316343"><ele>569.68976</ele><time>2026-04-29T17:57:16.000Z</time></trkpt>
        <trkpt lat="28.830337" lon="105.316369"><ele>568.3059</ele><time>2026-04-29T17:57:20.000Z</time></trkpt>
        <trkpt lat="28.830308" lon="105.316409"><ele>568.4169</ele><time>2026-04-29T17:57:22.000Z</time></trkpt>
        <trkpt lat="28.830257" lon="105.316459"><ele>567.6228</ele><time>2026-04-29T17:57:25.000Z</time></trkpt>
        <trkpt lat="28.830221" lon="105.316497"><ele>568.5502</ele><time>2026-04-29T17:57:27.000Z</time></trkpt>
        <trkpt lat="28.830169" lon="105.316536"><ele>568.94806</ele><time>2026-04-29T17:57:30.000Z</time></trkpt>
        <trkpt lat="28.830125" lon="105.316563"><ele>569.4475</ele><time>2026-04-29T17:57:32.000Z</time></trkpt>
        <trkpt lat="28.830082" lon="105.316593"><ele>569.85864</ele><time>2026-04-29T17:57:34.000Z</time></trkpt>
        <trkpt lat="28.83003" lon="105.316624"><ele>569.30664</ele><time>2026-04-29T17:57:36.000Z</time></trkpt>
        <trkpt lat="28.829963" lon="105.316637"><ele>571.144</ele><time>2026-04-29T17:57:39.000Z</time></trkpt>
        <trkpt lat="28.829908" lon="105.316642"><ele>570.208</ele><time>2026-04-29T17:57:42.000Z</time></trkpt>
        <trkpt lat="28.829863" lon="105.316618"><ele>569.75385</ele><time>2026-04-29T17:57:44.000Z</time></trkpt>
        <trkpt lat="28.829808" lon="105.316617"><ele>569.837</ele><time>2026-04-29T17:57:46.000Z</time></trkpt>
        <trkpt lat="28.829771" lon="105.316587"><ele>571.8791</ele><time>2026-04-29T17:57:49.000Z</time></trkpt>
        <trkpt lat="28.829769" lon="105.316528"><ele>574.38556</ele><time>2026-04-29T17:57:52.000Z</time></trkpt>
        <trkpt lat="28.829757" lon="105.316477"><ele>579.7169</ele><time>2026-04-29T17:57:58.000Z</time></trkpt>
        <trkpt lat="28.829705" lon="105.316462"><ele>583.4421</ele><time>2026-04-29T17:58:03.000Z</time></trkpt>
        <trkpt lat="28.829665" lon="105.316421"><ele>584.88605</ele><time>2026-04-29T17:58:06.000Z</time></trkpt>
        <trkpt lat="28.829627" lon="105.316385"><ele>588.4644</ele><time>2026-04-29T17:58:14.000Z</time></trkpt>
        <trkpt lat="28.829561" lon="105.316385"><ele>590.81396</ele><time>2026-04-29T17:58:20.000Z</time></trkpt>
        <trkpt lat="28.829514" lon="105.316396"><ele>591.8665</ele><time>2026-04-29T17:58:23.000Z</time></trkpt>
        <trkpt lat="28.829462" lon="105.31639"><ele>593.2729</ele><time>2026-04-29T17:58:26.000Z</time></trkpt>
        <trkpt lat="28.829433" lon="105.31643"><ele>593.80115</ele><time>2026-04-29T17:58:29.000Z</time></trkpt>
        <trkpt lat="28.829431" lon="105.316493"><ele>595.0712</ele><time>2026-04-29T17:58:32.000Z</time></trkpt>
        <trkpt lat="28.829412" lon="105.316541"><ele>594.66504</ele><time>2026-04-29T17:58:35.000Z</time></trkpt>
        <trkpt lat="28.829369" lon="105.316575"><ele>595.05817</ele><time>2026-04-29T17:58:39.000Z</time></trkpt>
        <trkpt lat="28.829315" lon="105.316572"><ele>595.09076</ele><time>2026-04-29T17:58:45.000Z</time></trkpt>
        <trkpt lat="28.829266" lon="105.316589"><ele>595.0905</ele><time>2026-04-29T17:58:50.000Z</time></trkpt>
        <trkpt lat="28.829219" lon="105.316613"><ele>595.8604</ele><time>2026-04-29T17:58:55.000Z</time></trkpt>
        <trkpt lat="28.829182" lon="105.316644"><ele>596.0756</ele><time>2026-04-29T17:58:59.000Z</time></trkpt>
        <trkpt lat="28.829153" lon="105.316684"><ele>597.12994</ele><time>2026-04-29T17:59:08.000Z</time></trkpt>
        <trkpt lat="28.829106" lon="105.316714"><ele>598.0647</ele><time>2026-04-29T17:59:13.000Z</time></trkpt>
        <trkpt lat="28.829059" lon="105.316712"><ele>597.94824</ele><time>2026-04-29T17:59:17.000Z</time></trkpt>
        <trkpt lat="28.829007" lon="105.316719"><ele>596.59515</ele><time>2026-04-29T17:59:21.000Z</time></trkpt>
        <trkpt lat="28.828959" lon="105.31673"><ele>596.10205</ele><time>2026-04-29T17:59:23.000Z</time></trkpt>
        <trkpt lat="28.828911" lon="105.316745"><ele>595.37054</ele><time>2026-04-29T17:59:26.000Z</time></trkpt>
        <trkpt lat="28.828865" lon="105.316743"><ele>595.09796</ele><time>2026-04-29T17:59:30.000Z</time></trkpt>
        <trkpt lat="28.828817" lon="105.316752"><ele>592.74554</ele><time>2026-04-29T17:59:37.000Z</time></trkpt>
        <trkpt lat="28.828779" lon="105.316794"><ele>590.95654</ele><time>2026-04-29T17:59:41.000Z</time></trkpt>
        <trkpt lat="28.828788" lon="105.316855"><ele>590.9097</ele><time>2026-04-29T17:59:44.000Z</time></trkpt>
        <trkpt lat="28.828786" lon="105.316907"><ele>591.4636</ele><time>2026-04-29T17:59:47.000Z</time></trkpt>
        <trkpt lat="28.828794" lon="105.316967"><ele>593.1712</ele><time>2026-04-29T17:59:52.000Z</time></trkpt>
        <trkpt lat="28.828822" lon="105.317027"><ele>594.4922</ele><time>2026-04-29T17:59:56.000Z</time></trkpt>
        <trkpt lat="28.828844" lon="105.317074"><ele>594.0493</ele><time>2026-04-29T17:59:59.000Z</time></trkpt>
        <trkpt lat="28.82887" lon="105.317118"><ele>594.4491</ele><time>2026-04-29T18:00:02.000Z</time></trkpt>
        <trkpt lat="28.828884" lon="105.317189"><ele>595.12103</ele><time>2026-04-29T18:00:05.000Z</time></trkpt>
        <trkpt lat="28.82888" lon="105.317245"><ele>596.3867</ele><time>2026-04-29T18:00:07.000Z</time></trkpt>
        <trkpt lat="28.828867" lon="105.31733"><ele>596.7274</ele><time>2026-04-29T18:00:10.000Z</time></trkpt>
        <trkpt lat="28.828854" lon="105.317383"><ele>597.49084</ele><time>2026-04-29T18:00:14.000Z</time></trkpt>
        <trkpt lat="28.828861" lon="105.317434"><ele>598.0037</ele><time>2026-04-29T18:00:17.000Z</time></trkpt>
        <trkpt lat="28.828876" lon="105.317486"><ele>598.04614</ele><time>2026-04-29T18:00:20.000Z</time></trkpt>
        <trkpt lat="28.828887" lon="105.317546"><ele>597.9716</ele><time>2026-04-29T18:00:22.000Z</time></trkpt>
        <trkpt lat="28.82892" lon="105.317599"><ele>598.14966</ele><time>2026-04-29T18:00:25.000Z</time></trkpt>
        <trkpt lat="28.828967" lon="105.317615"><ele>590.5757</ele><time>2026-04-29T18:00:28.000Z</time></trkpt>
        <trkpt lat="28.829006" lon="105.317648"><ele>585.83026</ele><time>2026-04-29T18:00:32.000Z</time></trkpt>
        <trkpt lat="28.829025" lon="105.317706"><ele>584.2848</ele><time>2026-04-29T18:00:38.000Z</time></trkpt>
        <trkpt lat="28.829026" lon="105.317759"><ele>584.4983</ele><time>2026-04-29T18:00:41.000Z</time></trkpt>
        <trkpt lat="28.829061" lon="105.317798"><ele>581.227</ele><time>2026-04-29T18:00:46.000Z</time></trkpt>
        <trkpt lat="28.829085" lon="105.317846"><ele>578.9383</ele><time>2026-04-29T18:00:52.000Z</time></trkpt>
        <trkpt lat="28.829103" lon="105.317895"><ele>573.41797</ele><time>2026-04-29T18:01:00.000Z</time></trkpt>
        <trkpt lat="28.829104" lon="105.317955"><ele>572.1804</ele><time>2026-04-29T18:01:11.000Z</time></trkpt>
        <trkpt lat="28.829109" lon="105.318013"><ele>571.3695</ele><time>2026-04-29T18:01:18.000Z</time></trkpt>
        <trkpt lat="28.829117" lon="105.318064"><ele>570.23914</ele><time>2026-04-29T18:01:24.000Z</time></trkpt>
        <trkpt lat="28.829123" lon="105.318117"><ele>568.11523</ele><time>2026-04-29T18:01:30.000Z</time></trkpt>
        <trkpt lat="28.829128" lon="105.318169"><ele>566.733</ele><time>2026-04-29T18:01:43.000Z</time></trkpt>
        <trkpt lat="28.829086" lon="105.318149"><ele>565.62103</ele><time>2026-04-29T18:02:47.000Z</time></trkpt>
        <trkpt lat="28.829096" lon="105.318099"><ele>574.49396</ele><time>2026-04-29T18:03:51.000Z</time></trkpt>
        <trkpt lat="28.829107" lon="105.318044"><ele>578.01514</ele><time>2026-04-29T18:04:01.000Z</time></trkpt>
        <trkpt lat="28.829109" lon="105.317991"><ele>578.29034</ele><time>2026-04-29T18:04:10.000Z</time></trkpt>
        <trkpt lat="28.829112" lon="105.31794"><ele>577.9603</ele><time>2026-04-29T18:04:19.000Z</time></trkpt>
        <trkpt lat="28.829105" lon="105.317886"><ele>576.8586</ele><time>2026-04-29T18:04:39.000Z</time></trkpt>
        <trkpt lat="28.82908" lon="105.31784"><ele>578.3597</ele><time>2026-04-29T18:04:50.000Z</time></trkpt>
        <trkpt lat="28.829057" lon="105.317795"><ele>580.09406</ele><time>2026-04-29T18:04:56.000Z</time></trkpt>
        <trkpt lat="28.829028" lon="105.317741"><ele>582.16174</ele><time>2026-04-29T18:05:02.000Z</time></trkpt>
        <trkpt lat="28.829006" lon="105.31769"><ele>588.3431</ele><time>2026-04-29T18:05:09.000Z</time></trkpt>
        <trkpt lat="28.828976" lon="105.317645"><ele>587.824</ele><time>2026-04-29T18:05:14.000Z</time></trkpt>
        <trkpt lat="28.828949" lon="105.317599"><ele>587.16394</ele><time>2026-04-29T18:05:21.000Z</time></trkpt>
        <trkpt lat="28.828918" lon="105.317561"><ele>583.23016</ele><time>2026-04-29T18:05:28.000Z</time></trkpt>
        <trkpt lat="28.828907" lon="105.317505"><ele>583.41833</ele><time>2026-04-29T18:05:33.000Z</time></trkpt>
        <trkpt lat="28.828885" lon="105.317448"><ele>583.5879</ele><time>2026-04-29T18:05:37.000Z</time></trkpt>
        <trkpt lat="28.828881" lon="105.317391"><ele>584.0814</ele><time>2026-04-29T18:05:40.000Z</time></trkpt>
        <trkpt lat="28.828875" lon="105.317323"><ele>583.0377</ele><time>2026-04-29T18:05:43.000Z</time></trkpt>
        <trkpt lat="28.828872" lon="105.317257"><ele>586.2585</ele><time>2026-04-29T18:05:45.000Z</time></trkpt>
        <trkpt lat="28.828847" lon="105.317188"><ele>592.6619</ele><time>2026-04-29T18:05:47.000Z</time></trkpt>
        <trkpt lat="28.828834" lon="105.317133"><ele>596.3067</ele><time>2026-04-29T18:05:49.000Z</time></trkpt>
        <trkpt lat="28.828813" lon="105.317087"><ele>596.886</ele><time>2026-04-29T18:05:50.000Z</time></trkpt>
        <trkpt lat="28.82878" lon="105.317043"><ele>597.17035</ele><time>2026-04-29T18:05:53.000Z</time></trkpt>
        <trkpt lat="28.828752" lon="105.316999"><ele>595.7785</ele><time>2026-04-29T18:05:56.000Z</time></trkpt>
        <trkpt lat="28.828754" lon="105.31693"><ele>594.0086</ele><time>2026-04-29T18:05:59.000Z</time></trkpt>
        <trkpt lat="28.828752" lon="105.31685"><ele>592.5039</ele><time>2026-04-29T18:06:02.000Z</time></trkpt>
        <trkpt lat="28.828761" lon="105.316779"><ele>591.79816</ele><time>2026-04-29T18:06:05.000Z</time></trkpt>
        <trkpt lat="28.828768" lon="105.316697"><ele>590.59155</ele><time>2026-04-29T18:06:08.000Z</time></trkpt>
        <trkpt lat="28.828774" lon="105.31663"><ele>588.865</ele><time>2026-04-29T18:06:11.000Z</time></trkpt>
        <trkpt lat="28.828785" lon="105.316571"><ele>591.09143</ele><time>2026-04-29T18:06:14.000Z</time></trkpt>
        <trkpt lat="28.828801" lon="105.316498"><ele>594.3534</ele><time>2026-04-29T18:06:18.000Z</time></trkpt>
        <trkpt lat="28.828821" lon="105.316434"><ele>594.0496</ele><time>2026-04-29T18:06:21.000Z</time></trkpt>
        <trkpt lat="28.828836" lon="105.316362"><ele>594.12665</ele><time>2026-04-29T18:06:24.000Z</time></trkpt>
        <trkpt lat="28.828835" lon="105.316298"><ele>594.9636</ele><time>2026-04-29T18:06:27.000Z</time></trkpt>
        <trkpt lat="28.828819" lon="105.316232"><ele>595.0386</ele><time>2026-04-29T18:06:30.000Z</time></trkpt>
        <trkpt lat="28.828789" lon="105.316171"><ele>594.2882</ele><time>2026-04-29T18:06:34.000Z</time></trkpt>
        <trkpt lat="28.828769" lon="105.316119"><ele>593.4538</ele><time>2026-04-29T18:06:36.000Z</time></trkpt>
        <trkpt lat="28.828754" lon="105.316069"><ele>593.1187</ele><time>2026-04-29T18:06:39.000Z</time></trkpt>
        <trkpt lat="28.828739" lon="105.315994"><ele>593.2929</ele><time>2026-04-29T18:06:42.000Z</time></trkpt>
        <trkpt lat="28.828731" lon="105.315916"><ele>593.6061</ele><time>2026-04-29T18:06:45.000Z</time></trkpt>
        <trkpt lat="28.828752" lon="105.315867"><ele>594.70825</ele><time>2026-04-29T18:06:47.000Z</time></trkpt>
        <trkpt lat="28.828786" lon="105.315814"><ele>595.85205</ele><time>2026-04-29T18:06:50.000Z</time></trkpt>
        <trkpt lat="28.828819" lon="105.315776"><ele>597.04926</ele><time>2026-04-29T18:06:52.000Z</time></trkpt>
        <trkpt lat="28.828839" lon="105.315722"><ele>597.93945</ele><time>2026-04-29T18:06:55.000Z</time></trkpt>
        <trkpt lat="28.828859" lon="105.315672"><ele>598.9328</ele><time>2026-04-29T18:06:57.000Z</time></trkpt>
        <trkpt lat="28.828869" lon="105.315608"><ele>598.98083</ele><time>2026-04-29T18:07:00.000Z</time></trkpt>
        <trkpt lat="28.828896" lon="105.315555"><ele>599.82355</ele><time>2026-04-29T18:07:02.000Z</time></trkpt>
        <trkpt lat="28.828927" lon="105.315506"><ele>601.79865</ele><time>2026-04-29T18:07:04.000Z</time></trkpt>
        <trkpt lat="28.828982" lon="105.315462"><ele>602.92303</ele><time>2026-04-29T18:07:06.000Z</time></trkpt>
        <trkpt lat="28.829015" lon="105.315419"><ele>603.76843</ele><time>2026-04-29T18:07:08.000Z</time></trkpt>
        <trkpt lat="28.829011" lon="105.315354"><ele>604.06665</ele><time>2026-04-29T18:07:10.000Z</time></trkpt>
        <trkpt lat="28.828997" lon="105.315284"><ele>604.93134</ele><time>2026-04-29T18:07:12.000Z</time></trkpt>
        <trkpt lat="28.828994" lon="105.315205"><ele>606.19617</ele><time>2026-04-29T18:07:14.000Z</time></trkpt>
        <trkpt lat="28.828965" lon="105.315145"><ele>607.9481</ele><time>2026-04-29T18:07:16.000Z</time></trkpt>
        <trkpt lat="28.828928" lon="105.315091"><ele>610.15796</ele><time>2026-04-29T18:07:18.000Z</time></trkpt>
        <trkpt lat="28.828901" lon="105.315035"><ele>612.0072</ele><time>2026-04-29T18:07:21.000Z</time></trkpt>
        <trkpt lat="28.828899" lon="105.314965"><ele>613.1583</ele><time>2026-04-29T18:07:23.000Z</time></trkpt>
        <trkpt lat="28.828931" lon="105.314905"><ele>612.878</ele><time>2026-04-29T18:07:25.000Z</time></trkpt>
        <trkpt lat="28.828988" lon="105.314858"><ele>614.3145</ele><time>2026-04-29T18:07:28.000Z</time></trkpt>
        <trkpt lat="28.829035" lon="105.314845"><ele>612.9035</ele><time>2026-04-29T18:07:31.000Z</time></trkpt>
        <trkpt lat="28.829081" lon="105.314829"><ele>613.25085</ele><time>2026-04-29T18:07:33.000Z</time></trkpt>
        <trkpt lat="28.829064" lon="105.314769"><ele>612.56036</ele><time>2026-04-29T18:07:35.000Z</time></trkpt>
        <trkpt lat="28.829058" lon="105.31471"><ele>611.3271</ele><time>2026-04-29T18:07:38.000Z</time></trkpt>
        <trkpt lat="28.829069" lon="105.31463"><ele>609.9367</ele><time>2026-04-29T18:07:41.000Z</time></trkpt>
        <trkpt lat="28.829045" lon="105.31457"><ele>610.17993</ele><time>2026-04-29T18:07:43.000Z</time></trkpt>
        <trkpt lat="28.828986" lon="105.314515"><ele>610.5078</ele><time>2026-04-29T18:07:45.000Z</time></trkpt>
        <trkpt lat="28.828971" lon="105.314452"><ele>612.4714</ele><time>2026-04-29T18:07:47.000Z</time></trkpt>
        <trkpt lat="28.828981" lon="105.31439"><ele>613.6211</ele><time>2026-04-29T18:07:49.000Z</time></trkpt>
        <trkpt lat="28.828961" lon="105.314343"><ele>614.0962</ele><time>2026-04-29T18:07:51.000Z</time></trkpt>
        <trkpt lat="28.828932" lon="105.314285"><ele>614.85187</ele><time>2026-04-29T18:07:53.000Z</time></trkpt>
        <trkpt lat="28.82891" lon="105.314223"><ele>615.2656</ele><time>2026-04-29T18:07:55.000Z</time></trkpt>
        <trkpt lat="28.828911" lon="105.314169"><ele>615.17505</ele><time>2026-04-29T18:07:57.000Z</time></trkpt>
        <trkpt lat="28.828918" lon="105.314102"><ele>615.1643</ele><time>2026-04-29T18:08:00.000Z</time></trkpt>
        <trkpt lat="28.828948" lon="105.314047"><ele>616.28375</ele><time>2026-04-29T18:08:02.000Z</time></trkpt>
        <trkpt lat="28.828998" lon="105.314016"><ele>615.7314</ele><time>2026-04-29T18:08:04.000Z</time></trkpt>
        <trkpt lat="28.829057" lon="105.313981"><ele>616.3422</ele><time>2026-04-29T18:08:06.000Z</time></trkpt>
        <trkpt lat="28.829111" lon="105.31396"><ele>616.7124</ele><time>2026-04-29T18:08:08.000Z</time></trkpt>
        <trkpt lat="28.829161" lon="105.313942"><ele>616.85004</ele><time>2026-04-29T18:08:10.000Z</time></trkpt>
        <trkpt lat="28.829195" lon="105.313907"><ele>615.80286</ele><time>2026-04-29T18:08:12.000Z</time></trkpt>
        <trkpt lat="28.829218" lon="105.313841"><ele>616.0906</ele><time>2026-04-29T18:08:15.000Z</time></trkpt>
        <trkpt lat="28.829245" lon="105.313798"><ele>615.9139</ele><time>2026-04-29T18:08:17.000Z</time></trkpt>
        <trkpt lat="28.829267" lon="105.313742"><ele>617.2209</ele><time>2026-04-29T18:08:19.000Z</time></trkpt>
        <trkpt lat="28.829288" lon="105.313685"><ele>618.6156</ele><time>2026-04-29T18:08:23.000Z</time></trkpt>
        <trkpt lat="28.829324" lon="105.313653"><ele>618.63605</ele><time>2026-04-29T18:08:27.000Z</time></trkpt>
        <trkpt lat="28.829338" lon="105.313601"><ele>620.5285</ele><time>2026-04-29T18:08:32.000Z</time></trkpt>
        <trkpt lat="28.829376" lon="105.313554"><ele>620.11</ele><time>2026-04-29T18:08:36.000Z</time></trkpt>
        <trkpt lat="28.829396" lon="105.313503"><ele>620.40765</ele><time>2026-04-29T18:08:40.000Z</time></trkpt>
        <trkpt lat="28.829434" lon="105.313472"><ele>621.5626</ele><time>2026-04-29T18:08:46.000Z</time></trkpt>
        <trkpt lat="28.829465" lon="105.31342"><ele>620.3449</ele><time>2026-04-29T18:08:51.000Z</time></trkpt>
        <trkpt lat="28.829468" lon="105.313358"><ele>619.5718</ele><time>2026-04-29T18:08:56.000Z</time></trkpt>
        <trkpt lat="28.829426" lon="105.313335"><ele>618.2712</ele><time>2026-04-29T18:09:03.000Z</time></trkpt>
        <trkpt lat="28.829381" lon="105.3133"><ele>619.25336</ele><time>2026-04-29T18:09:08.000Z</time></trkpt>
        <trkpt lat="28.829358" lon="105.31325"><ele>619.6997</ele><time>2026-04-29T18:09:13.000Z</time></trkpt>
        <trkpt lat="28.829333" lon="105.313196"><ele>620.8526</ele><time>2026-04-29T18:09:19.000Z</time></trkpt>
        <trkpt lat="28.829308" lon="105.313146"><ele>622.10065</ele><time>2026-04-29T18:09:25.000Z</time></trkpt>
        <trkpt lat="28.829292" lon="105.313092"><ele>623.2586</ele><time>2026-04-29T18:09:30.000Z</time></trkpt>
        <trkpt lat="28.829259" lon="105.313053"><ele>624.23474</ele><time>2026-04-29T18:09:35.000Z</time></trkpt>
        <trkpt lat="28.829227" lon="105.313005"><ele>625.3326</ele><time>2026-04-29T18:09:40.000Z</time></trkpt>
        <trkpt lat="28.829184" lon="105.312969"><ele>625.4623</ele><time>2026-04-29T18:09:45.000Z</time></trkpt>
        <trkpt lat="28.829158" lon="105.312923"><ele>625.77496</ele><time>2026-04-29T18:09:50.000Z</time></trkpt>
        <trkpt lat="28.829134" lon="105.312863"><ele>625.7363</ele><time>2026-04-29T18:09:55.000Z</time></trkpt>
        <trkpt lat="28.829097" lon="105.312828"><ele>625.62524</ele><time>2026-04-29T18:09:59.000Z</time></trkpt>
        <trkpt lat="28.82906" lon="105.312791"><ele>624.90533</ele><time>2026-04-29T18:10:03.000Z</time></trkpt>
        <trkpt lat="28.829031" lon="105.312741"><ele>624.4108</ele><time>2026-04-29T18:10:07.000Z</time></trkpt>
        <trkpt lat="28.829001" lon="105.312687"><ele>624.9265</ele><time>2026-04-29T18:10:11.000Z</time></trkpt>
        <trkpt lat="28.828972" lon="105.312643"><ele>626.0926</ele><time>2026-04-29T18:10:15.000Z</time></trkpt>
        <trkpt lat="28.828925" lon="105.312629"><ele>626.7645</ele><time>2026-04-29T18:10:21.000Z</time></trkpt>
        <trkpt lat="28.828877" lon="105.312641"><ele>625.93195</ele><time>2026-04-29T18:10:26.000Z</time></trkpt>
        <trkpt lat="28.828825" lon="105.312652"><ele>627.09454</ele><time>2026-04-29T18:10:31.000Z</time></trkpt>
        <trkpt lat="28.828784" lon="105.312679"><ele>626.79456</ele><time>2026-04-29T18:10:36.000Z</time></trkpt>
        <trkpt lat="28.828749" lon="105.312719"><ele>626.9743</ele><time>2026-04-29T18:10:40.000Z</time></trkpt>
        <trkpt lat="28.828711" lon="105.312763"><ele>628.5114</ele><time>2026-04-29T18:10:47.000Z</time></trkpt>
        <trkpt lat="28.828668" lon="105.312796"><ele>628.4864</ele><time>2026-04-29T18:10:51.000Z</time></trkpt>
        <trkpt lat="28.828626" lon="105.312851"><ele>628.72644</ele><time>2026-04-29T18:10:55.000Z</time></trkpt>
        <trkpt lat="28.828595" lon="105.312904"><ele>629.8537</ele><time>2026-04-29T18:10:59.000Z</time></trkpt>
        <trkpt lat="28.828553" lon="105.312935"><ele>630.05316</ele><time>2026-04-29T18:11:03.000Z</time></trkpt>
        <trkpt lat="28.828502" lon="105.312927"><ele>629.485</ele><time>2026-04-29T18:11:07.000Z</time></trkpt>
        <trkpt lat="28.828452" lon="105.312923"><ele>628.6144</ele><time>2026-04-29T18:11:11.000Z</time></trkpt>
        <trkpt lat="28.828402" lon="105.312945"><ele>628.768</ele><time>2026-04-29T18:11:16.000Z</time></trkpt>
        <trkpt lat="28.828343" lon="105.312965"><ele>628.9935</ele><time>2026-04-29T18:11:20.000Z</time></trkpt>
        <trkpt lat="28.828301" lon="105.312988"><ele>628.6955</ele><time>2026-04-29T18:11:24.000Z</time></trkpt>
        <trkpt lat="28.828254" lon="105.313024"><ele>628.9718</ele><time>2026-04-29T18:11:28.000Z</time></trkpt>
        <trkpt lat="28.828203" lon="105.313046"><ele>628.5856</ele><time>2026-04-29T18:11:32.000Z</time></trkpt>
        <trkpt lat="28.828157" lon="105.31303"><ele>628.84344</ele><time>2026-04-29T18:11:36.000Z</time></trkpt>
        <trkpt lat="28.828107" lon="105.31301"><ele>628.488</ele><time>2026-04-29T18:11:40.000Z</time></trkpt>
        <trkpt lat="28.82805" lon="105.312995"><ele>627.9209</ele><time>2026-04-29T18:11:44.000Z</time></trkpt>
        <trkpt lat="28.82801" lon="105.312971"><ele>627.577</ele><time>2026-04-29T18:11:48.000Z</time></trkpt>
        <trkpt lat="28.827962" lon="105.312978"><ele>627.4288</ele><time>2026-04-29T18:11:53.000Z</time></trkpt>
        <trkpt lat="28.827915" lon="105.312966"><ele>628.14343</ele><time>2026-04-29T18:11:57.000Z</time></trkpt>
        <trkpt lat="28.827867" lon="105.312975"><ele>628.64667</ele><time>2026-04-29T18:12:01.000Z</time></trkpt>
        <trkpt lat="28.827807" lon="105.312992"><ele>628.6434</ele><time>2026-04-29T18:12:06.000Z</time></trkpt>
        <trkpt lat="28.827759" lon="105.313003"><ele>628.9945</ele><time>2026-04-29T18:12:09.000Z</time></trkpt>
        <trkpt lat="28.827711" lon="105.313036"><ele>630.7549</ele><time>2026-04-29T18:12:13.000Z</time></trkpt>
        <trkpt lat="28.827687" lon="105.313082"><ele>629.67554</ele><time>2026-04-29T18:12:17.000Z</time></trkpt>
        <trkpt lat="28.82765" lon="105.31313"><ele>628.2065</ele><time>2026-04-29T18:12:22.000Z</time></trkpt>
        <trkpt lat="28.827624" lon="105.313173"><ele>627.7143</ele><time>2026-04-29T18:12:26.000Z</time></trkpt>
        <trkpt lat="28.827596" lon="105.313219"><ele>628.0463</ele><time>2026-04-29T18:12:30.000Z</time></trkpt>
        <trkpt lat="28.827564" lon="105.313257"><ele>626.7191</ele><time>2026-04-29T18:12:34.000Z</time></trkpt>
        <trkpt lat="28.82754" lon="105.313312"><ele>626.8239</ele><time>2026-04-29T18:12:38.000Z</time></trkpt>
        <trkpt lat="28.827534" lon="105.313364"><ele>626.0388</ele><time>2026-04-29T18:12:43.000Z</time></trkpt>
        <trkpt lat="28.827516" lon="105.313421"><ele>625.4551</ele><time>2026-04-29T18:12:48.000Z</time></trkpt>
        <trkpt lat="28.827518" lon="105.313482"><ele>623.5209</ele><time>2026-04-29T18:12:53.000Z</time></trkpt>
        <trkpt lat="28.827509" lon="105.313543"><ele>623.4995</ele><time>2026-04-29T18:12:59.000Z</time></trkpt>
        <trkpt lat="28.827506" lon="105.313606"><ele>624.48376</ele><time>2026-04-29T18:13:04.000Z</time></trkpt>
        <trkpt lat="28.827489" lon="105.313657"><ele>624.0715</ele><time>2026-04-29T18:13:08.000Z</time></trkpt>
        <trkpt lat="28.827474" lon="105.313708"><ele>623.8816</ele><time>2026-04-29T18:13:12.000Z</time></trkpt>
        <trkpt lat="28.827427" lon="105.313736"><ele>623.0124</ele><time>2026-04-29T18:13:17.000Z</time></trkpt>
        <trkpt lat="28.827389" lon="105.313769"><ele>621.32025</ele><time>2026-04-29T18:13:23.000Z</time></trkpt>
        <trkpt lat="28.827355" lon="105.313806"><ele>621.10425</ele><time>2026-04-29T18:13:30.000Z</time></trkpt>
        <trkpt lat="28.827321" lon="105.313845"><ele>620.5068</ele><time>2026-04-29T18:13:37.000Z</time></trkpt>
        <trkpt lat="28.827295" lon="105.313887"><ele>618.7521</ele><time>2026-04-29T18:13:44.000Z</time></trkpt>
        <trkpt lat="28.827261" lon="105.313928"><ele>616.7255</ele><time>2026-04-29T18:14:06.000Z</time></trkpt>
        <trkpt lat="28.827218" lon="105.313962"><ele>614.435</ele><time>2026-04-29T18:14:12.000Z</time></trkpt>
        <trkpt lat="28.827181" lon="105.313994"><ele>612.659</ele><time>2026-04-29T18:14:17.000Z</time></trkpt>
        <trkpt lat="28.827141" lon="105.314027"><ele>611.0011</ele><time>2026-04-29T18:14:21.000Z</time></trkpt>
        <trkpt lat="28.82709" lon="105.31402"><ele>610.7255</ele><time>2026-04-29T18:14:24.000Z</time></trkpt>
        <trkpt lat="28.827063" lon="105.313978"><ele>609.4454</ele><time>2026-04-29T18:14:27.000Z</time></trkpt>
        <trkpt lat="28.827018" lon="105.313948"><ele>607.54364</ele><time>2026-04-29T18:14:31.000Z</time></trkpt>
        <trkpt lat="28.826981" lon="105.313918"><ele>607.2004</ele><time>2026-04-29T18:14:35.000Z</time></trkpt>
        <trkpt lat="28.826939" lon="105.313895"><ele>606.2093</ele><time>2026-04-29T18:14:48.000Z</time></trkpt>
        <trkpt lat="28.82689" lon="105.313866"><ele>602.1746</ele><time>2026-04-29T18:14:57.000Z</time></trkpt>
        <trkpt lat="28.826847" lon="105.313838"><ele>601.4138</ele><time>2026-04-29T18:15:01.000Z</time></trkpt>
        <trkpt lat="28.826812" lon="105.313784"><ele>600.5754</ele><time>2026-04-29T18:15:05.000Z</time></trkpt>
        <trkpt lat="28.826773" lon="105.31374"><ele>600.9705</ele><time>2026-04-29T18:15:08.000Z</time></trkpt>
        <trkpt lat="28.826727" lon="105.313784"><ele>597.2765</ele><time>2026-04-29T18:15:15.000Z</time></trkpt>
        <trkpt lat="28.826683" lon="105.313813"><ele>596.41473</ele><time>2026-04-29T18:15:21.000Z</time></trkpt>
        <trkpt lat="28.826635" lon="105.313834"><ele>593.4278</ele><time>2026-04-29T18:15:27.000Z</time></trkpt>
        <trkpt lat="28.826591" lon="105.313848"><ele>592.2179</ele><time>2026-04-29T18:15:40.000Z</time></trkpt>
        <trkpt lat="28.826544" lon="105.313844"><ele>587.60895</ele><time>2026-04-29T18:15:48.000Z</time></trkpt>
        <trkpt lat="28.826502" lon="105.313871"><ele>582.427</ele><time>2026-04-29T18:15:55.000Z</time></trkpt>
        <trkpt lat="28.82648" lon="105.313926"><ele>579.6317</ele><time>2026-04-29T18:16:02.000Z</time></trkpt>
        <trkpt lat="28.826469" lon="105.313992"><ele>578.06824</ele><time>2026-04-29T18:16:08.000Z</time></trkpt>
        <trkpt lat="28.826474" lon="105.314052"><ele>576.91315</ele><time>2026-04-29T18:16:11.000Z</time></trkpt>
        <trkpt lat="28.826462" lon="105.314115"><ele>575.73267</ele><time>2026-04-29T18:16:15.000Z</time></trkpt>
        <trkpt lat="28.826492" lon="105.314166"><ele>577.7207</ele><time>2026-04-29T18:16:21.000Z</time></trkpt>
        <trkpt lat="28.826509" lon="105.314219"><ele>572.10345</ele><time>2026-04-29T18:16:37.000Z</time></trkpt>
        <trkpt lat="28.826463" lon="105.314211"><ele>569.0796</ele><time>2026-04-29T18:16:46.000Z</time></trkpt>
        <trkpt lat="28.826418" lon="105.314196"><ele>568.3573</ele><time>2026-04-29T18:16:51.000Z</time></trkpt>
        <trkpt lat="28.826386" lon="105.314158"><ele>565.52386</ele><time>2026-04-29T18:16:57.000Z</time></trkpt>
        <trkpt lat="28.826376" lon="105.314103"><ele>564.7044</ele><time>2026-04-29T18:17:01.000Z</time></trkpt>
        <trkpt lat="28.826358" lon="105.314053"><ele>565.4525</ele><time>2026-04-29T18:17:04.000Z</time></trkpt>
        <trkpt lat="28.826314" lon="105.314029"><ele>565.6152</ele><time>2026-04-29T18:17:08.000Z</time></trkpt>
        <trkpt lat="28.826276" lon="105.313985"><ele>564.0878</ele><time>2026-04-29T18:17:13.000Z</time></trkpt>
        <trkpt lat="28.826218" lon="105.313952"><ele>564.3252</ele><time>2026-04-29T18:17:18.000Z</time></trkpt>
        <trkpt lat="28.826183" lon="105.314006"><ele>561.592</ele><time>2026-04-29T18:17:23.000Z</time></trkpt>
        <trkpt lat="28.826206" lon="105.314067"><ele>562.42487</ele><time>2026-04-29T18:17:26.000Z</time></trkpt>
        <trkpt lat="28.826229" lon="105.314136"><ele>562.6296</ele><time>2026-04-29T18:17:29.000Z</time></trkpt>
        <trkpt lat="28.826247" lon="105.314205"><ele>562.155</ele><time>2026-04-29T18:17:32.000Z</time></trkpt>
        <trkpt lat="28.826226" lon="105.314253"><ele>555.6698</ele><time>2026-04-29T18:17:52.000Z</time></trkpt>
        <trkpt lat="28.826209" lon="105.314308"><ele>549.9288</ele><time>2026-04-29T18:17:59.000Z</time></trkpt>
        <trkpt lat="28.826215" lon="105.314362"><ele>547.00964</ele><time>2026-04-29T18:18:05.000Z</time></trkpt>
        <trkpt lat="28.826186" lon="105.314407"><ele>544.0346</ele><time>2026-04-29T18:18:12.000Z</time></trkpt>
        <trkpt lat="28.826174" lon="105.314462"><ele>542.17474</ele><time>2026-04-29T18:18:18.000Z</time></trkpt>
        <trkpt lat="28.826192" lon="105.314517"><ele>542.3548</ele><time>2026-04-29T18:18:22.000Z</time></trkpt>
        <trkpt lat="28.826206" lon="105.314572"><ele>542.43256</ele><time>2026-04-29T18:18:26.000Z</time></trkpt>
        <trkpt lat="28.826223" lon="105.314622"><ele>540.8286</ele><time>2026-04-29T18:18:32.000Z</time></trkpt>
        <trkpt lat="28.826187" lon="105.314665"><ele>539.14307</ele><time>2026-04-29T18:18:39.000Z</time></trkpt>
        <trkpt lat="28.826173" lon="105.31472"><ele>537.2084</ele><time>2026-04-29T18:18:43.000Z</time></trkpt>
        <trkpt lat="28.826147" lon="105.31477"><ele>535.6813</ele><time>2026-04-29T18:18:48.000Z</time></trkpt>
        <trkpt lat="28.826127" lon="105.314817"><ele>534.08276</ele><time>2026-04-29T18:18:52.000Z</time></trkpt>
        <trkpt lat="28.82611" lon="105.314871"><ele>531.9709</ele><time>2026-04-29T18:19:00.000Z</time></trkpt>
        <trkpt lat="28.826087" lon="105.314916"><ele>530.8035</ele><time>2026-04-29T18:19:04.000Z</time></trkpt>
        <trkpt lat="28.826045" lon="105.314953"><ele>529.2199</ele><time>2026-04-29T18:19:11.000Z</time></trkpt>
        <trkpt lat="28.826018" lon="105.315001"><ele>524.7262</ele><time>2026-04-29T18:19:17.000Z</time></trkpt>
        <trkpt lat="28.825977" lon="105.315057"><ele>522.65204</ele><time>2026-04-29T18:19:21.000Z</time></trkpt>
        <trkpt lat="28.825956" lon="105.315106"><ele>522.4762</ele><time>2026-04-29T18:19:25.000Z</time></trkpt>
        <trkpt lat="28.825952" lon="105.315158"><ele>521.84314</ele><time>2026-04-29T18:19:30.000Z</time></trkpt>
        <trkpt lat="28.825907" lon="105.315195"><ele>519.66394</ele><time>2026-04-29T18:19:36.000Z</time></trkpt>
        <trkpt lat="28.825895" lon="105.315245"><ele>517.56305</ele><time>2026-04-29T18:19:42.000Z</time></trkpt>
        <trkpt lat="28.825906" lon="105.315307"><ele>514.0532</ele><time>2026-04-29T18:19:50.000Z</time></trkpt>
        <trkpt lat="28.825915" lon="105.315369"><ele>514.3202</ele><time>2026-04-29T18:19:55.000Z</time></trkpt>
        <trkpt lat="28.825954" lon="105.315418"><ele>514.2163</ele><time>2026-04-29T18:19:58.000Z</time></trkpt>
        <trkpt lat="28.825988" lon="105.315452"><ele>515.41956</ele><time>2026-04-29T18:20:02.000Z</time></trkpt>
        <trkpt lat="28.826005" lon="105.31551"><ele>515.35474</ele><time>2026-04-29T18:20:07.000Z</time></trkpt>
        <trkpt lat="28.826049" lon="105.315532"><ele>515.6704</ele><time>2026-04-29T18:20:11.000Z</time></trkpt>
        <trkpt lat="28.826084" lon="105.315573"><ele>516.65594</ele><time>2026-04-29T18:20:15.000Z</time></trkpt>
        <trkpt lat="28.826095" lon="105.315633"><ele>517.51447</ele><time>2026-04-29T18:20:21.000Z</time></trkpt>
        <trkpt lat="28.826117" lon="105.315687"><ele>516.335</ele><time>2026-04-29T18:20:27.000Z</time></trkpt>
        <trkpt lat="28.826155" lon="105.315722"><ele>514.6599</ele><time>2026-04-29T18:20:32.000Z</time></trkpt>
        <trkpt lat="28.826175" lon="105.315784"><ele>512.5111</ele><time>2026-04-29T18:20:39.000Z</time></trkpt>
        <trkpt lat="28.826175" lon="105.31584"><ele>511.9207</ele><time>2026-04-29T18:20:44.000Z</time></trkpt>
        <trkpt lat="28.826165" lon="105.315906"><ele>509.00928</ele><time>2026-04-29T18:20:53.000Z</time></trkpt>
        <trkpt lat="28.826169" lon="105.315966"><ele>508.12164</ele><time>2026-04-29T18:20:57.000Z</time></trkpt>
        <trkpt lat="28.826193" lon="105.316014"><ele>505.71545</ele><time>2026-04-29T18:21:05.000Z</time></trkpt>
        <trkpt lat="28.826182" lon="105.316066"><ele>503.96152</ele><time>2026-04-29T18:21:10.000Z</time></trkpt>
        <trkpt lat="28.826163" lon="105.316113"><ele>499.49976</ele><time>2026-04-29T18:21:17.000Z</time></trkpt>
        <trkpt lat="28.826135" lon="105.316163"><ele>495.86273</ele><time>2026-04-29T18:21:24.000Z</time></trkpt>
        <trkpt lat="28.826089" lon="105.316186"><ele>492.03995</ele><time>2026-04-29T18:21:31.000Z</time></trkpt>
        <trkpt lat="28.826048" lon="105.316219"><ele>490.16327</ele><time>2026-04-29T18:21:37.000Z</time></trkpt>
        <trkpt lat="28.82601" lon="105.31625"><ele>489.99902</ele><time>2026-04-29T18:21:43.000Z</time></trkpt>
        <trkpt lat="28.825999" lon="105.316311"><ele>485.29553</ele><time>2026-04-29T18:21:51.000Z</time></trkpt>
        <trkpt lat="28.825997" lon="105.316369"><ele>481.63388</ele><time>2026-04-29T18:21:56.000Z</time></trkpt>
        <trkpt lat="28.825972" lon="105.316417"><ele>480.7303</ele><time>2026-04-29T18:21:59.000Z</time></trkpt>
        <trkpt lat="28.825949" lon="105.316464"><ele>477.63574</ele><time>2026-04-29T18:22:05.000Z</time></trkpt>
        <trkpt lat="28.825912" lon="105.316499"><ele>474.33603</ele><time>2026-04-29T18:22:12.000Z</time></trkpt>
        <trkpt lat="28.825868" lon="105.316535"><ele>473.3806</ele><time>2026-04-29T18:22:17.000Z</time></trkpt>
        <trkpt lat="28.825814" lon="105.316501"><ele>472.39642</ele><time>2026-04-29T18:22:28.000Z</time></trkpt>
        <trkpt lat="28.825767" lon="105.316491"><ele>472.37436</ele><time>2026-04-29T18:22:32.000Z</time></trkpt>
        <trkpt lat="28.825716" lon="105.316475"><ele>471.72995</ele><time>2026-04-29T18:22:39.000Z</time></trkpt>
        <trkpt lat="28.825652" lon="105.316471"><ele>470.65524</ele><time>2026-04-29T18:22:45.000Z</time></trkpt>
        <trkpt lat="28.825623" lon="105.316527"><ele>470.19708</ele><time>2026-04-29T18:22:51.000Z</time></trkpt>
        <trkpt lat="28.825582" lon="105.316558"><ele>470.2622</ele><time>2026-04-29T18:22:55.000Z</time></trkpt>
        <trkpt lat="28.825547" lon="105.316592"><ele>469.36368</ele><time>2026-04-29T18:23:00.000Z</time></trkpt>
        <trkpt lat="28.825502" lon="105.316624"><ele>469.0601</ele><time>2026-04-29T18:23:04.000Z</time></trkpt>
        <trkpt lat="28.82548" lon="105.316677"><ele>469.05716</ele><time>2026-04-29T18:23:09.000Z</time></trkpt>
        <trkpt lat="28.82546" lon="105.316724"><ele>468.6216</ele><time>2026-04-29T18:23:12.000Z</time></trkpt>
        <trkpt lat="28.825442" lon="105.316778"><ele>468.56686</ele><time>2026-04-29T18:23:16.000Z</time></trkpt>
        <trkpt lat="28.825407" lon="105.316822"><ele>467.89102</ele><time>2026-04-29T18:23:20.000Z</time></trkpt>
        <trkpt lat="28.825373" lon="105.316865"><ele>466.56958</ele><time>2026-04-29T18:23:26.000Z</time></trkpt>
        <trkpt lat="28.825358" lon="105.316923"><ele>465.773</ele><time>2026-04-29T18:23:30.000Z</time></trkpt>
        <trkpt lat="28.825334" lon="105.316969"><ele>465.1996</ele><time>2026-04-29T18:23:35.000Z</time></trkpt>
        <trkpt lat="28.825325" lon="105.317041"><ele>464.40375</ele><time>2026-04-29T18:23:41.000Z</time></trkpt>
        <trkpt lat="28.825307" lon="105.317098"><ele>462.1095</ele><time>2026-04-29T18:23:46.000Z</time></trkpt>
        <trkpt lat="28.825311" lon="105.317155"><ele>462.3289</ele><time>2026-04-29T18:23:51.000Z</time></trkpt>
        <trkpt lat="28.825313" lon="105.31721"><ele>460.55182</ele><time>2026-04-29T18:23:58.000Z</time></trkpt>
        <trkpt lat="28.825305" lon="105.317268"><ele>459.94296</ele><time>2026-04-29T18:24:04.000Z</time></trkpt>
        <trkpt lat="28.825264" lon="105.317296"><ele>460.60034</ele><time>2026-04-29T18:24:13.000Z</time></trkpt>
        <trkpt lat="28.825226" lon="105.317258"><ele>456.96576</ele><time>2026-04-29T18:24:20.000Z</time></trkpt>
        <trkpt lat="28.825193" lon="105.317222"><ele>454.7167</ele><time>2026-04-29T18:24:26.000Z</time></trkpt>
        <trkpt lat="28.825176" lon="105.317284"><ele>450.36484</ele><time>2026-04-29T18:24:37.000Z</time></trkpt>
        <trkpt lat="28.825148" lon="105.317335"><ele>447.7953</ele><time>2026-04-29T18:24:44.000Z</time></trkpt>
        <trkpt lat="28.825123" lon="105.317381"><ele>447.46823</ele><time>2026-04-29T18:24:51.000Z</time></trkpt>
        <trkpt lat="28.825075" lon="105.317383"><ele>446.20224</ele><time>2026-04-29T18:24:58.000Z</time></trkpt>
        <trkpt lat="28.825023" lon="105.31737"><ele>445.79602</ele><time>2026-04-29T18:25:01.000Z</time></trkpt>
        <trkpt lat="28.824976" lon="105.317352"><ele>443.07202</ele><time>2026-04-29T18:25:07.000Z</time></trkpt>
        <trkpt lat="28.82493" lon="105.317351"><ele>440.64148</ele><time>2026-04-29T18:25:13.000Z</time></trkpt>
        <trkpt lat="28.824873" lon="105.31734"><ele>441.44147</ele><time>2026-04-29T18:25:18.000Z</time></trkpt>
        <trkpt lat="28.824824" lon="105.317334"><ele>437.762</ele><time>2026-04-29T18:25:24.000Z</time></trkpt>
        <trkpt lat="28.824828" lon="105.317279"><ele>437.8113</ele><time>2026-04-29T18:25:29.000Z</time></trkpt>
        <trkpt lat="28.824838" lon="105.317221"><ele>438.31656</ele><time>2026-04-29T18:25:37.000Z</time></trkpt>
        <trkpt lat="28.824851" lon="105.317172"><ele>439.22272</ele><time>2026-04-29T18:25:41.000Z</time></trkpt>
        <trkpt lat="28.824838" lon="105.317121"><ele>440.27618</ele><time>2026-04-29T18:25:45.000Z</time></trkpt>
        <trkpt lat="28.824826" lon="105.317065"><ele>440.06195</ele><time>2026-04-29T18:25:50.000Z</time></trkpt>
        <trkpt lat="28.824851" lon="105.317016"><ele>441.34216</ele><time>2026-04-29T18:25:55.000Z</time></trkpt>
        <trkpt lat="28.824866" lon="105.316964"><ele>442.5856</ele><time>2026-04-29T18:25:59.000Z</time></trkpt>
        <trkpt lat="28.824897" lon="105.316917"><ele>444.08487</ele><time>2026-04-29T18:26:05.000Z</time></trkpt>
        <trkpt lat="28.824932" lon="105.316872"><ele>446.77817</ele><time>2026-04-29T18:26:10.000Z</time></trkpt>
        <trkpt lat="28.824938" lon="105.31682"><ele>448.9089</ele><time>2026-04-29T18:26:15.000Z</time></trkpt>
        <trkpt lat="28.824944" lon="105.316766"><ele>450.41928</ele><time>2026-04-29T18:26:21.000Z</time></trkpt>
        <trkpt lat="28.824912" lon="105.316711"><ele>451.3185</ele><time>2026-04-29T18:26:25.000Z</time></trkpt>
        <trkpt lat="28.824895" lon="105.316641"><ele>452.91315</ele><time>2026-04-29T18:26:31.000Z</time></trkpt>
        <trkpt lat="28.824852" lon="105.316624"><ele>453.11633</ele><time>2026-04-29T18:26:34.000Z</time></trkpt>
        <trkpt lat="28.824839" lon="105.316568"><ele>454.05188</ele><time>2026-04-29T18:26:40.000Z</time></trkpt>
        <trkpt lat="28.824812" lon="105.316511"><ele>454.8704</ele><time>2026-04-29T18:26:43.000Z</time></trkpt>
        <trkpt lat="28.824782" lon="105.316468"><ele>455.3898</ele><time>2026-04-29T18:26:48.000Z</time></trkpt>
        <trkpt lat="28.824756" lon="105.316412"><ele>456.83908</ele><time>2026-04-29T18:26:51.000Z</time></trkpt>
        <trkpt lat="28.824699" lon="105.316387"><ele>458.7755</ele><time>2026-04-29T18:26:56.000Z</time></trkpt>
        <trkpt lat="28.824654" lon="105.316399"><ele>459.90143</ele><time>2026-04-29T18:27:00.000Z</time></trkpt>
        <trkpt lat="28.824638" lon="105.316455"><ele>459.31534</ele><time>2026-04-29T18:27:06.000Z</time></trkpt>
        <trkpt lat="28.824618" lon="105.316509"><ele>457.76935</ele><time>2026-04-29T18:27:11.000Z</time></trkpt>
        <trkpt lat="28.824564" lon="105.316537"><ele>457.76495</ele><time>2026-04-29T18:27:15.000Z</time></trkpt>
        <trkpt lat="28.82453" lon="105.316577"><ele>455.6929</ele><time>2026-04-29T18:27:24.000Z</time></trkpt>
        <trkpt lat="28.824496" lon="105.316613"><ele>453.25214</ele><time>2026-04-29T18:27:35.000Z</time></trkpt>
        <trkpt lat="28.824451" lon="105.316639"><ele>452.1991</ele><time>2026-04-29T18:27:42.000Z</time></trkpt>
        <trkpt lat="28.824391" lon="105.316659"><ele>451.79828</ele><time>2026-04-29T18:27:46.000Z</time></trkpt>
        <trkpt lat="28.824339" lon="105.31664"><ele>450.466</ele><time>2026-04-29T18:27:50.000Z</time></trkpt>
        <trkpt lat="28.824263" lon="105.316628"><ele>450.26096</ele><time>2026-04-29T18:27:54.000Z</time></trkpt>
        <trkpt lat="28.824202" lon="105.3166"><ele>451.06927</ele><time>2026-04-29T18:27:57.000Z</time></trkpt>
        <trkpt lat="28.824144" lon="105.316588"><ele>452.1062</ele><time>2026-04-29T18:28:00.000Z</time></trkpt>
        <trkpt lat="28.824101" lon="105.316558"><ele>452.4138</ele><time>2026-04-29T18:28:03.000Z</time></trkpt>
        <trkpt lat="28.82405" lon="105.316527"><ele>452.29776</ele><time>2026-04-29T18:28:06.000Z</time></trkpt>
        <trkpt lat="28.82401" lon="105.316502"><ele>452.05286</ele><time>2026-04-29T18:28:08.000Z</time></trkpt>
        <trkpt lat="28.823974" lon="105.316467"><ele>453.0946</ele><time>2026-04-29T18:28:10.000Z</time></trkpt>
        <trkpt lat="28.823954" lon="105.316417"><ele>454.19604</ele><time>2026-04-29T18:28:13.000Z</time></trkpt>
        <trkpt lat="28.823929" lon="105.316368"><ele>456.13135</ele><time>2026-04-29T18:28:17.000Z</time></trkpt>
        <trkpt lat="28.823917" lon="105.316314"><ele>456.28064</ele><time>2026-04-29T18:28:20.000Z</time></trkpt>
        <trkpt lat="28.823887" lon="105.316274"><ele>456.23294</ele><time>2026-04-29T18:28:27.000Z</time></trkpt>
        <trkpt lat="28.823844" lon="105.316243"><ele>456.13184</ele><time>2026-04-29T18:28:32.000Z</time></trkpt>
        <trkpt lat="28.8238" lon="105.316219"><ele>456.04016</ele><time>2026-04-29T18:28:37.000Z</time></trkpt>
        <trkpt lat="28.823762" lon="105.316168"><ele>454.5589</ele><time>2026-04-29T18:28:41.000Z</time></trkpt>
        <trkpt lat="28.823726" lon="105.316138"><ele>453.70566</ele><time>2026-04-29T18:28:44.000Z</time></trkpt>
        <trkpt lat="28.823676" lon="105.31611"><ele>452.67365</ele><time>2026-04-29T18:28:48.000Z</time></trkpt>
        <trkpt lat="28.823626" lon="105.316077"><ele>450.88702</ele><time>2026-04-29T18:28:52.000Z</time></trkpt>
        <trkpt lat="28.823603" lon="105.316032"><ele>449.4847</ele><time>2026-04-29T18:28:55.000Z</time></trkpt>
        <trkpt lat="28.82359" lon="105.315977"><ele>448.8274</ele><time>2026-04-29T18:28:57.000Z</time></trkpt>
        <trkpt lat="28.823572" lon="105.315926"><ele>446.7604</ele><time>2026-04-29T18:28:59.000Z</time></trkpt>
        <trkpt lat="28.823552" lon="105.315879"><ele>445.72226</ele><time>2026-04-29T18:29:01.000Z</time></trkpt>
        <trkpt lat="28.823518" lon="105.315844"><ele>446.02325</ele><time>2026-04-29T18:29:03.000Z</time></trkpt>
        <trkpt lat="28.823494" lon="105.315798"><ele>444.581</ele><time>2026-04-29T18:29:05.000Z</time></trkpt>
        <trkpt lat="28.823507" lon="105.315729"><ele>444.11478</ele><time>2026-04-29T18:29:07.000Z</time></trkpt>
        <trkpt lat="28.823478" lon="105.315668"><ele>443.6164</ele><time>2026-04-29T18:29:09.000Z</time></trkpt>
        <trkpt lat="28.823486" lon="105.315615"><ele>443.03568</ele><time>2026-04-29T18:29:11.000Z</time></trkpt>
        <trkpt lat="28.823478" lon="105.315558"><ele>443.60605</ele><time>2026-04-29T18:29:13.000Z</time></trkpt>
        <trkpt lat="28.82348" lon="105.315492"><ele>443.697</ele><time>2026-04-29T18:29:16.000Z</time></trkpt>
        <trkpt lat="28.823483" lon="105.31544"><ele>442.3974</ele><time>2026-04-29T18:29:19.000Z</time></trkpt>
        <trkpt lat="28.823464" lon="105.315367"><ele>442.41086</ele><time>2026-04-29T18:29:22.000Z</time></trkpt>
        <trkpt lat="28.82345" lon="105.315303"><ele>442.3632</ele><time>2026-04-29T18:29:25.000Z</time></trkpt>
        <trkpt lat="28.823457" lon="105.31525"><ele>441.8964</ele><time>2026-04-29T18:29:27.000Z</time></trkpt>
        <trkpt lat="28.823448" lon="105.315198"><ele>442.3123</ele><time>2026-04-29T18:29:29.000Z</time></trkpt>
        <trkpt lat="28.82344" lon="105.315137"><ele>441.81223</ele><time>2026-04-29T18:29:31.000Z</time></trkpt>
        <trkpt lat="28.823418" lon="105.315079"><ele>441.45096</ele><time>2026-04-29T18:29:34.000Z</time></trkpt>
        <trkpt lat="28.82342" lon="105.315011"><ele>439.9962</ele><time>2026-04-29T18:29:37.000Z</time></trkpt>
        <trkpt lat="28.823413" lon="105.314956"><ele>439.31708</ele><time>2026-04-29T18:29:39.000Z</time></trkpt>
        <trkpt lat="28.823419" lon="105.314899"><ele>439.12042</ele><time>2026-04-29T18:29:41.000Z</time></trkpt>
        <trkpt lat="28.823388" lon="105.314855"><ele>440.01584</ele><time>2026-04-29T18:29:44.000Z</time></trkpt>
        <trkpt lat="28.82336" lon="105.31481"><ele>438.2309</ele><time>2026-04-29T18:29:48.000Z</time></trkpt>
        <trkpt lat="28.823358" lon="105.314755"><ele>437.83292</ele><time>2026-04-29T18:29:50.000Z</time></trkpt>
        <trkpt lat="28.82333" lon="105.314714"><ele>437.6879</ele><time>2026-04-29T18:29:53.000Z</time></trkpt>
        <trkpt lat="28.823321" lon="105.314652"><ele>435.1816</ele><time>2026-04-29T18:29:56.000Z</time></trkpt>
        <trkpt lat="28.823324" lon="105.314592"><ele>433.66302</ele><time>2026-04-29T18:29:59.000Z</time></trkpt>
        <trkpt lat="28.823337" lon="105.314541"><ele>434.38766</ele><time>2026-04-29T18:30:06.000Z</time></trkpt>
        <trkpt lat="28.82335" lon="105.314484"><ele>432.6613</ele><time>2026-04-29T18:30:12.000Z</time></trkpt>
        <trkpt lat="28.823333" lon="105.31443"><ele>433.57816</ele><time>2026-04-29T18:30:17.000Z</time></trkpt>
        <trkpt lat="28.823329" lon="105.314378"><ele>432.27094</ele><time>2026-04-29T18:30:21.000Z</time></trkpt>
        <trkpt lat="28.823306" lon="105.314332"><ele>432.18356</ele><time>2026-04-29T18:30:24.000Z</time></trkpt>
        <trkpt lat="28.823272" lon="105.314292"><ele>430.8402</ele><time>2026-04-29T18:30:29.000Z</time></trkpt>
        <trkpt lat="28.823267" lon="105.314236"><ele>428.6689</ele><time>2026-04-29T18:30:33.000Z</time></trkpt>
        <trkpt lat="28.823241" lon="105.314186"><ele>427.7487</ele><time>2026-04-29T18:30:36.000Z</time></trkpt>
        <trkpt lat="28.823242" lon="105.314124"><ele>426.5126</ele><time>2026-04-29T18:30:39.000Z</time></trkpt>
        <trkpt lat="28.823252" lon="105.314069"><ele>425.7886</ele><time>2026-04-29T18:30:42.000Z</time></trkpt>
        <trkpt lat="28.823243" lon="105.314001"><ele>424.78394</ele><time>2026-04-29T18:30:45.000Z</time></trkpt>
        <trkpt lat="28.823236" lon="105.313936"><ele>425.96863</ele><time>2026-04-29T18:30:47.000Z</time></trkpt>
        <trkpt lat="28.823229" lon="105.313885"><ele>427.3804</ele><time>2026-04-29T18:30:49.000Z</time></trkpt>
        <trkpt lat="28.823204" lon="105.313823"><ele>426.29477</ele><time>2026-04-29T18:30:53.000Z</time></trkpt>
        <trkpt lat="28.823196" lon="105.313756"><ele>424.23218</ele><time>2026-04-29T18:30:56.000Z</time></trkpt>
        <trkpt lat="28.823183" lon="105.313694"><ele>423.15378</ele><time>2026-04-29T18:31:00.000Z</time></trkpt>
        <trkpt lat="28.823162" lon="105.31363"><ele>422.72238</ele><time>2026-04-29T18:31:03.000Z</time></trkpt>
        <trkpt lat="28.823131" lon="105.31358"><ele>421.29773</ele><time>2026-04-29T18:31:05.000Z</time></trkpt>
        <trkpt lat="28.82313" lon="105.313514"><ele>419.47787</ele><time>2026-04-29T18:31:10.000Z</time></trkpt>
        <trkpt lat="28.823149" lon="105.313466"><ele>418.80475</ele><time>2026-04-29T18:31:14.000Z</time></trkpt>
        <trkpt lat="28.823165" lon="105.313418"><ele>418.66702</ele><time>2026-04-29T18:31:17.000Z</time></trkpt>
        <trkpt lat="28.823182" lon="105.313362"><ele>418.39023</ele><time>2026-04-29T18:31:21.000Z</time></trkpt>
        <trkpt lat="28.823214" lon="105.313322"><ele>418.83127</ele><time>2026-04-29T18:31:25.000Z</time></trkpt>
        <trkpt lat="28.82322" lon="105.313266"><ele>419.02472</ele><time>2026-04-29T18:31:31.000Z</time></trkpt>
        <trkpt lat="28.823224" lon="105.313207"><ele>418.49353</ele><time>2026-04-29T18:31:41.000Z</time></trkpt>
        <trkpt lat="28.823227" lon="105.313151"><ele>419.0678</ele><time>2026-04-29T18:31:44.000Z</time></trkpt>
        <trkpt lat="28.823228" lon="105.313099"><ele>418.31503</ele><time>2026-04-29T18:31:48.000Z</time></trkpt>
        <trkpt lat="28.823224" lon="105.313045"><ele>418.1523</ele><time>2026-04-29T18:31:54.000Z</time></trkpt>
        <trkpt lat="28.823197" lon="105.312989"><ele>417.14447</ele><time>2026-04-29T18:31:58.000Z</time></trkpt>
        <trkpt lat="28.82317" lon="105.312934"><ele>416.2519</ele><time>2026-04-29T18:32:01.000Z</time></trkpt>
        <trkpt lat="28.823116" lon="105.31291"><ele>414.22733</ele><time>2026-04-29T18:32:08.000Z</time></trkpt>
        <trkpt lat="28.823067" lon="105.312875"><ele>412.55707</ele><time>2026-04-29T18:32:12.000Z</time></trkpt>
        <trkpt lat="28.823013" lon="105.312862"><ele>410.40268</ele><time>2026-04-29T18:32:17.000Z</time></trkpt>
        <trkpt lat="28.822967" lon="105.312823"><ele>410.31433</ele><time>2026-04-29T18:32:21.000Z</time></trkpt>
        <trkpt lat="28.82296" lon="105.312772"><ele>411.1133</ele><time>2026-04-29T18:32:24.000Z</time></trkpt>
        <trkpt lat="28.822917" lon="105.312748"><ele>410.31534</ele><time>2026-04-29T18:32:27.000Z</time></trkpt>
        <trkpt lat="28.822867" lon="105.312726"><ele>407.82544</ele><time>2026-04-29T18:32:31.000Z</time></trkpt>
        <trkpt lat="28.822838" lon="105.312678"><ele>406.69064</ele><time>2026-04-29T18:32:36.000Z</time></trkpt>
        <trkpt lat="28.822815" lon="105.31263"><ele>406.17426</ele><time>2026-04-29T18:32:40.000Z</time></trkpt>
        <trkpt lat="28.822781" lon="105.312572"><ele>405.51263</ele><time>2026-04-29T18:32:45.000Z</time></trkpt>
        <trkpt lat="28.822748" lon="105.312518"><ele>404.5673</ele><time>2026-04-29T18:32:51.000Z</time></trkpt>
        <trkpt lat="28.822711" lon="105.312487"><ele>404.3767</ele><time>2026-04-29T18:32:55.000Z</time></trkpt>
        <trkpt lat="28.822699" lon="105.312436"><ele>403.70352</ele><time>2026-04-29T18:32:59.000Z</time></trkpt>
        <trkpt lat="28.822693" lon="105.312375"><ele>404.78564</ele><time>2026-04-29T18:33:04.000Z</time></trkpt>
        <trkpt lat="28.822686" lon="105.312322"><ele>405.24063</ele><time>2026-04-29T18:33:08.000Z</time></trkpt>
        <trkpt lat="28.822654" lon="105.312277"><ele>406.0938</ele><time>2026-04-29T18:33:12.000Z</time></trkpt>
        <trkpt lat="28.822664" lon="105.312226"><ele>406.89743</ele><time>2026-04-29T18:33:15.000Z</time></trkpt>
        <trkpt lat="28.822635" lon="105.312177"><ele>408.22778</ele><time>2026-04-29T18:33:20.000Z</time></trkpt>
        <trkpt lat="28.822634" lon="105.31212"><ele>409.15814</ele><time>2026-04-29T18:33:32.000Z</time></trkpt>
        <trkpt lat="28.82259" lon="105.312085"><ele>409.21594</ele><time>2026-04-29T18:33:37.000Z</time></trkpt>
        <trkpt lat="28.822526" lon="105.312066"><ele>410.05826</ele><time>2026-04-29T18:33:41.000Z</time></trkpt>
        <trkpt lat="28.822477" lon="105.312095"><ele>410.09494</ele><time>2026-04-29T18:33:43.000Z</time></trkpt>
        <trkpt lat="28.822445" lon="105.312149"><ele>409.63177</ele><time>2026-04-29T18:33:48.000Z</time></trkpt>
        <trkpt lat="28.822392" lon="105.312171"><ele>411.03244</ele><time>2026-04-29T18:33:56.000Z</time></trkpt>
        <trkpt lat="28.82235" lon="105.312225"><ele>412.07187</ele><time>2026-04-29T18:34:02.000Z</time></trkpt>
        <trkpt lat="28.822333" lon="105.312287"><ele>412.22134</ele><time>2026-04-29T18:34:06.000Z</time></trkpt>
        <trkpt lat="28.822301" lon="105.312351"><ele>412.07086</ele><time>2026-04-29T18:34:09.000Z</time></trkpt>
        <trkpt lat="28.822263" lon="105.312382"><ele>411.80765</ele><time>2026-04-29T18:34:14.000Z</time></trkpt>
        <trkpt lat="28.822201" lon="105.312374"><ele>413.74094</ele><time>2026-04-29T18:34:17.000Z</time></trkpt>
        <trkpt lat="28.822153" lon="105.312384"><ele>415.49518</ele><time>2026-04-29T18:34:21.000Z</time></trkpt>
        <trkpt lat="28.822107" lon="105.312379"><ele>416.54868</ele><time>2026-04-29T18:34:23.000Z</time></trkpt>
        <trkpt lat="28.82206" lon="105.312399"><ele>418.33414</ele><time>2026-04-29T18:34:26.000Z</time></trkpt>
        <trkpt lat="28.822013" lon="105.312394"><ele>419.14456</ele><time>2026-04-29T18:34:30.000Z</time></trkpt>
        <trkpt lat="28.821978" lon="105.312443"><ele>419.72586</ele><time>2026-04-29T18:34:34.000Z</time></trkpt>
        <trkpt lat="28.821937" lon="105.31248"><ele>419.59985</ele><time>2026-04-29T18:34:38.000Z</time></trkpt>
        <trkpt lat="28.821874" lon="105.312502"><ele>419.416</ele><time>2026-04-29T18:34:43.000Z</time></trkpt>
        <trkpt lat="28.821819" lon="105.312505"><ele>419.44968</ele><time>2026-04-29T18:34:47.000Z</time></trkpt>
        <trkpt lat="28.821778" lon="105.312536"><ele>419.94638</ele><time>2026-04-29T18:34:50.000Z</time></trkpt>
        <trkpt lat="28.821759" lon="105.312589"><ele>419.6624</ele><time>2026-04-29T18:34:54.000Z</time></trkpt>
        <trkpt lat="28.82174" lon="105.312647"><ele>420.25745</ele><time>2026-04-29T18:34:59.000Z</time></trkpt>
        <trkpt lat="28.821716" lon="105.312699"><ele>419.65594</ele><time>2026-04-29T18:35:04.000Z</time></trkpt>
        <trkpt lat="28.8217" lon="105.31276"><ele>419.64514</ele><time>2026-04-29T18:35:08.000Z</time></trkpt>
        <trkpt lat="28.821693" lon="105.312816"><ele>419.2311</ele><time>2026-04-29T18:35:12.000Z</time></trkpt>
        <trkpt lat="28.821651" lon="105.312855"><ele>419.1777</ele><time>2026-04-29T18:35:16.000Z</time></trkpt>
        <trkpt lat="28.821595" lon="105.31286"><ele>419.72977</ele><time>2026-04-29T18:35:20.000Z</time></trkpt>
        <trkpt lat="28.821536" lon="105.312874"><ele>420.50388</ele><time>2026-04-29T18:35:24.000Z</time></trkpt>
        <trkpt lat="28.821482" lon="105.312892"><ele>421.68478</ele><time>2026-04-29T18:35:28.000Z</time></trkpt>
        <trkpt lat="28.821424" lon="105.312903"><ele>421.13925</ele><time>2026-04-29T18:35:32.000Z</time></trkpt>
        <trkpt lat="28.821377" lon="105.312899"><ele>421.61053</ele><time>2026-04-29T18:35:36.000Z</time></trkpt>
        <trkpt lat="28.821315" lon="105.312911"><ele>421.4644</ele><time>2026-04-29T18:35:40.000Z</time></trkpt>
        <trkpt lat="28.821265" lon="105.312948"><ele>420.86563</ele><time>2026-04-29T18:35:43.000Z</time></trkpt>
        <trkpt lat="28.821223" lon="105.312981"><ele>421.20795</ele><time>2026-04-29T18:35:46.000Z</time></trkpt>
        <trkpt lat="28.82116" lon="105.313024"><ele>422.03354</ele><time>2026-04-29T18:35:49.000Z</time></trkpt>
        <trkpt lat="28.821109" lon="105.313044"><ele>422.17972</ele><time>2026-04-29T18:35:51.000Z</time></trkpt>
        <trkpt lat="28.821056" lon="105.313074"><ele>422.77295</ele><time>2026-04-29T18:35:53.000Z</time></trkpt>
        <trkpt lat="28.821002" lon="105.313094"><ele>423.99893</ele><time>2026-04-29T18:35:55.000Z</time></trkpt>
        <trkpt lat="28.820955" lon="105.313105"><ele>423.57367</ele><time>2026-04-29T18:35:57.000Z</time></trkpt>
        <trkpt lat="28.820902" lon="105.313117"><ele>423.79315</ele><time>2026-04-29T18:35:59.000Z</time></trkpt>
        <trkpt lat="28.820861" lon="105.313155"><ele>424.7241</ele><time>2026-04-29T18:36:01.000Z</time></trkpt>
        <trkpt lat="28.820805" lon="105.31317"><ele>425.70193</ele><time>2026-04-29T18:36:04.000Z</time></trkpt>
        <trkpt lat="28.820736" lon="105.313196"><ele>425.88336</ele><time>2026-04-29T18:36:07.000Z</time></trkpt>
        <trkpt lat="28.82069" lon="105.313209"><ele>425.9066</ele><time>2026-04-29T18:36:09.000Z</time></trkpt>
        <trkpt lat="28.820627" lon="105.313224"><ele>425.73035</ele><time>2026-04-29T18:36:12.000Z</time></trkpt>
        <trkpt lat="28.820567" lon="105.313238"><ele>424.5691</ele><time>2026-04-29T18:36:15.000Z</time></trkpt>
        <trkpt lat="28.820505" lon="105.313262"><ele>425.47318</ele><time>2026-04-29T18:36:18.000Z</time></trkpt>
        <trkpt lat="28.820454" lon="105.31326"><ele>425.4326</ele><time>2026-04-29T18:36:22.000Z</time></trkpt>
        <trkpt lat="28.820435" lon="105.31321"><ele>424.22498</ele><time>2026-04-29T18:36:28.000Z</time></trkpt>
        <trkpt lat="28.82044" lon="105.313156"><ele>424.0137</ele><time>2026-04-29T18:36:41.000Z</time></trkpt>
        <trkpt lat="28.820442" lon="105.313213"><ele>425.34018</ele><time>2026-04-29T18:37:13.000Z</time></trkpt>
        <trkpt lat="28.820436" lon="105.313265"><ele>425.58038</ele><time>2026-04-29T18:37:18.000Z</time></trkpt>
        <trkpt lat="28.820421" lon="105.313313"><ele>425.54123</ele><time>2026-04-29T18:37:22.000Z</time></trkpt>
        <trkpt lat="28.820403" lon="105.31336"><ele>425.2635</ele><time>2026-04-29T18:37:26.000Z</time></trkpt>
        <trkpt lat="28.820388" lon="105.313412"><ele>425.09528</ele><time>2026-04-29T18:37:30.000Z</time></trkpt>
        <trkpt lat="28.820374" lon="105.313473"><ele>424.31955</ele><time>2026-04-29T18:37:34.000Z</time></trkpt>
        <trkpt lat="28.820362" lon="105.31353"><ele>424.5467</ele><time>2026-04-29T18:37:38.000Z</time></trkpt>
        <trkpt lat="28.820341" lon="105.313585"><ele>423.32278</ele><time>2026-04-29T18:37:42.000Z</time></trkpt>
        <trkpt lat="28.820328" lon="105.313637"><ele>422.90808</ele><time>2026-04-29T18:37:46.000Z</time></trkpt>
        <trkpt lat="28.820317" lon="105.313705"><ele>423.69543</ele><time>2026-04-29T18:37:51.000Z</time></trkpt>
        <trkpt lat="28.820296" lon="105.313764"><ele>424.3321</ele><time>2026-04-29T18:37:57.000Z</time></trkpt>
        <trkpt lat="28.820291" lon="105.313815"><ele>424.2066</ele><time>2026-04-29T18:38:01.000Z</time></trkpt>
        <trkpt lat="28.820283" lon="105.313871"><ele>424.02905</ele><time>2026-04-29T18:38:08.000Z</time></trkpt>
        <trkpt lat="28.820274" lon="105.313927"><ele>423.7806</ele><time>2026-04-29T18:38:13.000Z</time></trkpt>
        <trkpt lat="28.82027" lon="105.313983"><ele>422.9251</ele><time>2026-04-29T18:38:18.000Z</time></trkpt>
        <trkpt lat="28.820263" lon="105.31404"><ele>422.50275</ele><time>2026-04-29T18:38:22.000Z</time></trkpt>
        <trkpt lat="28.820254" lon="105.314099"><ele>421.52704</ele><time>2026-04-29T18:38:27.000Z</time></trkpt>
        <trkpt lat="28.820237" lon="105.314149"><ele>419.92294</ele><time>2026-04-29T18:38:32.000Z</time></trkpt>
        <trkpt lat="28.820221" lon="105.314197"><ele>419.3685</ele><time>2026-04-29T18:38:36.000Z</time></trkpt>
        <trkpt lat="28.820198" lon="105.314251"><ele>417.69714</ele><time>2026-04-29T18:38:40.000Z</time></trkpt>
        <trkpt lat="28.820178" lon="105.3143"><ele>416.81256</ele><time>2026-04-29T18:38:44.000Z</time></trkpt>
        <trkpt lat="28.820158" lon="105.314353"><ele>415.55743</ele><time>2026-04-29T18:38:49.000Z</time></trkpt>
        <trkpt lat="28.820136" lon="105.314402"><ele>414.92667</ele><time>2026-04-29T18:38:53.000Z</time></trkpt>
        <trkpt lat="28.820102" lon="105.314454"><ele>414.68558</ele><time>2026-04-29T18:38:58.000Z</time></trkpt>
        <trkpt lat="28.82008" lon="105.314501"><ele>414.44684</ele><time>2026-04-29T18:39:02.000Z</time></trkpt>
        <trkpt lat="28.820061" lon="105.31455"><ele>414.2076</ele><time>2026-04-29T18:39:06.000Z</time></trkpt>
        <trkpt lat="28.82003" lon="105.314602"><ele>414.39636</ele><time>2026-04-29T18:39:11.000Z</time></trkpt>
        <trkpt lat="28.820012" lon="105.314649"><ele>415.689</ele><time>2026-04-29T18:39:15.000Z</time></trkpt>
        <trkpt lat="28.81999" lon="105.314701"><ele>416.03543</ele><time>2026-04-29T18:39:19.000Z</time></trkpt>
        <trkpt lat="28.819973" lon="105.31475"><ele>416.37076</ele><time>2026-04-29T18:39:23.000Z</time></trkpt>
        <trkpt lat="28.819945" lon="105.3148"><ele>417.1481</ele><time>2026-04-29T18:39:27.000Z</time></trkpt>
        <trkpt lat="28.819922" lon="105.314857"><ele>416.177</ele><time>2026-04-29T18:39:32.000Z</time></trkpt>
        <trkpt lat="28.819901" lon="105.314905"><ele>416.33774</ele><time>2026-04-29T18:39:36.000Z</time></trkpt>
        <trkpt lat="28.819876" lon="105.314966"><ele>416.1111</ele><time>2026-04-29T18:39:41.000Z</time></trkpt>
        <trkpt lat="28.819865" lon="105.315024"><ele>415.48312</ele><time>2026-04-29T18:39:46.000Z</time></trkpt>
        <trkpt lat="28.819831" lon="105.315073"><ele>414.73816</ele><time>2026-04-29T18:39:50.000Z</time></trkpt>
        <trkpt lat="28.819789" lon="105.315124"><ele>415.79834</ele><time>2026-04-29T18:39:55.000Z</time></trkpt>
        <trkpt lat="28.819752" lon="105.31516"><ele>415.75323</ele><time>2026-04-29T18:39:59.000Z</time></trkpt>
        <trkpt lat="28.819707" lon="105.315198"><ele>416.64615</ele><time>2026-04-29T18:40:04.000Z</time></trkpt>
        <trkpt lat="28.819672" lon="105.315236"><ele>416.58597</ele><time>2026-04-29T18:40:09.000Z</time></trkpt>
        <trkpt lat="28.819632" lon="105.315282"><ele>416.28598</ele><time>2026-04-29T18:40:14.000Z</time></trkpt>
        <trkpt lat="28.819603" lon="105.315329"><ele>415.8719</ele><time>2026-04-29T18:40:18.000Z</time></trkpt>
        <trkpt lat="28.819576" lon="105.315382"><ele>414.56216</ele><time>2026-04-29T18:40:22.000Z</time></trkpt>
        <trkpt lat="28.819568" lon="105.315444"><ele>413.8261</ele><time>2026-04-29T18:40:26.000Z</time></trkpt>
        <trkpt lat="28.819563" lon="105.315506"><ele>413.74106</ele><time>2026-04-29T18:40:30.000Z</time></trkpt>
        <trkpt lat="28.81955" lon="105.315572"><ele>413.9947</ele><time>2026-04-29T18:40:34.000Z</time></trkpt>
        <trkpt lat="28.819536" lon="105.31563"><ele>413.35953</ele><time>2026-04-29T18:40:38.000Z</time></trkpt>
        <trkpt lat="28.819521" lon="105.315692"><ele>412.83054</ele><time>2026-04-29T18:40:42.000Z</time></trkpt>
        <trkpt lat="28.819506" lon="105.315748"><ele>412.0702</ele><time>2026-04-29T18:40:46.000Z</time></trkpt>
        <trkpt lat="28.819489" lon="105.315799"><ele>410.8953</ele><time>2026-04-29T18:40:50.000Z</time></trkpt>
        <trkpt lat="28.819449" lon="105.315844"><ele>410.62164</ele><time>2026-04-29T18:40:53.000Z</time></trkpt>
        <trkpt lat="28.819422" lon="105.315895"><ele>410.8754</ele><time>2026-04-29T18:40:56.000Z</time></trkpt>
        <trkpt lat="28.819393" lon="105.315946"><ele>410.5614</ele><time>2026-04-29T18:40:59.000Z</time></trkpt>
        <trkpt lat="28.819365" lon="105.315996"><ele>409.93045</ele><time>2026-04-29T18:41:02.000Z</time></trkpt>
        <trkpt lat="28.819345" lon="105.316047"><ele>409.37152</ele><time>2026-04-29T18:41:05.000Z</time></trkpt>
        <trkpt lat="28.819324" lon="105.316099"><ele>409.09857</ele><time>2026-04-29T18:41:08.000Z</time></trkpt>
        <trkpt lat="28.819296" lon="105.316156"><ele>407.28058</ele><time>2026-04-29T18:41:12.000Z</time></trkpt>
        <trkpt lat="28.819263" lon="105.316211"><ele>407.29214</ele><time>2026-04-29T18:41:16.000Z</time></trkpt>
        <trkpt lat="28.819227" lon="105.316264"><ele>406.25534</ele><time>2026-04-29T18:41:20.000Z</time></trkpt>
        <trkpt lat="28.819193" lon="105.316309"><ele>406.07635</ele><time>2026-04-29T18:41:24.000Z</time></trkpt>
        <trkpt lat="28.819165" lon="105.316363"><ele>403.9173</ele><time>2026-04-29T18:41:29.000Z</time></trkpt>
        <trkpt lat="28.819126" lon="105.316412"><ele>403.08572</ele><time>2026-04-29T18:41:33.000Z</time></trkpt>
        <trkpt lat="28.819099" lon="105.316456"><ele>402.36667</ele><time>2026-04-29T18:41:37.000Z</time></trkpt>
        <trkpt lat="28.819068" lon="105.316498"><ele>401.88477</ele><time>2026-04-29T18:41:41.000Z</time></trkpt>
        <trkpt lat="28.81905" lon="105.316557"><ele>401.48157</ele><time>2026-04-29T18:41:45.000Z</time></trkpt>
        <trkpt lat="28.819018" lon="105.316597"><ele>400.33658</ele><time>2026-04-29T18:41:49.000Z</time></trkpt>
        <trkpt lat="28.818999" lon="105.316645"><ele>398.85165</ele><time>2026-04-29T18:41:53.000Z</time></trkpt>
        <trkpt lat="28.818961" lon="105.316685"><ele>397.60233</ele><time>2026-04-29T18:41:57.000Z</time></trkpt>
        <trkpt lat="28.818917" lon="105.316718"><ele>396.13422</ele><time>2026-04-29T18:42:01.000Z</time></trkpt>
        <trkpt lat="28.818871" lon="105.316767"><ele>395.8472</ele><time>2026-04-29T18:42:05.000Z</time></trkpt>
        <trkpt lat="28.818826" lon="105.316809"><ele>395.3953</ele><time>2026-04-29T18:42:08.000Z</time></trkpt>
        <trkpt lat="28.818783" lon="105.31684"><ele>395.05304</ele><time>2026-04-29T18:42:11.000Z</time></trkpt>
        <trkpt lat="28.818742" lon="105.31688"><ele>393.2312</ele><time>2026-04-29T18:42:15.000Z</time></trkpt>
        <trkpt lat="28.818702" lon="105.316919"><ele>391.3775</ele><time>2026-04-29T18:42:19.000Z</time></trkpt>
        <trkpt lat="28.81866" lon="105.316942"><ele>390.15494</ele><time>2026-04-29T18:42:22.000Z</time></trkpt>
        <trkpt lat="28.818616" lon="105.316977"><ele>388.77908</ele><time>2026-04-29T18:42:26.000Z</time></trkpt>
        <trkpt lat="28.818584" lon="105.317029"><ele>388.23337</ele><time>2026-04-29T18:42:30.000Z</time></trkpt>
        <trkpt lat="28.818539" lon="105.31707"><ele>386.50037</ele><time>2026-04-29T18:42:34.000Z</time></trkpt>
        <trkpt lat="28.818494" lon="105.317106"><ele>385.0051</ele><time>2026-04-29T18:42:38.000Z</time></trkpt>
        <trkpt lat="28.818469" lon="105.317157"><ele>383.24658</ele><time>2026-04-29T18:42:42.000Z</time></trkpt>
        <trkpt lat="28.818434" lon="105.317193"><ele>380.5416</ele><time>2026-04-29T18:42:46.000Z</time></trkpt>
        <trkpt lat="28.818399" lon="105.317233"><ele>377.03058</ele><time>2026-04-29T18:42:51.000Z</time></trkpt>
        <trkpt lat="28.818362" lon="105.317268"><ele>376.44003</ele><time>2026-04-29T18:42:55.000Z</time></trkpt>
        <trkpt lat="28.818332" lon="105.317318"><ele>375.80267</ele><time>2026-04-29T18:42:59.000Z</time></trkpt>
        <trkpt lat="28.818283" lon="105.317351"><ele>375.78244</ele><time>2026-04-29T18:43:03.000Z</time></trkpt>
        <trkpt lat="28.818246" lon="105.317394"><ele>374.01166</ele><time>2026-04-29T18:43:07.000Z</time></trkpt>
        <trkpt lat="28.818197" lon="105.317431"><ele>373.04376</ele><time>2026-04-29T18:43:11.000Z</time></trkpt>
        <trkpt lat="28.818139" lon="105.317457"><ele>372.32764</ele><time>2026-04-29T18:43:15.000Z</time></trkpt>
        <trkpt lat="28.818098" lon="105.317497"><ele>372.42337</ele><time>2026-04-29T18:43:18.000Z</time></trkpt>
        <trkpt lat="28.81805" lon="105.317524"><ele>369.75555</ele><time>2026-04-29T18:43:22.000Z</time></trkpt>
        <trkpt lat="28.818007" lon="105.317551"><ele>369.58792</ele><time>2026-04-29T18:43:25.000Z</time></trkpt>
        <trkpt lat="28.817963" lon="105.317569"><ele>369.61237</ele><time>2026-04-29T18:43:28.000Z</time></trkpt>
        <trkpt lat="28.817911" lon="105.317579"><ele>369.46075</ele><time>2026-04-29T18:43:31.000Z</time></trkpt>
        <trkpt lat="28.817863" lon="105.317597"><ele>368.45538</ele><time>2026-04-29T18:43:34.000Z</time></trkpt>
        <trkpt lat="28.817814" lon="105.3176"><ele>367.01614</ele><time>2026-04-29T18:43:38.000Z</time></trkpt>
        <trkpt lat="28.817763" lon="105.317622"><ele>364.04373</ele><time>2026-04-29T18:43:44.000Z</time></trkpt>
        <trkpt lat="28.817719" lon="105.317649"><ele>363.2708</ele><time>2026-04-29T18:43:48.000Z</time></trkpt>
        <trkpt lat="28.817683" lon="105.317681"><ele>362.70505</ele><time>2026-04-29T18:43:51.000Z</time></trkpt>
        <trkpt lat="28.817655" lon="105.317721"><ele>361.3419</ele><time>2026-04-29T18:43:55.000Z</time></trkpt>
        <trkpt lat="28.817615" lon="105.317751"><ele>359.50296</ele><time>2026-04-29T18:43:59.000Z</time></trkpt>
        <trkpt lat="28.817568" lon="105.317774"><ele>358.0998</ele><time>2026-04-29T18:44:03.000Z</time></trkpt>
        <trkpt lat="28.817525" lon="105.31774"><ele>356.53943</ele><time>2026-04-29T18:44:06.000Z</time></trkpt>
        <trkpt lat="28.817537" lon="105.317682"><ele>355.45996</ele><time>2026-04-29T18:44:09.000Z</time></trkpt>
        <trkpt lat="28.817564" lon="105.317629"><ele>353.16757</ele><time>2026-04-29T18:44:13.000Z</time></trkpt>
        <trkpt lat="28.817591" lon="105.317583"><ele>352.6703</ele><time>2026-04-29T18:44:17.000Z</time></trkpt>
        <trkpt lat="28.817622" lon="105.317545"><ele>352.66364</ele><time>2026-04-29T18:44:20.000Z</time></trkpt>
        <trkpt lat="28.817665" lon="105.317495"><ele>352.72827</ele><time>2026-04-29T18:44:24.000Z</time></trkpt>
        <trkpt lat="28.81769" lon="105.317451"><ele>352.77316</ele><time>2026-04-29T18:44:27.000Z</time></trkpt>
        <trkpt lat="28.817642" lon="105.317443"><ele>353.9388</ele><time>2026-04-29T18:44:32.000Z</time></trkpt>
        <trkpt lat="28.817597" lon="105.317458"><ele>351.52686</ele><time>2026-04-29T18:44:41.000Z</time></trkpt>
        <trkpt lat="28.817541" lon="105.317461"><ele>350.66928</ele><time>2026-04-29T18:44:44.000Z</time></trkpt>
        <trkpt lat="28.817489" lon="105.317472"><ele>350.40512</ele><time>2026-04-29T18:44:47.000Z</time></trkpt>
        <trkpt lat="28.817441" lon="105.31748"><ele>349.10074</ele><time>2026-04-29T18:44:50.000Z</time></trkpt>
        <trkpt lat="28.817412" lon="105.317525"><ele>348.19635</ele><time>2026-04-29T18:44:57.000Z</time></trkpt>
        <trkpt lat="28.817383" lon="105.317584"><ele>347.99472</ele><time>2026-04-29T18:45:01.000Z</time></trkpt>
        <trkpt lat="28.817364" lon="105.317634"><ele>348.41385</ele><time>2026-04-29T18:45:05.000Z</time></trkpt>
        <trkpt lat="28.817336" lon="105.317683"><ele>348.6744</ele><time>2026-04-29T18:45:08.000Z</time></trkpt>
        <trkpt lat="28.817319" lon="105.317735"><ele>347.83987</ele><time>2026-04-29T18:45:13.000Z</time></trkpt>
        <trkpt lat="28.817314" lon="105.317786"><ele>348.36563</ele><time>2026-04-29T18:45:16.000Z</time></trkpt>
        <trkpt lat="28.817308" lon="105.317847"><ele>348.16504</ele><time>2026-04-29T18:45:20.000Z</time></trkpt>
        <trkpt lat="28.817316" lon="105.317915"><ele>347.82736</ele><time>2026-04-29T18:45:24.000Z</time></trkpt>
        <trkpt lat="28.817328" lon="105.317975"><ele>347.47812</ele><time>2026-04-29T18:45:28.000Z</time></trkpt>
        <trkpt lat="28.81734" lon="105.318038"><ele>346.47852</ele><time>2026-04-29T18:45:32.000Z</time></trkpt>
        <trkpt lat="28.817349" lon="105.318098"><ele>346.54605</ele><time>2026-04-29T18:45:36.000Z</time></trkpt>
        <trkpt lat="28.81737" lon="105.318153"><ele>345.53882</ele><time>2026-04-29T18:45:40.000Z</time></trkpt>
        <trkpt lat="28.817385" lon="105.318209"><ele>344.4603</ele><time>2026-04-29T18:45:44.000Z</time></trkpt>
        <trkpt lat="28.817404" lon="105.318259"><ele>343.95197</ele><time>2026-04-29T18:45:48.000Z</time></trkpt>
        <trkpt lat="28.817427" lon="105.31831"><ele>343.3442</ele><time>2026-04-29T18:45:52.000Z</time></trkpt>
        <trkpt lat="28.817446" lon="105.31837"><ele>342.88895</ele><time>2026-04-29T18:45:56.000Z</time></trkpt>
        <trkpt lat="28.817458" lon="105.318426"><ele>341.84784</ele><time>2026-04-29T18:46:00.000Z</time></trkpt>
        <trkpt lat="28.817477" lon="105.31848"><ele>341.5558</ele><time>2026-04-29T18:46:04.000Z</time></trkpt>
        <trkpt lat="28.817493" lon="105.318538"><ele>341.96268</ele><time>2026-04-29T18:46:08.000Z</time></trkpt>
        <trkpt lat="28.817501" lon="105.318591"><ele>341.03622</ele><time>2026-04-29T18:46:12.000Z</time></trkpt>
        <trkpt lat="28.817528" lon="105.318638"><ele>340.94122</ele><time>2026-04-29T18:46:16.000Z</time></trkpt>
        <trkpt lat="28.817556" lon="105.318684"><ele>340.70364</ele><time>2026-04-29T18:46:20.000Z</time></trkpt>
        <trkpt lat="28.817586" lon="105.318736"><ele>341.02533</ele><time>2026-04-29T18:46:24.000Z</time></trkpt>
        <trkpt lat="28.817613" lon="105.318778"><ele>340.7371</ele><time>2026-04-29T18:46:27.000Z</time></trkpt>
        <trkpt lat="28.817628" lon="105.318832"><ele>340.98312</ele><time>2026-04-29T18:46:31.000Z</time></trkpt>
        <trkpt lat="28.817642" lon="105.318887"><ele>340.4113</ele><time>2026-04-29T18:46:35.000Z</time></trkpt>
        <trkpt lat="28.817666" lon="105.31894"><ele>339.14633</ele><time>2026-04-29T18:46:39.000Z</time></trkpt>
        <trkpt lat="28.817694" lon="105.31899"><ele>338.98413</ele><time>2026-04-29T18:46:43.000Z</time></trkpt>
        <trkpt lat="28.817715" lon="105.319039"><ele>339.1178</ele><time>2026-04-29T18:46:47.000Z</time></trkpt>
        <trkpt lat="28.817736" lon="105.319095"><ele>338.92966</ele><time>2026-04-29T18:46:51.000Z</time></trkpt>
        <trkpt lat="28.817754" lon="105.319159"><ele>338.81683</ele><time>2026-04-29T18:46:56.000Z</time></trkpt>
        <trkpt lat="28.817755" lon="105.319217"><ele>338.1126</ele><time>2026-04-29T18:47:00.000Z</time></trkpt>
        <trkpt lat="28.817772" lon="105.319275"><ele>338.39243</ele><time>2026-04-29T18:47:04.000Z</time></trkpt>
        <trkpt lat="28.817772" lon="105.319332"><ele>337.90656</ele><time>2026-04-29T18:47:08.000Z</time></trkpt>
        <trkpt lat="28.81777" lon="105.319389"><ele>337.35828</ele><time>2026-04-29T18:47:12.000Z</time></trkpt>
        <trkpt lat="28.817761" lon="105.31945"><ele>336.84708</ele><time>2026-04-29T18:47:16.000Z</time></trkpt>
        <trkpt lat="28.817746" lon="105.319507"><ele>335.32217</ele><time>2026-04-29T18:47:21.000Z</time></trkpt>
        <trkpt lat="28.817734" lon="105.319559"><ele>334.91995</ele><time>2026-04-29T18:47:25.000Z</time></trkpt>
        <trkpt lat="28.817718" lon="105.319616"><ele>334.39966</ele><time>2026-04-29T18:47:29.000Z</time></trkpt>
        <trkpt lat="28.817693" lon="105.319667"><ele>333.29068</ele><time>2026-04-29T18:47:33.000Z</time></trkpt>
        <trkpt lat="28.817675" lon="105.319721"><ele>332.2144</ele><time>2026-04-29T18:47:37.000Z</time></trkpt>
        <trkpt lat="28.81766" lon="105.319777"><ele>329.76416</ele><time>2026-04-29T18:47:42.000Z</time></trkpt>
        <trkpt lat="28.817649" lon="105.319836"><ele>330.29074</ele><time>2026-04-29T18:47:46.000Z</time></trkpt>
        <trkpt lat="28.81764" lon="105.319902"><ele>329.93478</ele><time>2026-04-29T18:47:50.000Z</time></trkpt>
        <trkpt lat="28.817627" lon="105.319952"><ele>330.58835</ele><time>2026-04-29T18:47:54.000Z</time></trkpt>
        <trkpt lat="28.817601" lon="105.319909"><ele>328.48184</ele><time>2026-04-29T18:47:59.000Z</time></trkpt>
        <trkpt lat="28.817601" lon="105.319848"><ele>328.3897</ele><time>2026-04-29T18:48:03.000Z</time></trkpt>
        <trkpt lat="28.817605" lon="105.319782"><ele>328.81458</ele><time>2026-04-29T18:48:08.000Z</time></trkpt>
        <trkpt lat="28.81759" lon="105.319732"><ele>328.274</ele><time>2026-04-29T18:48:14.000Z</time></trkpt>
        <trkpt lat="28.817577" lon="105.319672"><ele>327.44095</ele><time>2026-04-29T18:48:20.000Z</time></trkpt>
        <trkpt lat="28.817589" lon="105.31961"><ele>327.62668</ele><time>2026-04-29T18:48:26.000Z</time></trkpt>
        <trkpt lat="28.817597" lon="105.319555"><ele>327.9587</ele><time>2026-04-29T18:48:30.000Z</time></trkpt>
        <trkpt lat="28.81759" lon="105.319502"><ele>327.33447</ele><time>2026-04-29T18:48:34.000Z</time></trkpt>
        <trkpt lat="28.81757" lon="105.319456"><ele>327.79596</ele><time>2026-04-29T18:48:38.000Z</time></trkpt>
        <trkpt lat="28.817542" lon="105.319401"><ele>327.44803</ele><time>2026-04-29T18:48:42.000Z</time></trkpt>
        <trkpt lat="28.817514" lon="105.319345"><ele>328.0247</ele><time>2026-04-29T18:48:46.000Z</time></trkpt>
        <trkpt lat="28.81748" lon="105.319302"><ele>327.6926</ele><time>2026-04-29T18:48:51.000Z</time></trkpt>
        <trkpt lat="28.817434" lon="105.319271"><ele>327.45804</ele><time>2026-04-29T18:48:55.000Z</time></trkpt>
        <trkpt lat="28.817414" lon="105.319223"><ele>326.41077</ele><time>2026-04-29T18:49:00.000Z</time></trkpt>
        <trkpt lat="28.817419" lon="105.319168"><ele>327.16833</ele><time>2026-04-29T18:49:05.000Z</time></trkpt>
        <trkpt lat="28.817419" lon="105.319114"><ele>327.90945</ele><time>2026-04-29T18:49:10.000Z</time></trkpt>
        <trkpt lat="28.817393" lon="105.319057"><ele>328.44476</ele><time>2026-04-29T18:49:21.000Z</time></trkpt>
        <trkpt lat="28.81737" lon="105.319001"><ele>328.2544</ele><time>2026-04-29T18:49:25.000Z</time></trkpt>
        <trkpt lat="28.817317" lon="105.319017"><ele>327.1156</ele><time>2026-04-29T18:49:46.000Z</time></trkpt>
        <trkpt lat="28.817263" lon="105.319034"><ele>325.07858</ele><time>2026-04-29T18:49:52.000Z</time></trkpt>
        <trkpt lat="28.817216" lon="105.319034"><ele>323.68246</ele><time>2026-04-29T18:50:00.000Z</time></trkpt>
        <trkpt lat="28.817174" lon="105.319056"><ele>320.99423</ele><time>2026-04-29T18:50:08.000Z</time></trkpt>
        <trkpt lat="28.817127" lon="105.319078"><ele>319.74463</ele><time>2026-04-29T18:50:13.000Z</time></trkpt>
        <trkpt lat="28.817087" lon="105.319115"><ele>317.38925</ele><time>2026-04-29T18:50:19.000Z</time></trkpt>
        <trkpt lat="28.817036" lon="105.319122"><ele>315.73578</ele><time>2026-04-29T18:50:24.000Z</time></trkpt>
        <trkpt lat="28.81699" lon="105.319126"><ele>313.32654</ele><time>2026-04-29T18:50:29.000Z</time></trkpt>
        <trkpt lat="28.816939" lon="105.319134"><ele>313.0565</ele><time>2026-04-29T18:50:33.000Z</time></trkpt>
        <trkpt lat="28.816892" lon="105.319148"><ele>309.48395</ele><time>2026-04-29T18:50:42.000Z</time></trkpt>
        <trkpt lat="28.816889" lon="105.319201"><ele>306.63696</ele><time>2026-04-29T18:50:51.000Z</time></trkpt>
        <trkpt lat="28.81685" lon="105.319228"><ele>304.97766</ele><time>2026-04-29T18:50:57.000Z</time></trkpt>
        <trkpt lat="28.816808" lon="105.319253"><ele>302.50012</ele><time>2026-04-29T18:51:02.000Z</time></trkpt>
        <trkpt lat="28.816764" lon="105.319279"><ele>302.1318</ele><time>2026-04-29T18:51:09.000Z</time></trkpt>
        <trkpt lat="28.816707" lon="105.319269"><ele>299.94464</ele><time>2026-04-29T18:52:18.000Z</time></trkpt>
        <trkpt lat="28.816738" lon="105.319309"><ele>298.7342</ele><time>2026-04-29T18:53:34.000Z</time></trkpt>
        <trkpt lat="28.816779" lon="105.319271"><ele>302.17496</ele><time>2026-04-29T18:54:00.000Z</time></trkpt>
        <trkpt lat="28.81682" lon="105.319239"><ele>303.27994</ele><time>2026-04-29T18:54:27.000Z</time></trkpt>
        <trkpt lat="28.816843" lon="105.319194"><ele>306.78094</ele><time>2026-04-29T18:54:46.000Z</time></trkpt>
        <trkpt lat="28.816864" lon="105.319147"><ele>306.70502</ele><time>2026-04-29T18:54:52.000Z</time></trkpt>
        <trkpt lat="28.816914" lon="105.319166"><ele>308.69003</ele><time>2026-04-29T18:55:01.000Z</time></trkpt>
        <trkpt lat="28.816961" lon="105.319164"><ele>310.24213</ele><time>2026-04-29T18:55:10.000Z</time></trkpt>
        <trkpt lat="28.817011" lon="105.319163"><ele>312.3147</ele><time>2026-04-29T18:55:19.000Z</time></trkpt>
        <trkpt lat="28.817057" lon="105.319133"><ele>314.2347</ele><time>2026-04-29T18:55:29.000Z</time></trkpt>
        <trkpt lat="28.817093" lon="105.3191"><ele>316.2557</ele><time>2026-04-29T18:55:37.000Z</time></trkpt>
        <trkpt lat="28.817141" lon="105.319085"><ele>318.90955</ele><time>2026-04-29T18:55:43.000Z</time></trkpt>
        <trkpt lat="28.817183" lon="105.319053"><ele>318.44608</ele><time>2026-04-29T18:55:49.000Z</time></trkpt>
        <trkpt lat="28.817234" lon="105.319043"><ele>320.34332</ele><time>2026-04-29T18:56:00.000Z</time></trkpt>
        <trkpt lat="28.817289" lon="105.319042"><ele>322.0609</ele><time>2026-04-29T18:56:06.000Z</time></trkpt>
        <trkpt lat="28.817338" lon="105.319064"><ele>326.06186</ele><time>2026-04-29T18:56:13.000Z</time></trkpt>
        <trkpt lat="28.817383" lon="105.319052"><ele>328.39426</ele><time>2026-04-29T18:56:32.000Z</time></trkpt>
        <trkpt lat="28.817403" lon="105.3191"><ele>328.32224</ele><time>2026-04-29T18:56:42.000Z</time></trkpt>
        <trkpt lat="28.81741" lon="105.319164"><ele>328.05692</ele><time>2026-04-29T18:56:47.000Z</time></trkpt>
        <trkpt lat="28.817425" lon="105.319213"><ele>329.28226</ele><time>2026-04-29T18:56:54.000Z</time></trkpt>
        <trkpt lat="28.81745" lon="105.31926"><ele>326.74283</ele><time>2026-04-29T18:57:11.000Z</time></trkpt>
        <trkpt lat="28.817486" lon="105.319302"><ele>327.87692</ele><time>2026-04-29T18:57:18.000Z</time></trkpt>
        <trkpt lat="28.817519" lon="105.319341"><ele>328.7674</ele><time>2026-04-29T18:57:22.000Z</time></trkpt>
        <trkpt lat="28.817549" lon="105.319385"><ele>329.86594</ele><time>2026-04-29T18:57:27.000Z</time></trkpt>
        <trkpt lat="28.817575" lon="105.319429"><ele>330.4481</ele><time>2026-04-29T18:57:31.000Z</time></trkpt>
        <trkpt lat="28.817607" lon="105.319469"><ele>329.76483</ele><time>2026-04-29T18:57:36.000Z</time></trkpt>
        <trkpt lat="28.817627" lon="105.319516"><ele>329.2837</ele><time>2026-04-29T18:57:41.000Z</time></trkpt>
        <trkpt lat="28.817616" lon="105.319573"><ele>328.65256</ele><time>2026-04-29T18:57:49.000Z</time></trkpt>
        <trkpt lat="28.817597" lon="105.319629"><ele>328.61343</ele><time>2026-04-29T18:57:53.000Z</time></trkpt>
        <trkpt lat="28.817573" lon="105.319679"><ele>328.58005</ele><time>2026-04-29T18:57:58.000Z</time></trkpt>
        <trkpt lat="28.81757" lon="105.319733"><ele>329.79272</ele><time>2026-04-29T18:58:03.000Z</time></trkpt>
        <trkpt lat="28.817582" lon="105.319791"><ele>329.8174</ele><time>2026-04-29T18:58:08.000Z</time></trkpt>
        <trkpt lat="28.817575" lon="105.319846"><ele>328.93842</ele><time>2026-04-29T18:58:12.000Z</time></trkpt>
        <trkpt lat="28.817573" lon="105.319903"><ele>328.9784</ele><time>2026-04-29T18:58:16.000Z</time></trkpt>
        <trkpt lat="28.81762" lon="105.319909"><ele>328.32166</ele><time>2026-04-29T18:58:22.000Z</time></trkpt>
        <trkpt lat="28.817654" lon="105.319873"><ele>329.30762</ele><time>2026-04-29T18:58:27.000Z</time></trkpt>
        <trkpt lat="28.817679" lon="105.319823"><ele>330.79114</ele><time>2026-04-29T18:58:32.000Z</time></trkpt>
        <trkpt lat="28.817701" lon="105.319775"><ele>333.11615</ele><time>2026-04-29T18:58:36.000Z</time></trkpt>
        <trkpt lat="28.817726" lon="105.319729"><ele>333.99796</ele><time>2026-04-29T18:58:40.000Z</time></trkpt>
        <trkpt lat="28.817741" lon="105.31968"><ele>335.8289</ele><time>2026-04-29T18:58:44.000Z</time></trkpt>
        <trkpt lat="28.817751" lon="105.319625"><ele>336.00067</ele><time>2026-04-29T18:58:49.000Z</time></trkpt>
        <trkpt lat="28.817757" lon="105.319567"><ele>336.17816</ele><time>2026-04-29T18:58:54.000Z</time></trkpt>
        <trkpt lat="28.817771" lon="105.319511"><ele>336.64795</ele><time>2026-04-29T18:58:59.000Z</time></trkpt>
        <trkpt lat="28.817788" lon="105.319457"><ele>337.03323</ele><time>2026-04-29T18:59:04.000Z</time></trkpt>
        <trkpt lat="28.817795" lon="105.319396"><ele>337.5487</ele><time>2026-04-29T18:59:09.000Z</time></trkpt>
        <trkpt lat="28.817805" lon="105.319344"><ele>338.13382</ele><time>2026-04-29T18:59:13.000Z</time></trkpt>
        <trkpt lat="28.817803" lon="105.31928"><ele>338.56512</ele><time>2026-04-29T18:59:18.000Z</time></trkpt>
        <trkpt lat="28.817783" lon="105.319219"><ele>339.4566</ele><time>2026-04-29T18:59:22.000Z</time></trkpt>
        <trkpt lat="28.817769" lon="105.319166"><ele>339.5457</ele><time>2026-04-29T18:59:27.000Z</time></trkpt>
        <trkpt lat="28.81775" lon="105.319111"><ele>339.54517</ele><time>2026-04-29T18:59:31.000Z</time></trkpt>
        <trkpt lat="28.817745" lon="105.319059"><ele>340.25458</ele><time>2026-04-29T18:59:35.000Z</time></trkpt>
        <trkpt lat="28.81771" lon="105.318995"><ele>339.72653</ele><time>2026-04-29T18:59:40.000Z</time></trkpt>
        <trkpt lat="28.817694" lon="105.31894"><ele>339.99225</ele><time>2026-04-29T18:59:43.000Z</time></trkpt>
        <trkpt lat="28.817657" lon="105.318872"><ele>341.00018</ele><time>2026-04-29T18:59:46.000Z</time></trkpt>
        <trkpt lat="28.817631" lon="105.318806"><ele>340.4647</ele><time>2026-04-29T18:59:48.000Z</time></trkpt>
        <trkpt lat="28.817606" lon="105.318753"><ele>341.1461</ele><time>2026-04-29T18:59:50.000Z</time></trkpt>
        <trkpt lat="28.81757" lon="105.318689"><ele>341.29468</ele><time>2026-04-29T18:59:53.000Z</time></trkpt>
        <trkpt lat="28.817552" lon="105.318636"><ele>342.01212</ele><time>2026-04-29T18:59:55.000Z</time></trkpt>
        <trkpt lat="28.817533" lon="105.318587"><ele>342.63788</ele><time>2026-04-29T18:59:57.000Z</time></trkpt>
        <trkpt lat="28.817519" lon="105.318537"><ele>342.62338</ele><time>2026-04-29T18:59:59.000Z</time></trkpt>
        <trkpt lat="28.817492" lon="105.318488"><ele>343.57355</ele><time>2026-04-29T19:00:01.000Z</time></trkpt>
        <trkpt lat="28.817466" lon="105.318417"><ele>344.09528</ele><time>2026-04-29T19:00:04.000Z</time></trkpt>
        <trkpt lat="28.817451" lon="105.318344"><ele>344.5444</ele><time>2026-04-29T19:00:07.000Z</time></trkpt>
        <trkpt lat="28.817421" lon="105.318278"><ele>344.01413</ele><time>2026-04-29T19:00:10.000Z</time></trkpt>
        <trkpt lat="28.817403" lon="105.31823"><ele>344.25812</ele><time>2026-04-29T19:00:12.000Z</time></trkpt>
        <trkpt lat="28.817374" lon="105.318165"><ele>344.6999</ele><time>2026-04-29T19:00:15.000Z</time></trkpt>
        <trkpt lat="28.817354" lon="105.318104"><ele>345.1221</ele><time>2026-04-29T19:00:17.000Z</time></trkpt>
        <trkpt lat="28.817333" lon="105.318031"><ele>346.19662</ele><time>2026-04-29T19:00:20.000Z</time></trkpt>
        <trkpt lat="28.817311" lon="105.317961"><ele>346.6873</ele><time>2026-04-29T19:00:23.000Z</time></trkpt>
        <trkpt lat="28.817313" lon="105.317901"><ele>347.10544</ele><time>2026-04-29T19:00:25.000Z</time></trkpt>
        <trkpt lat="28.817303" lon="105.317829"><ele>347.44885</ele><time>2026-04-29T19:00:28.000Z</time></trkpt>
        <trkpt lat="28.817301" lon="105.317773"><ele>348.20126</ele><time>2026-04-29T19:00:30.000Z</time></trkpt>
        <trkpt lat="28.817327" lon="105.317705"><ele>348.64023</ele><time>2026-04-29T19:00:33.000Z</time></trkpt>
        <trkpt lat="28.817361" lon="105.317642"><ele>349.13934</ele><time>2026-04-29T19:00:35.000Z</time></trkpt>
        <trkpt lat="28.817389" lon="105.317584"><ele>349.36472</ele><time>2026-04-29T19:00:37.000Z</time></trkpt>
        <trkpt lat="28.817435" lon="105.317517"><ele>349.6444</ele><time>2026-04-29T19:00:40.000Z</time></trkpt>
        <trkpt lat="28.817463" lon="105.317443"><ele>349.6487</ele><time>2026-04-29T19:00:43.000Z</time></trkpt>
        <trkpt lat="28.817488" lon="105.317372"><ele>349.48407</ele><time>2026-04-29T19:00:46.000Z</time></trkpt>
        <trkpt lat="28.817532" lon="105.317313"><ele>348.92438</ele><time>2026-04-29T19:00:49.000Z</time></trkpt>
        <trkpt lat="28.817564" lon="105.317269"><ele>348.98816</ele><time>2026-04-29T19:00:51.000Z</time></trkpt>
        <trkpt lat="28.817594" lon="105.317215"><ele>348.348</ele><time>2026-04-29T19:00:56.000Z</time></trkpt>
        <trkpt lat="28.817618" lon="105.31717"><ele>348.53766</ele><time>2026-04-29T19:00:59.000Z</time></trkpt>
        <trkpt lat="28.817649" lon="105.317119"><ele>349.26953</ele><time>2026-04-29T19:01:03.000Z</time></trkpt>
        <trkpt lat="28.817671" lon="105.317072"><ele>349.83856</ele><time>2026-04-29T19:01:06.000Z</time></trkpt>
        <trkpt lat="28.817711" lon="105.316998"><ele>350.0227</ele><time>2026-04-29T19:01:09.000Z</time></trkpt>
        <trkpt lat="28.817735" lon="105.316934"><ele>351.2079</ele><time>2026-04-29T19:01:12.000Z</time></trkpt>
        <trkpt lat="28.817761" lon="105.316879"><ele>352.02356</ele><time>2026-04-29T19:01:14.000Z</time></trkpt>
        <trkpt lat="28.817796" lon="105.316825"><ele>352.93295</ele><time>2026-04-29T19:01:16.000Z</time></trkpt>
        <trkpt lat="28.817832" lon="105.316771"><ele>353.2283</ele><time>2026-04-29T19:01:18.000Z</time></trkpt>
        <trkpt lat="28.81785" lon="105.316708"><ele>352.85123</ele><time>2026-04-29T19:01:21.000Z</time></trkpt>
        <trkpt lat="28.817881" lon="105.316657"><ele>352.6442</ele><time>2026-04-29T19:01:23.000Z</time></trkpt>
        <trkpt lat="28.817909" lon="105.31661"><ele>352.79004</ele><time>2026-04-29T19:01:25.000Z</time></trkpt>
        <trkpt lat="28.817941" lon="105.316565"><ele>352.80585</ele><time>2026-04-29T19:01:27.000Z</time></trkpt>
        <trkpt lat="28.817962" lon="105.316512"><ele>353.03476</ele><time>2026-04-29T19:01:29.000Z</time></trkpt>
        <trkpt lat="28.817985" lon="105.316467"><ele>354.00168</ele><time>2026-04-29T19:01:31.000Z</time></trkpt>
        <trkpt lat="28.818018" lon="105.316418"><ele>354.24512</ele><time>2026-04-29T19:01:33.000Z</time></trkpt>
        <trkpt lat="28.818046" lon="105.316364"><ele>354.18146</ele><time>2026-04-29T19:01:35.000Z</time></trkpt>
        <trkpt lat="28.81808" lon="105.316318"><ele>354.50336</ele><time>2026-04-29T19:01:37.000Z</time></trkpt>
        <trkpt lat="28.818112" lon="105.316257"><ele>354.1185</ele><time>2026-04-29T19:01:40.000Z</time></trkpt>
        <trkpt lat="28.818145" lon="105.316212"><ele>353.85327</ele><time>2026-04-29T19:01:42.000Z</time></trkpt>
        <trkpt lat="28.818169" lon="105.316163"><ele>354.64023</ele><time>2026-04-29T19:01:44.000Z</time></trkpt>
        <trkpt lat="28.818192" lon="105.316102"><ele>355.10388</ele><time>2026-04-29T19:01:46.000Z</time></trkpt>
        <trkpt lat="28.818204" lon="105.316052"><ele>354.467</ele><time>2026-04-29T19:01:48.000Z</time></trkpt>
        <trkpt lat="28.818232" lon="105.315996"><ele>354.58902</ele><time>2026-04-29T19:01:50.000Z</time></trkpt>
        <trkpt lat="28.818268" lon="105.315917"><ele>354.69708</ele><time>2026-04-29T19:01:53.000Z</time></trkpt>
        <trkpt lat="28.818277" lon="105.315846"><ele>353.90335</ele><time>2026-04-29T19:01:56.000Z</time></trkpt>
        <trkpt lat="28.818292" lon="105.315798"><ele>354.44897</ele><time>2026-04-29T19:01:58.000Z</time></trkpt>
        <trkpt lat="28.818307" lon="105.315729"><ele>353.8815</ele><time>2026-04-29T19:02:00.000Z</time></trkpt>
        <trkpt lat="28.818313" lon="105.315669"><ele>353.79382</ele><time>2026-04-29T19:02:02.000Z</time></trkpt>
        <trkpt lat="28.818307" lon="105.315617"><ele>352.98697</ele><time>2026-04-29T19:02:04.000Z</time></trkpt>
        <trkpt lat="28.818335" lon="105.315567"><ele>353.09738</ele><time>2026-04-29T19:02:06.000Z</time></trkpt>
        <trkpt lat="28.818344" lon="105.315511"><ele>353.38434</ele><time>2026-04-29T19:02:08.000Z</time></trkpt>
        <trkpt lat="28.818353" lon="105.315459"><ele>353.2885</ele><time>2026-04-29T19:02:10.000Z</time></trkpt>
        <trkpt lat="28.818371" lon="105.315398"><ele>353.35815</ele><time>2026-04-29T19:02:12.000Z</time></trkpt>
        <trkpt lat="28.818383" lon="105.315343"><ele>352.64487</ele><time>2026-04-29T19:02:14.000Z</time></trkpt>
        <trkpt lat="28.818403" lon="105.315289"><ele>352.79465</ele><time>2026-04-29T19:02:16.000Z</time></trkpt>
        <trkpt lat="28.818417" lon="105.315226"><ele>352.76923</ele><time>2026-04-29T19:02:18.000Z</time></trkpt>
        <trkpt lat="28.818439" lon="105.315155"><ele>352.56296</ele><time>2026-04-29T19:02:21.000Z</time></trkpt>
        <trkpt lat="28.818458" lon="105.315107"><ele>352.47583</ele><time>2026-04-29T19:02:23.000Z</time></trkpt>
        <trkpt lat="28.818486" lon="105.315048"><ele>352.51953</ele><time>2026-04-29T19:02:26.000Z</time></trkpt>
        <trkpt lat="28.818524" lon="105.314974"><ele>353.05402</ele><time>2026-04-29T19:02:29.000Z</time></trkpt>
        <trkpt lat="28.818558" lon="105.314923"><ele>353.8744</ele><time>2026-04-29T19:02:32.000Z</time></trkpt>
        <trkpt lat="28.81857" lon="105.314872"><ele>353.6727</ele><time>2026-04-29T19:02:34.000Z</time></trkpt>
        <trkpt lat="28.818606" lon="105.314815"><ele>353.96942</ele><time>2026-04-29T19:02:36.000Z</time></trkpt>
        <trkpt lat="28.818639" lon="105.314764"><ele>354.37976</ele><time>2026-04-29T19:02:38.000Z</time></trkpt>
        <trkpt lat="28.818665" lon="105.314686"><ele>355.34564</ele><time>2026-04-29T19:02:41.000Z</time></trkpt>
        <trkpt lat="28.818689" lon="105.314641"><ele>356.16544</ele><time>2026-04-29T19:02:43.000Z</time></trkpt>
        <trkpt lat="28.818711" lon="105.314592"><ele>355.53528</ele><time>2026-04-29T19:02:45.000Z</time></trkpt>
        <trkpt lat="28.818729" lon="105.314537"><ele>356.53287</ele><time>2026-04-29T19:02:47.000Z</time></trkpt>
        <trkpt lat="28.818756" lon="105.314486"><ele>356.54465</ele><time>2026-04-29T19:02:49.000Z</time></trkpt>
        <trkpt lat="28.81878" lon="105.314438"><ele>356.46054</ele><time>2026-04-29T19:02:51.000Z</time></trkpt>
        <trkpt lat="28.818806" lon="105.314377"><ele>356.42087</ele><time>2026-04-29T19:02:54.000Z</time></trkpt>
        <trkpt lat="28.818826" lon="105.314325"><ele>356.07645</ele><time>2026-04-29T19:02:56.000Z</time></trkpt>
        <trkpt lat="28.818845" lon="105.314261"><ele>356.4397</ele><time>2026-04-29T19:02:59.000Z</time></trkpt>
        <trkpt lat="28.818874" lon="105.314218"><ele>356.63333</ele><time>2026-04-29T19:03:01.000Z</time></trkpt>
        <trkpt lat="28.818897" lon="105.314168"><ele>355.9429</ele><time>2026-04-29T19:03:03.000Z</time></trkpt>
        <trkpt lat="28.818929" lon="105.314114"><ele>356.05466</ele><time>2026-04-29T19:03:06.000Z</time></trkpt>
        <trkpt lat="28.818953" lon="105.31405"><ele>356.4033</ele><time>2026-04-29T19:03:09.000Z</time></trkpt>
        <trkpt lat="28.81897" lon="105.31399"><ele>356.7927</ele><time>2026-04-29T19:03:11.000Z</time></trkpt>
        <trkpt lat="28.818994" lon="105.313923"><ele>357.91232</ele><time>2026-04-29T19:03:14.000Z</time></trkpt>
        <trkpt lat="28.81901" lon="105.313857"><ele>357.5564</ele><time>2026-04-29T19:03:17.000Z</time></trkpt>
        <trkpt lat="28.81904" lon="105.3138"><ele>358.69455</ele><time>2026-04-29T19:03:20.000Z</time></trkpt>
        <trkpt lat="28.819062" lon="105.313729"><ele>359.41608</ele><time>2026-04-29T19:03:23.000Z</time></trkpt>
        <trkpt lat="28.819079" lon="105.31368"><ele>360.02304</ele><time>2026-04-29T19:03:25.000Z</time></trkpt>
        <trkpt lat="28.819088" lon="105.313603"><ele>360.649</ele><time>2026-04-29T19:03:28.000Z</time></trkpt>
        <trkpt lat="28.819098" lon="105.313528"><ele>361.145</ele><time>2026-04-29T19:03:31.000Z</time></trkpt>
        <trkpt lat="28.819117" lon="105.313477"><ele>362.02426</ele><time>2026-04-29T19:03:33.000Z</time></trkpt>
        <trkpt lat="28.819129" lon="105.313415"><ele>363.37198</ele><time>2026-04-29T19:03:36.000Z</time></trkpt>
        <trkpt lat="28.81914" lon="105.31335"><ele>364.15143</ele><time>2026-04-29T19:03:39.000Z</time></trkpt>
        <trkpt lat="28.819155" lon="105.313301"><ele>364.46103</ele><time>2026-04-29T19:03:41.000Z</time></trkpt>
        <trkpt lat="28.819162" lon="105.313245"><ele>364.82062</ele><time>2026-04-29T19:03:44.000Z</time></trkpt>
        <trkpt lat="28.819168" lon="105.313189"><ele>365.42206</ele><time>2026-04-29T19:03:46.000Z</time></trkpt>
        <trkpt lat="28.819191" lon="105.313128"><ele>366.17044</ele><time>2026-04-29T19:03:49.000Z</time></trkpt>
        <trkpt lat="28.819183" lon="105.31306"><ele>366.03384</ele><time>2026-04-29T19:03:52.000Z</time></trkpt>
        <trkpt lat="28.819178" lon="105.31299"><ele>364.8031</ele><time>2026-04-29T19:03:55.000Z</time></trkpt>
        <trkpt lat="28.819179" lon="105.312933"><ele>364.6588</ele><time>2026-04-29T19:03:57.000Z</time></trkpt>
        <trkpt lat="28.819173" lon="105.312871"><ele>364.77344</ele><time>2026-04-29T19:04:00.000Z</time></trkpt>
        <trkpt lat="28.81917" lon="105.312814"><ele>365.156</ele><time>2026-04-29T19:04:02.000Z</time></trkpt>
        <trkpt lat="28.819165" lon="105.312763"><ele>365.3613</ele><time>2026-04-29T19:04:04.000Z</time></trkpt>
        <trkpt lat="28.819161" lon="105.312709"><ele>365.59326</ele><time>2026-04-29T19:04:06.000Z</time></trkpt>
        <trkpt lat="28.819148" lon="105.312635"><ele>366.2181</ele><time>2026-04-29T19:04:09.000Z</time></trkpt>
        <trkpt lat="28.819141" lon="105.312581"><ele>365.71384</ele><time>2026-04-29T19:04:11.000Z</time></trkpt>
        <trkpt lat="28.819123" lon="105.312504"><ele>366.98645</ele><time>2026-04-29T19:04:14.000Z</time></trkpt>
        <trkpt lat="28.819108" lon="105.312424"><ele>367.5322</ele><time>2026-04-29T19:04:17.000Z</time></trkpt>
        <trkpt lat="28.819104" lon="105.312351"><ele>367.86807</ele><time>2026-04-29T19:04:20.000Z</time></trkpt>
        <trkpt lat="28.819098" lon="105.312272"><ele>368.91745</ele><time>2026-04-29T19:04:23.000Z</time></trkpt>
        <trkpt lat="28.819073" lon="105.312209"><ele>368.87088</ele><time>2026-04-29T19:04:26.000Z</time></trkpt>
        <trkpt lat="28.819073" lon="105.312141"><ele>369.0023</ele><time>2026-04-29T19:04:29.000Z</time></trkpt>
        <trkpt lat="28.819053" lon="105.31207"><ele>369.3923</ele><time>2026-04-29T19:04:32.000Z</time></trkpt>
        <trkpt lat="28.819035" lon="105.312023"><ele>368.05798</ele><time>2026-04-29T19:04:34.000Z</time></trkpt>
        <trkpt lat="28.81902" lon="105.311952"><ele>368.1833</ele><time>2026-04-29T19:04:37.000Z</time></trkpt>
        <trkpt lat="28.819026" lon="105.311884"><ele>367.96143</ele><time>2026-04-29T19:04:40.000Z</time></trkpt>
        <trkpt lat="28.819017" lon="105.311834"><ele>368.22192</ele><time>2026-04-29T19:04:42.000Z</time></trkpt>
        <trkpt lat="28.819007" lon="105.311776"><ele>367.60934</ele><time>2026-04-29T19:04:44.000Z</time></trkpt>
        <trkpt lat="28.818991" lon="105.311701"><ele>367.83875</ele><time>2026-04-29T19:04:47.000Z</time></trkpt>
        <trkpt lat="28.819005" lon="105.311651"><ele>367.94263</ele><time>2026-04-29T19:04:49.000Z</time></trkpt>
        <trkpt lat="28.819003" lon="105.311594"><ele>367.9368</ele><time>2026-04-29T19:04:51.000Z</time></trkpt>
        <trkpt lat="28.819025" lon="105.311546"><ele>367.47336</ele><time>2026-04-29T19:04:53.000Z</time></trkpt>
        <trkpt lat="28.819049" lon="105.311493"><ele>366.95032</ele><time>2026-04-29T19:04:55.000Z</time></trkpt>
        <trkpt lat="28.819068" lon="105.31142"><ele>367.66318</ele><time>2026-04-29T19:04:58.000Z</time></trkpt>
        <trkpt lat="28.819083" lon="105.311345"><ele>368.28546</ele><time>2026-04-29T19:05:01.000Z</time></trkpt>
        <trkpt lat="28.819092" lon="105.311268"><ele>368.45972</ele><time>2026-04-29T19:05:04.000Z</time></trkpt>
        <trkpt lat="28.819093" lon="105.311216"><ele>369.31085</ele><time>2026-04-29T19:05:06.000Z</time></trkpt>
        <trkpt lat="28.819095" lon="105.311136"><ele>369.9078</ele><time>2026-04-29T19:05:09.000Z</time></trkpt>
        <trkpt lat="28.819096" lon="105.311052"><ele>370.49506</ele><time>2026-04-29T19:05:12.000Z</time></trkpt>
        <trkpt lat="28.819101" lon="105.310997"><ele>370.81006</ele><time>2026-04-29T19:05:14.000Z</time></trkpt>
        <trkpt lat="28.819088" lon="105.310945"><ele>370.87302</ele><time>2026-04-29T19:05:16.000Z</time></trkpt>
        <trkpt lat="28.819094" lon="105.310893"><ele>370.4929</ele><time>2026-04-29T19:05:18.000Z</time></trkpt>
        <trkpt lat="28.819098" lon="105.31082"><ele>370.13416</ele><time>2026-04-29T19:05:20.000Z</time></trkpt>
        <trkpt lat="28.819092" lon="105.31076"><ele>370.99127</ele><time>2026-04-29T19:05:22.000Z</time></trkpt>
        <trkpt lat="28.819085" lon="105.310699"><ele>371.0408</ele><time>2026-04-29T19:05:24.000Z</time></trkpt>
        <trkpt lat="28.819082" lon="105.310637"><ele>372.65686</ele><time>2026-04-29T19:05:26.000Z</time></trkpt>
        <trkpt lat="28.819055" lon="105.310559"><ele>371.49313</ele><time>2026-04-29T19:05:29.000Z</time></trkpt>
        <trkpt lat="28.819031" lon="105.310501"><ele>372.08655</ele><time>2026-04-29T19:05:31.000Z</time></trkpt>
        <trkpt lat="28.81902" lon="105.310442"><ele>372.8252</ele><time>2026-04-29T19:05:33.000Z</time></trkpt>
        <trkpt lat="28.819013" lon="105.310373"><ele>372.71146</ele><time>2026-04-29T19:05:35.000Z</time></trkpt>
        <trkpt lat="28.819007" lon="105.310311"><ele>372.0044</ele><time>2026-04-29T19:05:37.000Z</time></trkpt>
        <trkpt lat="28.818986" lon="105.31026"><ele>371.90225</ele><time>2026-04-29T19:05:39.000Z</time></trkpt>
        <trkpt lat="28.818974" lon="105.310194"><ele>371.86768</ele><time>2026-04-29T19:05:41.000Z</time></trkpt>
        <trkpt lat="28.818957" lon="105.310145"><ele>371.74722</ele><time>2026-04-29T19:05:43.000Z</time></trkpt>
        <trkpt lat="28.818931" lon="105.31008"><ele>371.30582</ele><time>2026-04-29T19:05:45.000Z</time></trkpt>
        <trkpt lat="28.818905" lon="105.310003"><ele>370.37384</ele><time>2026-04-29T19:05:48.000Z</time></trkpt>
        <trkpt lat="28.818889" lon="105.309934"><ele>371.35065</ele><time>2026-04-29T19:05:50.000Z</time></trkpt>
        <trkpt lat="28.81887" lon="105.309874"><ele>371.15143</ele><time>2026-04-29T19:05:52.000Z</time></trkpt>
        <trkpt lat="28.818849" lon="105.309823"><ele>372.16412</ele><time>2026-04-29T19:05:54.000Z</time></trkpt>
        <trkpt lat="28.818833" lon="105.30976"><ele>371.69528</ele><time>2026-04-29T19:05:56.000Z</time></trkpt>
        <trkpt lat="28.818819" lon="105.309696"><ele>372.33517</ele><time>2026-04-29T19:05:58.000Z</time></trkpt>
        <trkpt lat="28.818809" lon="105.30964"><ele>373.37903</ele><time>2026-04-29T19:06:00.000Z</time></trkpt>
        <trkpt lat="28.818792" lon="105.309586"><ele>372.64664</ele><time>2026-04-29T19:06:02.000Z</time></trkpt>
        <trkpt lat="28.818797" lon="105.309534"><ele>374.4061</ele><time>2026-04-29T19:06:09.000Z</time></trkpt>
        <trkpt lat="28.818837" lon="105.309505"><ele>376.87238</ele><time>2026-04-29T19:06:15.000Z</time></trkpt>
        <trkpt lat="28.818886" lon="105.309524"><ele>378.55862</ele><time>2026-04-29T19:06:26.000Z</time></trkpt>
        <trkpt lat="28.818932" lon="105.309488"><ele>379.7702</ele><time>2026-04-29T19:06:32.000Z</time></trkpt>
        <trkpt lat="28.818971" lon="105.309453"><ele>381.57916</ele><time>2026-04-29T19:06:41.000Z</time></trkpt>
        <trkpt lat="28.818989" lon="105.309399"><ele>382.2743</ele><time>2026-04-29T19:06:47.000Z</time></trkpt>
        <trkpt lat="28.818954" lon="105.309352"><ele>380.62946</ele><time>2026-04-29T19:06:50.000Z</time></trkpt>
        <trkpt lat="28.81893" lon="105.309302"><ele>379.7604</ele><time>2026-04-29T19:06:53.000Z</time></trkpt>
        <trkpt lat="28.818923" lon="105.309233"><ele>378.3295</ele><time>2026-04-29T19:06:57.000Z</time></trkpt>
        <trkpt lat="28.818925" lon="105.309173"><ele>378.22067</ele><time>2026-04-29T19:07:00.000Z</time></trkpt>
        <trkpt lat="28.818954" lon="105.30911"><ele>378.6658</ele><time>2026-04-29T19:07:03.000Z</time></trkpt>
        <trkpt lat="28.818946" lon="105.30903"><ele>379.4623</ele><time>2026-04-29T19:07:06.000Z</time></trkpt>
        <trkpt lat="28.818951" lon="105.308958"><ele>380.2802</ele><time>2026-04-29T19:07:08.000Z</time></trkpt>
        <trkpt lat="28.818971" lon="105.308882"><ele>380.55914</ele><time>2026-04-29T19:07:11.000Z</time></trkpt>
        <trkpt lat="28.818928" lon="105.308813"><ele>381.3164</ele><time>2026-04-29T19:07:13.000Z</time></trkpt>
        <trkpt lat="28.818917" lon="105.308736"><ele>380.57614</ele><time>2026-04-29T19:07:16.000Z</time></trkpt>
        <trkpt lat="28.818914" lon="105.308681"><ele>380.08792</ele><time>2026-04-29T19:07:18.000Z</time></trkpt>
        <trkpt lat="28.818922" lon="105.308623"><ele>380.70917</ele><time>2026-04-29T19:07:20.000Z</time></trkpt>
        <trkpt lat="28.818915" lon="105.308566"><ele>379.99585</ele><time>2026-04-29T19:07:22.000Z</time></trkpt>
        <trkpt lat="28.818911" lon="105.308513"><ele>380.29053</ele><time>2026-04-29T19:07:24.000Z</time></trkpt>
        <trkpt lat="28.818939" lon="105.30847"><ele>380.02438</ele><time>2026-04-29T19:07:26.000Z</time></trkpt>
        <trkpt lat="28.818979" lon="105.308428"><ele>379.57162</ele><time>2026-04-29T19:07:28.000Z</time></trkpt>
        <trkpt lat="28.81903" lon="105.308388"><ele>378.88348</ele><time>2026-04-29T19:07:31.000Z</time></trkpt>
        <trkpt lat="28.819049" lon="105.30833"><ele>380.39914</ele><time>2026-04-29T19:07:33.000Z</time></trkpt>
        <trkpt lat="28.819055" lon="105.308261"><ele>381.46375</ele><time>2026-04-29T19:07:36.000Z</time></trkpt>
        <trkpt lat="28.819033" lon="105.308189"><ele>383.80634</ele><time>2026-04-29T19:07:39.000Z</time></trkpt>
        <trkpt lat="28.819024" lon="105.308134"><ele>383.56808</ele><time>2026-04-29T19:07:41.000Z</time></trkpt>
        <trkpt lat="28.818986" lon="105.308081"><ele>383.94324</ele><time>2026-04-29T19:07:43.000Z</time></trkpt>
        <trkpt lat="28.818966" lon="105.30803"><ele>385.7101</ele><time>2026-04-29T19:07:50.000Z</time></trkpt>
        <trkpt lat="28.81899" lon="105.307981"><ele>386.861</ele><time>2026-04-29T19:07:57.000Z</time></trkpt>
        <trkpt lat="28.819024" lon="105.307934"><ele>388.5942</ele><time>2026-04-29T19:08:02.000Z</time></trkpt>
        <trkpt lat="28.819061" lon="105.307899"><ele>389.96442</ele><time>2026-04-29T19:08:06.000Z</time></trkpt>
        <trkpt lat="28.819042" lon="105.307838"><ele>393.11856</ele><time>2026-04-29T19:08:15.000Z</time></trkpt>
        <trkpt lat="28.819018" lon="105.307794"><ele>392.7349</ele><time>2026-04-29T19:08:19.000Z</time></trkpt>
        <trkpt lat="28.818998" lon="105.30774"><ele>392.57684</ele><time>2026-04-29T19:08:24.000Z</time></trkpt>
        <trkpt lat="28.818981" lon="105.307686"><ele>395.7294</ele><time>2026-04-29T19:08:30.000Z</time></trkpt>
        <trkpt lat="28.818955" lon="105.307642"><ele>397.42493</ele><time>2026-04-29T19:08:37.000Z</time></trkpt>
        <trkpt lat="28.818943" lon="105.307588"><ele>398.59653</ele><time>2026-04-29T19:08:48.000Z</time></trkpt>
        <trkpt lat="28.818936" lon="105.307533"><ele>401.64227</ele><time>2026-04-29T19:08:54.000Z</time></trkpt>
        <trkpt lat="28.818924" lon="105.307477"><ele>403.09988</ele><time>2026-04-29T19:09:03.000Z</time></trkpt>
        <trkpt lat="28.818929" lon="105.307423"><ele>405.8864</ele><time>2026-04-29T19:09:10.000Z</time></trkpt>
        <trkpt lat="28.8189" lon="105.307381"><ele>407.03644</ele><time>2026-04-29T19:09:18.000Z</time></trkpt>
        <trkpt lat="28.818867" lon="105.307341"><ele>410.0179</ele><time>2026-04-29T19:09:30.000Z</time></trkpt>
        <trkpt lat="28.818828" lon="105.307315"><ele>410.26523</ele><time>2026-04-29T19:09:38.000Z</time></trkpt>
        <trkpt lat="28.818793" lon="105.307276"><ele>410.7019</ele><time>2026-04-29T19:09:44.000Z</time></trkpt>
        <trkpt lat="28.818757" lon="105.307238"><ele>409.66376</ele><time>2026-04-29T19:09:52.000Z</time></trkpt>
        <trkpt lat="28.818749" lon="105.307182"><ele>410.5996</ele><time>2026-04-29T19:10:00.000Z</time></trkpt>
        <trkpt lat="28.818771" lon="105.307133"><ele>411.43655</ele><time>2026-04-29T19:10:08.000Z</time></trkpt>
        <trkpt lat="28.818792" lon="105.307078"><ele>412.3579</ele><time>2026-04-29T19:10:18.000Z</time></trkpt>
        <trkpt lat="28.818827" lon="105.307029"><ele>413.3299</ele><time>2026-04-29T19:10:26.000Z</time></trkpt>
        <trkpt lat="28.818826" lon="105.306967"><ele>414.7355</ele><time>2026-04-29T19:10:36.000Z</time></trkpt>
        <trkpt lat="28.818814" lon="105.306909"><ele>416.0772</ele><time>2026-04-29T19:10:42.000Z</time></trkpt>
        <trkpt lat="28.818823" lon="105.306853"><ele>416.07925</ele><time>2026-04-29T19:10:50.000Z</time></trkpt>
        <trkpt lat="28.818834" lon="105.306793"><ele>416.84756</ele><time>2026-04-29T19:10:58.000Z</time></trkpt>
        <trkpt lat="28.818835" lon="105.306727"><ele>417.88828</ele><time>2026-04-29T19:11:04.000Z</time></trkpt>
        <trkpt lat="28.818838" lon="105.306671"><ele>419.07455</ele><time>2026-04-29T19:11:09.000Z</time></trkpt>
        <trkpt lat="28.818861" lon="105.30662"><ele>420.2176</ele><time>2026-04-29T19:11:18.000Z</time></trkpt>
        <trkpt lat="28.81885" lon="105.30657"><ele>421.7553</ele><time>2026-04-29T19:11:25.000Z</time></trkpt>
        <trkpt lat="28.818853" lon="105.306516"><ele>422.3593</ele><time>2026-04-29T19:11:33.000Z</time></trkpt>
        <trkpt lat="28.818859" lon="105.306463"><ele>422.7181</ele><time>2026-04-29T19:11:40.000Z</time></trkpt>
        <trkpt lat="28.818868" lon="105.306413"><ele>424.0772</ele><time>2026-04-29T19:11:48.000Z</time></trkpt>
        <trkpt lat="28.818857" lon="105.306358"><ele>424.9201</ele><time>2026-04-29T19:11:58.000Z</time></trkpt>
        <trkpt lat="28.81885" lon="105.306307"><ele>425.63687</ele><time>2026-04-29T19:12:05.000Z</time></trkpt>
        <trkpt lat="28.818863" lon="105.306253"><ele>426.27206</ele><time>2026-04-29T19:12:16.000Z</time></trkpt>
        <trkpt lat="28.818865" lon="105.306198"><ele>427.31268</ele><time>2026-04-29T19:12:23.000Z</time></trkpt>
        <trkpt lat="28.818853" lon="105.306147"><ele>428.29156</ele><time>2026-04-29T19:12:30.000Z</time></trkpt>
        <trkpt lat="28.818862" lon="105.306091"><ele>428.9272</ele><time>2026-04-29T19:12:42.000Z</time></trkpt>
        <trkpt lat="28.818874" lon="105.30604"><ele>429.26086</ele><time>2026-04-29T19:12:47.000Z</time></trkpt>
        <trkpt lat="28.818873" lon="105.305979"><ele>430.04605</ele><time>2026-04-29T19:12:53.000Z</time></trkpt>
        <trkpt lat="28.81886" lon="105.305923"><ele>431.0992</ele><time>2026-04-29T19:12:58.000Z</time></trkpt>
        <trkpt lat="28.818874" lon="105.305874"><ele>431.7891</ele><time>2026-04-29T19:13:03.000Z</time></trkpt>
        <trkpt lat="28.818833" lon="105.305826"><ele>432.36667</ele><time>2026-04-29T19:13:09.000Z</time></trkpt>
        <trkpt lat="28.818811" lon="105.305781"><ele>433.95865</ele><time>2026-04-29T19:13:16.000Z</time></trkpt>
        <trkpt lat="28.818772" lon="105.305735"><ele>436.10226</ele><time>2026-04-29T19:13:26.000Z</time></trkpt>
        <trkpt lat="28.818729" lon="105.305702"><ele>436.36844</ele><time>2026-04-29T19:13:33.000Z</time></trkpt>
        <trkpt lat="28.818709" lon="105.305656"><ele>435.2152</ele><time>2026-04-29T19:13:48.000Z</time></trkpt>
        <trkpt lat="28.818713" lon="105.3056"><ele>434.2733</ele><time>2026-04-29T19:14:48.000Z</time></trkpt>
        <trkpt lat="28.818703" lon="105.305536"><ele>436.45364</ele><time>2026-04-29T19:14:58.000Z</time></trkpt>
        <trkpt lat="28.818695" lon="105.305482"><ele>436.73285</ele><time>2026-04-29T19:15:03.000Z</time></trkpt>
        <trkpt lat="28.818673" lon="105.305417"><ele>436.46295</ele><time>2026-04-29T19:15:09.000Z</time></trkpt>
        <trkpt lat="28.818644" lon="105.305375"><ele>437.50467</ele><time>2026-04-29T19:15:14.000Z</time></trkpt>
        <trkpt lat="28.818633" lon="105.305323"><ele>437.10648</ele><time>2026-04-29T19:15:19.000Z</time></trkpt>
        <trkpt lat="28.818612" lon="105.305266"><ele>437.0605</ele><time>2026-04-29T19:15:25.000Z</time></trkpt>
        <trkpt lat="28.818588" lon="105.305214"><ele>436.8721</ele><time>2026-04-29T19:15:31.000Z</time></trkpt>
        <trkpt lat="28.818574" lon="105.30516"><ele>436.25983</ele><time>2026-04-29T19:15:35.000Z</time></trkpt>
        <trkpt lat="28.818559" lon="105.30511"><ele>436.87106</ele><time>2026-04-29T19:15:40.000Z</time></trkpt>
        <trkpt lat="28.818551" lon="105.305045"><ele>437.35406</ele><time>2026-04-29T19:15:44.000Z</time></trkpt>
        <trkpt lat="28.818546" lon="105.304988"><ele>439.46484</ele><time>2026-04-29T19:15:50.000Z</time></trkpt>
        <trkpt lat="28.818545" lon="105.304932"><ele>440.54672</ele><time>2026-04-29T19:15:56.000Z</time></trkpt>
        <trkpt lat="28.818558" lon="105.304869"><ele>440.95358</ele><time>2026-04-29T19:16:01.000Z</time></trkpt>
        <trkpt lat="28.818587" lon="105.304827"><ele>440.83102</ele><time>2026-04-29T19:16:06.000Z</time></trkpt>
        <trkpt lat="28.818579" lon="105.304769"><ele>440.9415</ele><time>2026-04-29T19:16:11.000Z</time></trkpt>
        <trkpt lat="28.818575" lon="105.304716"><ele>442.3956</ele><time>2026-04-29T19:16:17.000Z</time></trkpt>
        <trkpt lat="28.818576" lon="105.30466"><ele>441.69763</ele><time>2026-04-29T19:16:22.000Z</time></trkpt>
        <trkpt lat="28.818579" lon="105.304593"><ele>442.56726</ele><time>2026-04-29T19:16:27.000Z</time></trkpt>
        <trkpt lat="28.818603" lon="105.304542"><ele>442.1417</ele><time>2026-04-29T19:16:32.000Z</time></trkpt>
        <trkpt lat="28.818611" lon="105.304483"><ele>440.8219</ele><time>2026-04-29T19:16:37.000Z</time></trkpt>
        <trkpt lat="28.818634" lon="105.304426"><ele>440.64676</ele><time>2026-04-29T19:16:42.000Z</time></trkpt>
        <trkpt lat="28.818649" lon="105.304375"><ele>442.08176</ele><time>2026-04-29T19:16:48.000Z</time></trkpt>
        <trkpt lat="28.818678" lon="105.304321"><ele>442.84503</ele><time>2026-04-29T19:16:53.000Z</time></trkpt>
        <trkpt lat="28.818681" lon="105.30427"><ele>443.43027</ele><time>2026-04-29T19:16:56.000Z</time></trkpt>
        <trkpt lat="28.818713" lon="105.304223"><ele>443.70612</ele><time>2026-04-29T19:17:00.000Z</time></trkpt>
        <trkpt lat="28.818725" lon="105.304163"><ele>444.0662</ele><time>2026-04-29T19:17:05.000Z</time></trkpt>
        <trkpt lat="28.818748" lon="105.304112"><ele>443.83722</ele><time>2026-04-29T19:17:10.000Z</time></trkpt>
        <trkpt lat="28.818782" lon="105.304073"><ele>443.7722</ele><time>2026-04-29T19:17:14.000Z</time></trkpt>
        <trkpt lat="28.818806" lon="105.304028"><ele>444.28876</ele><time>2026-04-29T19:17:19.000Z</time></trkpt>
        <trkpt lat="28.818832" lon="105.303979"><ele>445.58795</ele><time>2026-04-29T19:17:25.000Z</time></trkpt>
        <trkpt lat="28.818865" lon="105.303937"><ele>447.66763</ele><time>2026-04-29T19:17:31.000Z</time></trkpt>
        <trkpt lat="28.818915" lon="105.303908"><ele>449.23746</ele><time>2026-04-29T19:17:37.000Z</time></trkpt>
        <trkpt lat="28.818954" lon="105.303882"><ele>450.29266</ele><time>2026-04-29T19:17:44.000Z</time></trkpt>
        <trkpt lat="28.818966" lon="105.303826"><ele>453.9062</ele><time>2026-04-29T19:17:51.000Z</time></trkpt>
        <trkpt lat="28.818989" lon="105.303772"><ele>455.32748</ele><time>2026-04-29T19:17:56.000Z</time></trkpt>
        <trkpt lat="28.81902" lon="105.303722"><ele>456.65408</ele><time>2026-04-29T19:18:02.000Z</time></trkpt>
        <trkpt lat="28.819043" lon="105.303674"><ele>457.38663</ele><time>2026-04-29T19:18:08.000Z</time></trkpt>
        <trkpt lat="28.819061" lon="105.303623"><ele>457.97562</ele><time>2026-04-29T19:18:13.000Z</time></trkpt>
        <trkpt lat="28.819069" lon="105.303572"><ele>458.52505</ele><time>2026-04-29T19:18:19.000Z</time></trkpt>
        <trkpt lat="28.819083" lon="105.303516"><ele>458.03384</ele><time>2026-04-29T19:18:24.000Z</time></trkpt>
        <trkpt lat="28.819095" lon="105.303463"><ele>458.3227</ele><time>2026-04-29T19:18:28.000Z</time></trkpt>
        <trkpt lat="28.819106" lon="105.30341"><ele>456.19315</ele><time>2026-04-29T19:18:37.000Z</time></trkpt>
        <trkpt lat="28.819097" lon="105.30335"><ele>455.95056</ele><time>2026-04-29T19:18:43.000Z</time></trkpt>
        <trkpt lat="28.819127" lon="105.303308"><ele>455.73032</ele><time>2026-04-29T19:18:49.000Z</time></trkpt>
        <trkpt lat="28.81914" lon="105.303257"><ele>454.4858</ele><time>2026-04-29T19:18:54.000Z</time></trkpt>
        <trkpt lat="28.81918" lon="105.30323"><ele>454.44843</ele><time>2026-04-29T19:19:00.000Z</time></trkpt>
        <trkpt lat="28.81921" lon="105.30319"><ele>455.16208</ele><time>2026-04-29T19:19:05.000Z</time></trkpt>
        <trkpt lat="28.81923" lon="105.303134"><ele>455.3537</ele><time>2026-04-29T19:19:10.000Z</time></trkpt>
        <trkpt lat="28.819252" lon="105.303083"><ele>455.6198</ele><time>2026-04-29T19:19:14.000Z</time></trkpt>
        <trkpt lat="28.819283" lon="105.303035"><ele>455.77982</ele><time>2026-04-29T19:19:19.000Z</time></trkpt>
        <trkpt lat="28.819303" lon="105.302983"><ele>455.6528</ele><time>2026-04-29T19:19:23.000Z</time></trkpt>
        <trkpt lat="28.819323" lon="105.302925"><ele>455.92322</ele><time>2026-04-29T19:19:28.000Z</time></trkpt>
        <trkpt lat="28.819331" lon="105.302873"><ele>456.37613</ele><time>2026-04-29T19:19:34.000Z</time></trkpt>
        <trkpt lat="28.81933" lon="105.302822"><ele>456.50378</ele><time>2026-04-29T19:19:40.000Z</time></trkpt>
        <trkpt lat="28.819336" lon="105.302768"><ele>457.80954</ele><time>2026-04-29T19:19:45.000Z</time></trkpt>
        <trkpt lat="28.819335" lon="105.302713"><ele>457.58948</ele><time>2026-04-29T19:19:50.000Z</time></trkpt>
        <trkpt lat="28.819338" lon="105.302655"><ele>456.25458</ele><time>2026-04-29T19:19:56.000Z</time></trkpt>
        <trkpt lat="28.819349" lon="105.302598"><ele>457.2852</ele><time>2026-04-29T19:20:00.000Z</time></trkpt>
        <trkpt lat="28.819353" lon="105.302545"><ele>457.89127</ele><time>2026-04-29T19:20:09.000Z</time></trkpt>
        <trkpt lat="28.819385" lon="105.302497"><ele>458.55566</ele><time>2026-04-29T19:20:20.000Z</time></trkpt>
        <trkpt lat="28.819426" lon="105.302463"><ele>460.5667</ele><time>2026-04-29T19:20:25.000Z</time></trkpt>
        <trkpt lat="28.819463" lon="105.302496"><ele>462.97888</ele><time>2026-04-29T19:20:31.000Z</time></trkpt>
        <trkpt lat="28.819518" lon="105.302507"><ele>466.56943</ele><time>2026-04-29T19:20:46.000Z</time></trkpt>
        <trkpt lat="28.81956" lon="105.302544"><ele>467.75095</ele><time>2026-04-29T19:20:51.000Z</time></trkpt>
        <trkpt lat="28.819599" lon="105.302581"><ele>470.0193</ele><time>2026-04-29T19:20:57.000Z</time></trkpt>
        <trkpt lat="28.819639" lon="105.302547"><ele>471.0584</ele><time>2026-04-29T19:21:08.000Z</time></trkpt>
        <trkpt lat="28.819614" lon="105.302494"><ele>473.2494</ele><time>2026-04-29T19:21:18.000Z</time></trkpt>
        <trkpt lat="28.819617" lon="105.302442"><ele>474.58136</ele><time>2026-04-29T19:21:30.000Z</time></trkpt>
        <trkpt lat="28.819658" lon="105.302463"><ele>474.98328</ele><time>2026-04-29T19:21:36.000Z</time></trkpt>
        <trkpt lat="28.819669" lon="105.302408"><ele>475.78134</ele><time>2026-04-29T19:21:50.000Z</time></trkpt>
        <trkpt lat="28.819704" lon="105.30237"><ele>478.66156</ele><time>2026-04-29T19:22:04.000Z</time></trkpt>
        <trkpt lat="28.819755" lon="105.302362"><ele>479.96906</ele><time>2026-04-29T19:22:17.000Z</time></trkpt>
        <trkpt lat="28.819804" lon="105.302364"><ele>482.1845</ele><time>2026-04-29T19:22:23.000Z</time></trkpt>
        <trkpt lat="28.81983" lon="105.302318"><ele>483.11108</ele><time>2026-04-29T19:22:33.000Z</time></trkpt>
        <trkpt lat="28.81988" lon="105.302298"><ele>485.06708</ele><time>2026-04-29T19:22:40.000Z</time></trkpt>
        <trkpt lat="28.819911" lon="105.302257"><ele>487.76437</ele><time>2026-04-29T19:22:46.000Z</time></trkpt>
        <trkpt lat="28.819913" lon="105.302197"><ele>490.697</ele><time>2026-04-29T19:22:50.000Z</time></trkpt>
        <trkpt lat="28.819936" lon="105.302148"><ele>491.2543</ele><time>2026-04-29T19:22:55.000Z</time></trkpt>
        <trkpt lat="28.819943" lon="105.302086"><ele>492.0237</ele><time>2026-04-29T19:23:00.000Z</time></trkpt>
        <trkpt lat="28.819956" lon="105.302036"><ele>492.44537</ele><time>2026-04-29T19:23:04.000Z</time></trkpt>
        <trkpt lat="28.819975" lon="105.301985"><ele>493.30264</ele><time>2026-04-29T19:23:09.000Z</time></trkpt>
        <trkpt lat="28.819994" lon="105.301929"><ele>493.5404</ele><time>2026-04-29T19:23:14.000Z</time></trkpt>
        <trkpt lat="28.820019" lon="105.301882"><ele>494.44354</ele><time>2026-04-29T19:23:18.000Z</time></trkpt>
        <trkpt lat="28.82004" lon="105.301835"><ele>496.3051</ele><time>2026-04-29T19:23:22.000Z</time></trkpt>
        <trkpt lat="28.82006" lon="105.301785"><ele>497.78058</ele><time>2026-04-29T19:23:29.000Z</time></trkpt>
        <trkpt lat="28.820082" lon="105.301735"><ele>498.85638</ele><time>2026-04-29T19:23:35.000Z</time></trkpt>
        <trkpt lat="28.820088" lon="105.301674"><ele>499.78754</ele><time>2026-04-29T19:23:41.000Z</time></trkpt>
        <trkpt lat="28.820071" lon="105.301623"><ele>499.68912</ele><time>2026-04-29T19:23:48.000Z</time></trkpt>
        <trkpt lat="28.820071" lon="105.301558"><ele>498.18643</ele><time>2026-04-29T19:23:55.000Z</time></trkpt>
        <trkpt lat="28.82006" lon="105.301508"><ele>498.49567</ele><time>2026-04-29T19:24:00.000Z</time></trkpt>
        <trkpt lat="28.820072" lon="105.301453"><ele>498.08496</ele><time>2026-04-29T19:24:05.000Z</time></trkpt>
        <trkpt lat="28.820083" lon="105.301398"><ele>497.78265</ele><time>2026-04-29T19:24:10.000Z</time></trkpt>
        <trkpt lat="28.820107" lon="105.301354"><ele>498.0111</ele><time>2026-04-29T19:24:14.000Z</time></trkpt>
        <trkpt lat="28.820114" lon="105.301297"><ele>500.57272</ele><time>2026-04-29T19:24:18.000Z</time></trkpt>
        <trkpt lat="28.820112" lon="105.301242"><ele>501.4919</ele><time>2026-04-29T19:24:24.000Z</time></trkpt>
        <trkpt lat="28.820131" lon="105.30119"><ele>501.2581</ele><time>2026-04-29T19:24:31.000Z</time></trkpt>
        <trkpt lat="28.820155" lon="105.301138"><ele>502.22183</ele><time>2026-04-29T19:24:39.000Z</time></trkpt>
        <trkpt lat="28.820184" lon="105.301097"><ele>503.18793</ele><time>2026-04-29T19:24:47.000Z</time></trkpt>
        <trkpt lat="28.820214" lon="105.301052"><ele>504.93158</ele><time>2026-04-29T19:24:52.000Z</time></trkpt>
        <trkpt lat="28.820243" lon="105.301"><ele>506.08014</ele><time>2026-04-29T19:24:57.000Z</time></trkpt>
        <trkpt lat="28.820251" lon="105.300948"><ele>506.78912</ele><time>2026-04-29T19:25:01.000Z</time></trkpt>
        <trkpt lat="28.820279" lon="105.300898"><ele>506.40695</ele><time>2026-04-29T19:25:06.000Z</time></trkpt>
        <trkpt lat="28.820298" lon="105.300847"><ele>505.703</ele><time>2026-04-29T19:25:13.000Z</time></trkpt>
        <trkpt lat="28.820306" lon="105.300795"><ele>506.10126</ele><time>2026-04-29T19:25:17.000Z</time></trkpt>
        <trkpt lat="28.820308" lon="105.300736"><ele>504.47882</ele><time>2026-04-29T19:25:22.000Z</time></trkpt>
        <trkpt lat="28.820319" lon="105.300679"><ele>503.73135</ele><time>2026-04-29T19:25:27.000Z</time></trkpt>
        <trkpt lat="28.820333" lon="105.300629"><ele>503.2741</ele><time>2026-04-29T19:25:31.000Z</time></trkpt>
        <trkpt lat="28.820359" lon="105.300577"><ele>502.9065</ele><time>2026-04-29T19:25:35.000Z</time></trkpt>
        <trkpt lat="28.820384" lon="105.300534"><ele>503.15222</ele><time>2026-04-29T19:25:38.000Z</time></trkpt>
        <trkpt lat="28.820402" lon="105.300486"><ele>503.08862</ele><time>2026-04-29T19:25:42.000Z</time></trkpt>
        <trkpt lat="28.82043" lon="105.300438"><ele>504.01517</ele><time>2026-04-29T19:25:46.000Z</time></trkpt>
        <trkpt lat="28.820455" lon="105.300385"><ele>504.20612</ele><time>2026-04-29T19:25:50.000Z</time></trkpt>
        <trkpt lat="28.820488" lon="105.30034"><ele>504.71512</ele><time>2026-04-29T19:25:54.000Z</time></trkpt>
        <trkpt lat="28.820495" lon="105.300276"><ele>505.6851</ele><time>2026-04-29T19:25:58.000Z</time></trkpt>
        <trkpt lat="28.820502" lon="105.300222"><ele>504.9678</ele><time>2026-04-29T19:26:03.000Z</time></trkpt>
        <trkpt lat="28.820506" lon="105.300162"><ele>505.61212</ele><time>2026-04-29T19:26:07.000Z</time></trkpt>
        <trkpt lat="28.82052" lon="105.300102"><ele>505.13474</ele><time>2026-04-29T19:26:11.000Z</time></trkpt>
        <trkpt lat="28.820509" lon="105.30004"><ele>505.54996</ele><time>2026-04-29T19:26:16.000Z</time></trkpt>
        <trkpt lat="28.820504" lon="105.299977"><ele>505.18488</ele><time>2026-04-29T19:26:21.000Z</time></trkpt>
        <trkpt lat="28.820518" lon="105.299926"><ele>505.37552</ele><time>2026-04-29T19:26:25.000Z</time></trkpt>
        <trkpt lat="28.820526" lon="105.299872"><ele>505.66006</ele><time>2026-04-29T19:26:29.000Z</time></trkpt>
        <trkpt lat="28.820542" lon="105.299812"><ele>506.44858</ele><time>2026-04-29T19:26:33.000Z</time></trkpt>
        <trkpt lat="28.820541" lon="105.299752"><ele>507.0265</ele><time>2026-04-29T19:26:37.000Z</time></trkpt>
        <trkpt lat="28.820544" lon="105.299697"><ele>507.45508</ele><time>2026-04-29T19:26:41.000Z</time></trkpt>
        <trkpt lat="28.820543" lon="105.299637"><ele>507.12366</ele><time>2026-04-29T19:26:45.000Z</time></trkpt>
        <trkpt lat="28.820542" lon="105.299581"><ele>507.14932</ele><time>2026-04-29T19:26:49.000Z</time></trkpt>
        <trkpt lat="28.820543" lon="105.299527"><ele>507.40485</ele><time>2026-04-29T19:26:53.000Z</time></trkpt>
        <trkpt lat="28.820537" lon="105.299475"><ele>506.64993</ele><time>2026-04-29T19:26:57.000Z</time></trkpt>
        <trkpt lat="28.820535" lon="105.299419"><ele>506.45242</ele><time>2026-04-29T19:27:02.000Z</time></trkpt>
        <trkpt lat="28.820538" lon="105.299354"><ele>507.0445</ele><time>2026-04-29T19:27:06.000Z</time></trkpt>
        <trkpt lat="28.820542" lon="105.299298"><ele>507.16318</ele><time>2026-04-29T19:27:10.000Z</time></trkpt>
        <trkpt lat="28.820536" lon="105.29924"><ele>508.0047</ele><time>2026-04-29T19:27:14.000Z</time></trkpt>
        <trkpt lat="28.820541" lon="105.299178"><ele>509.03122</ele><time>2026-04-29T19:27:18.000Z</time></trkpt>
        <trkpt lat="28.820549" lon="105.299125"><ele>510.14908</ele><time>2026-04-29T19:27:22.000Z</time></trkpt>
        <trkpt lat="28.820551" lon="105.299065"><ele>509.9989</ele><time>2026-04-29T19:27:27.000Z</time></trkpt>
        <trkpt lat="28.820556" lon="105.299011"><ele>510.3572</ele><time>2026-04-29T19:27:31.000Z</time></trkpt>
        <trkpt lat="28.82057" lon="105.298955"><ele>510.65213</ele><time>2026-04-29T19:27:35.000Z</time></trkpt>
        <trkpt lat="28.820602" lon="105.298904"><ele>511.90497</ele><time>2026-04-29T19:27:40.000Z</time></trkpt>
        <trkpt lat="28.820638" lon="105.298856"><ele>513.0506</ele><time>2026-04-29T19:27:44.000Z</time></trkpt>
        <trkpt lat="28.820669" lon="105.298818"><ele>513.1446</ele><time>2026-04-29T19:27:48.000Z</time></trkpt>
        <trkpt lat="28.82072" lon="105.2988"><ele>512.73236</ele><time>2026-04-29T19:27:53.000Z</time></trkpt>
        <trkpt lat="28.820766" lon="105.298769"><ele>512.83044</ele><time>2026-04-29T19:27:58.000Z</time></trkpt>
        <trkpt lat="28.82081" lon="105.298754"><ele>513.65314</ele><time>2026-04-29T19:28:02.000Z</time></trkpt>
        <trkpt lat="28.82086" lon="105.298742"><ele>514.02997</ele><time>2026-04-29T19:28:07.000Z</time></trkpt>
        <trkpt lat="28.82091" lon="105.298732"><ele>513.9241</ele><time>2026-04-29T19:28:11.000Z</time></trkpt>
        <trkpt lat="28.820961" lon="105.298713"><ele>513.3132</ele><time>2026-04-29T19:28:16.000Z</time></trkpt>
        <trkpt lat="28.821002" lon="105.298686"><ele>512.9111</ele><time>2026-04-29T19:28:20.000Z</time></trkpt>
        <trkpt lat="28.821042" lon="105.298655"><ele>512.9375</ele><time>2026-04-29T19:28:24.000Z</time></trkpt>
        <trkpt lat="28.821094" lon="105.298632"><ele>513.20087</ele><time>2026-04-29T19:28:29.000Z</time></trkpt>
        <trkpt lat="28.821132" lon="105.298596"><ele>514.1357</ele><time>2026-04-29T19:28:33.000Z</time></trkpt>
        <trkpt lat="28.821169" lon="105.298555"><ele>514.2713</ele><time>2026-04-29T19:28:37.000Z</time></trkpt>
        <trkpt lat="28.821208" lon="105.298527"><ele>515.56116</ele><time>2026-04-29T19:28:42.000Z</time></trkpt>
        <trkpt lat="28.821242" lon="105.298486"><ele>515.12427</ele><time>2026-04-29T19:28:46.000Z</time></trkpt>
        <trkpt lat="28.821264" lon="105.298429"><ele>516.8963</ele><time>2026-04-29T19:28:51.000Z</time></trkpt>
        <trkpt lat="28.821302" lon="105.298393"><ele>516.898</ele><time>2026-04-29T19:28:56.000Z</time></trkpt>
        <trkpt lat="28.821349" lon="105.298359"><ele>517.49536</ele><time>2026-04-29T19:29:01.000Z</time></trkpt>
        <trkpt lat="28.821403" lon="105.298333"><ele>518.35626</ele><time>2026-04-29T19:29:06.000Z</time></trkpt>
        <trkpt lat="28.821451" lon="105.298321"><ele>518.2154</ele><time>2026-04-29T19:29:10.000Z</time></trkpt>
        <trkpt lat="28.821498" lon="105.298323"><ele>517.7519</ele><time>2026-04-29T19:29:14.000Z</time></trkpt>
        <trkpt lat="28.821553" lon="105.298331"><ele>518.0266</ele><time>2026-04-29T19:29:19.000Z</time></trkpt>
        <trkpt lat="28.821602" lon="105.298364"><ele>518.7547</ele><time>2026-04-29T19:29:24.000Z</time></trkpt>
        <trkpt lat="28.821639" lon="105.298399"><ele>519.3223</ele><time>2026-04-29T19:29:30.000Z</time></trkpt>
        <trkpt lat="28.821658" lon="105.298462"><ele>519.1543</ele><time>2026-04-29T19:29:39.000Z</time></trkpt>
        <trkpt lat="28.821691" lon="105.298502"><ele>519.7075</ele><time>2026-04-29T19:29:43.000Z</time></trkpt>
        <trkpt lat="28.821722" lon="105.298541"><ele>521.2209</ele><time>2026-04-29T19:29:47.000Z</time></trkpt>
        <trkpt lat="28.821762" lon="105.298587"><ele>523.2572</ele><time>2026-04-29T19:29:52.000Z</time></trkpt>
        <trkpt lat="28.821801" lon="105.29863"><ele>523.3314</ele><time>2026-04-29T19:29:58.000Z</time></trkpt>
        <trkpt lat="28.821838" lon="105.298664"><ele>524.5605</ele><time>2026-04-29T19:30:03.000Z</time></trkpt>
        <trkpt lat="28.821877" lon="105.2987"><ele>525.16077</ele><time>2026-04-29T19:30:09.000Z</time></trkpt>
        <trkpt lat="28.821922" lon="105.298737"><ele>526.096</ele><time>2026-04-29T19:30:14.000Z</time></trkpt>
        <trkpt lat="28.821961" lon="105.298779"><ele>526.86945</ele><time>2026-04-29T19:30:19.000Z</time></trkpt>
        <trkpt lat="28.821994" lon="105.298815"><ele>527.1603</ele><time>2026-04-29T19:30:23.000Z</time></trkpt>
        <trkpt lat="28.822031" lon="105.298856"><ele>526.9406</ele><time>2026-04-29T19:30:28.000Z</time></trkpt>
        <trkpt lat="28.822072" lon="105.298886"><ele>527.41315</ele><time>2026-04-29T19:30:33.000Z</time></trkpt>
        <trkpt lat="28.822116" lon="105.298907"><ele>527.24835</ele><time>2026-04-29T19:30:36.000Z</time></trkpt>
        <trkpt lat="28.822159" lon="105.298936"><ele>527.25867</ele><time>2026-04-29T19:30:40.000Z</time></trkpt>
        <trkpt lat="28.822198" lon="105.298981"><ele>528.14014</ele><time>2026-04-29T19:30:45.000Z</time></trkpt>
        <trkpt lat="28.822243" lon="105.298998"><ele>529.46094</ele><time>2026-04-29T19:30:49.000Z</time></trkpt>
        <trkpt lat="28.822294" lon="105.299016"><ele>530.53455</ele><time>2026-04-29T19:30:53.000Z</time></trkpt>
        <trkpt lat="28.822346" lon="105.299022"><ele>530.9862</ele><time>2026-04-29T19:30:57.000Z</time></trkpt>
        <trkpt lat="28.822392" lon="105.299021"><ele>530.42725</ele><time>2026-04-29T19:31:01.000Z</time></trkpt>
        <trkpt lat="28.822445" lon="105.299041"><ele>530.31635</ele><time>2026-04-29T19:31:05.000Z</time></trkpt>
        <trkpt lat="28.82249" lon="105.299057"><ele>530.3435</ele><time>2026-04-29T19:31:10.000Z</time></trkpt>
        <trkpt lat="28.822533" lon="105.299034"><ele>528.6459</ele><time>2026-04-29T19:31:15.000Z</time></trkpt>
        <trkpt lat="28.822559" lon="105.298987"><ele>527.4573</ele><time>2026-04-29T19:31:19.000Z</time></trkpt>
        <trkpt lat="28.822582" lon="105.298942"><ele>523.38544</ele><time>2026-04-29T19:31:24.000Z</time></trkpt>
        <trkpt lat="28.822603" lon="105.298891"><ele>521.0359</ele><time>2026-04-29T19:31:28.000Z</time></trkpt>
        <trkpt lat="28.822623" lon="105.298844"><ele>518.90564</ele><time>2026-04-29T19:31:32.000Z</time></trkpt>
        <trkpt lat="28.822654" lon="105.298787"><ele>517.39923</ele><time>2026-04-29T19:31:36.000Z</time></trkpt>
        <trkpt lat="28.822675" lon="105.298727"><ele>516.031</ele><time>2026-04-29T19:31:40.000Z</time></trkpt>
        <trkpt lat="28.8227" lon="105.298677"><ele>515.2006</ele><time>2026-04-29T19:31:45.000Z</time></trkpt>
        <trkpt lat="28.822747" lon="105.298678"><ele>515.1517</ele><time>2026-04-29T19:31:50.000Z</time></trkpt>
        <trkpt lat="28.822734" lon="105.298737"><ele>514.2995</ele><time>2026-04-29T19:31:53.000Z</time></trkpt>
        <trkpt lat="28.82273" lon="105.298791"><ele>514.22424</ele><time>2026-04-29T19:31:56.000Z</time></trkpt>
        <trkpt lat="28.822744" lon="105.298848"><ele>514.42755</ele><time>2026-04-29T19:32:00.000Z</time></trkpt>
        <trkpt lat="28.822734" lon="105.298902"><ele>515.13275</ele><time>2026-04-29T19:32:04.000Z</time></trkpt>
        <trkpt lat="28.822725" lon="105.298966"><ele>515.11115</ele><time>2026-04-29T19:32:09.000Z</time></trkpt>
        <trkpt lat="28.822712" lon="105.299019"><ele>515.05634</ele><time>2026-04-29T19:32:13.000Z</time></trkpt>
        <trkpt lat="28.822702" lon="105.299081"><ele>515.83276</ele><time>2026-04-29T19:32:17.000Z</time></trkpt>
        <trkpt lat="28.82269" lon="105.299131"><ele>516.3495</ele><time>2026-04-29T19:32:20.000Z</time></trkpt>
        <trkpt lat="28.822718" lon="105.299187"><ele>516.45404</ele><time>2026-04-29T19:32:25.000Z</time></trkpt>
        <trkpt lat="28.822748" lon="105.299245"><ele>517.0051</ele><time>2026-04-29T19:32:29.000Z</time></trkpt>
        <trkpt lat="28.822791" lon="105.299272"><ele>517.0801</ele><time>2026-04-29T19:32:32.000Z</time></trkpt>
        <trkpt lat="28.822835" lon="105.299287"><ele>517.32806</ele><time>2026-04-29T19:32:35.000Z</time></trkpt>
        <trkpt lat="28.82288" lon="105.299289"><ele>517.22864</ele><time>2026-04-29T19:32:38.000Z</time></trkpt>
        <trkpt lat="28.822927" lon="105.299295"><ele>516.00244</ele><time>2026-04-29T19:32:42.000Z</time></trkpt>
        <trkpt lat="28.822972" lon="105.299325"><ele>514.7293</ele><time>2026-04-29T19:32:46.000Z</time></trkpt>
        <trkpt lat="28.823" lon="105.299384"><ele>513.36414</ele><time>2026-04-29T19:32:51.000Z</time></trkpt>
        <trkpt lat="28.823009" lon="105.29944"><ele>513.10236</ele><time>2026-04-29T19:32:55.000Z</time></trkpt>
        <trkpt lat="28.823045" lon="105.299492"><ele>513.40137</ele><time>2026-04-29T19:32:59.000Z</time></trkpt>
        <trkpt lat="28.823089" lon="105.299521"><ele>512.927</ele><time>2026-04-29T19:33:03.000Z</time></trkpt>
        <trkpt lat="28.823133" lon="105.299555"><ele>512.06824</ele><time>2026-04-29T19:33:08.000Z</time></trkpt>
        <trkpt lat="28.823181" lon="105.299562"><ele>510.85648</ele><time>2026-04-29T19:33:13.000Z</time></trkpt>
        <trkpt lat="28.823226" lon="105.299566"><ele>509.449</ele><time>2026-04-29T19:33:17.000Z</time></trkpt>
        <trkpt lat="28.823269" lon="105.299585"><ele>507.84506</ele><time>2026-04-29T19:33:22.000Z</time></trkpt>
        <trkpt lat="28.823322" lon="105.299617"><ele>506.31793</ele><time>2026-04-29T19:33:26.000Z</time></trkpt>
        <trkpt lat="28.823371" lon="105.299647"><ele>505.80063</ele><time>2026-04-29T19:33:29.000Z</time></trkpt>
        <trkpt lat="28.823403" lon="105.299702"><ele>504.68478</ele><time>2026-04-29T19:33:33.000Z</time></trkpt>
        <trkpt lat="28.823439" lon="105.299737"><ele>504.03012</ele><time>2026-04-29T19:33:36.000Z</time></trkpt>
        <trkpt lat="28.823476" lon="105.29979"><ele>502.4515</ele><time>2026-04-29T19:33:40.000Z</time></trkpt>
        <trkpt lat="28.823505" lon="105.299833"><ele>502.15894</ele><time>2026-04-29T19:33:43.000Z</time></trkpt>
        <trkpt lat="28.823535" lon="105.299887"><ele>501.68588</ele><time>2026-04-29T19:33:47.000Z</time></trkpt>
        <trkpt lat="28.823571" lon="105.299923"><ele>501.17078</ele><time>2026-04-29T19:33:50.000Z</time></trkpt>
        <trkpt lat="28.823611" lon="105.299949"><ele>500.13242</ele><time>2026-04-29T19:33:53.000Z</time></trkpt>
        <trkpt lat="28.82366" lon="105.299986"><ele>499.05304</ele><time>2026-04-29T19:33:56.000Z</time></trkpt>
        <trkpt lat="28.823704" lon="105.299999"><ele>498.80438</ele><time>2026-04-29T19:33:58.000Z</time></trkpt>
        <trkpt lat="28.823746" lon="105.300025"><ele>498.73978</ele><time>2026-04-29T19:34:01.000Z</time></trkpt>
        <trkpt lat="28.823798" lon="105.30004"><ele>498.47583</ele><time>2026-04-29T19:34:04.000Z</time></trkpt>
        <trkpt lat="28.823843" lon="105.300065"><ele>497.90927</ele><time>2026-04-29T19:34:09.000Z</time></trkpt>
        <trkpt lat="28.823895" lon="105.300059"><ele>498.21945</ele><time>2026-04-29T19:34:13.000Z</time></trkpt>
        <trkpt lat="28.823936" lon="105.300031"><ele>497.84488</ele><time>2026-04-29T19:34:16.000Z</time></trkpt>
        <trkpt lat="28.823988" lon="105.300014"><ele>498.86313</ele><time>2026-04-29T19:34:20.000Z</time></trkpt>
        <trkpt lat="28.824027" lon="105.299985"><ele>499.8552</ele><time>2026-04-29T19:34:27.000Z</time></trkpt>
        <trkpt lat="28.824073" lon="105.29996"><ele>500.68933</ele><time>2026-04-29T19:34:32.000Z</time></trkpt>
        <trkpt lat="28.824118" lon="105.299921"><ele>500.8575</ele><time>2026-04-29T19:34:37.000Z</time></trkpt>
        <trkpt lat="28.824147" lon="105.29988"><ele>501.60156</ele><time>2026-04-29T19:34:41.000Z</time></trkpt>
        <trkpt lat="28.824184" lon="105.299836"><ele>500.26315</ele><time>2026-04-29T19:34:51.000Z</time></trkpt>
        <trkpt lat="28.82422" lon="105.299802"><ele>499.7091</ele><time>2026-04-29T19:34:55.000Z</time></trkpt>
        <trkpt lat="28.824238" lon="105.299743"><ele>498.80093</ele><time>2026-04-29T19:35:00.000Z</time></trkpt>
        <trkpt lat="28.824274" lon="105.299698"><ele>498.13297</ele><time>2026-04-29T19:35:03.000Z</time></trkpt>
        <trkpt lat="28.824308" lon="105.299662"><ele>497.52625</ele><time>2026-04-29T19:35:05.000Z</time></trkpt>
        <trkpt lat="28.824347" lon="105.299613"><ele>499.16663</ele><time>2026-04-29T19:35:08.000Z</time></trkpt>
        <trkpt lat="28.824368" lon="105.299562"><ele>499.18207</ele><time>2026-04-29T19:35:10.000Z</time></trkpt>
        <trkpt lat="28.824389" lon="105.29951"><ele>499.37735</ele><time>2026-04-29T19:35:12.000Z</time></trkpt>
        <trkpt lat="28.824402" lon="105.299449"><ele>499.3262</ele><time>2026-04-29T19:35:15.000Z</time></trkpt>
        <trkpt lat="28.824432" lon="105.299392"><ele>499.31342</ele><time>2026-04-29T19:35:18.000Z</time></trkpt>
        <trkpt lat="28.824468" lon="105.299361"><ele>499.02893</ele><time>2026-04-29T19:35:20.000Z</time></trkpt>
        <trkpt lat="28.824524" lon="105.299322"><ele>499.56583</ele><time>2026-04-29T19:35:24.000Z</time></trkpt>
        <trkpt lat="28.824572" lon="105.299287"><ele>500.22513</ele><time>2026-04-29T19:35:27.000Z</time></trkpt>
        <trkpt lat="28.82461" lon="105.299246"><ele>500.83267</ele><time>2026-04-29T19:35:31.000Z</time></trkpt>
        <trkpt lat="28.824653" lon="105.299211"><ele>501.6758</ele><time>2026-04-29T19:35:35.000Z</time></trkpt>
        <trkpt lat="28.824683" lon="105.29917"><ele>502.19183</ele><time>2026-04-29T19:35:38.000Z</time></trkpt>
        <trkpt lat="28.824717" lon="105.299125"><ele>502.26767</ele><time>2026-04-29T19:35:41.000Z</time></trkpt>
        <trkpt lat="28.824755" lon="105.299073"><ele>502.3215</ele><time>2026-04-29T19:35:46.000Z</time></trkpt>
        <trkpt lat="28.824788" lon="105.299027"><ele>502.06256</ele><time>2026-04-29T19:35:51.000Z</time></trkpt>
        <trkpt lat="28.82483" lon="105.299003"><ele>501.06747</ele><time>2026-04-29T19:35:56.000Z</time></trkpt>
        <trkpt lat="28.824873" lon="105.29896"><ele>500.45593</ele><time>2026-04-29T19:36:03.000Z</time></trkpt>
        <trkpt lat="28.824923" lon="105.298947"><ele>499.8769</ele><time>2026-04-29T19:36:08.000Z</time></trkpt>
        <trkpt lat="28.824964" lon="105.298922"><ele>499.64603</ele><time>2026-04-29T19:36:12.000Z</time></trkpt>
        <trkpt lat="28.825007" lon="105.298896"><ele>498.36295</ele><time>2026-04-29T19:36:16.000Z</time></trkpt>
        <trkpt lat="28.825061" lon="105.298873"><ele>497.78778</ele><time>2026-04-29T19:36:20.000Z</time></trkpt>
        <trkpt lat="28.825106" lon="105.298867"><ele>496.54877</ele><time>2026-04-29T19:36:23.000Z</time></trkpt>
        <trkpt lat="28.825152" lon="105.298861"><ele>494.8838</ele><time>2026-04-29T19:36:27.000Z</time></trkpt>
        <trkpt lat="28.825198" lon="105.298876"><ele>493.87164</ele><time>2026-04-29T19:36:30.000Z</time></trkpt>
        <trkpt lat="28.825245" lon="105.298862"><ele>493.73053</ele><time>2026-04-29T19:36:33.000Z</time></trkpt>
        <trkpt lat="28.825302" lon="105.298852"><ele>493.08813</ele><time>2026-04-29T19:36:35.000Z</time></trkpt>
        <trkpt lat="28.825357" lon="105.298834"><ele>493.91824</ele><time>2026-04-29T19:36:39.000Z</time></trkpt>
        <trkpt lat="28.825404" lon="105.298838"><ele>494.12106</ele><time>2026-04-29T19:36:41.000Z</time></trkpt>
        <trkpt lat="28.825455" lon="105.298872"><ele>492.92947</ele><time>2026-04-29T19:36:44.000Z</time></trkpt>
        <trkpt lat="28.825518" lon="105.29886"><ele>493.2078</ele><time>2026-04-29T19:36:47.000Z</time></trkpt>
        <trkpt lat="28.825562" lon="105.298817"><ele>492.56564</ele><time>2026-04-29T19:36:50.000Z</time></trkpt>
        <trkpt lat="28.825605" lon="105.298783"><ele>491.9265</ele><time>2026-04-29T19:36:52.000Z</time></trkpt>
        <trkpt lat="28.825653" lon="105.298778"><ele>491.21957</ele><time>2026-04-29T19:36:54.000Z</time></trkpt>
        <trkpt lat="28.825723" lon="105.298783"><ele>488.71295</ele><time>2026-04-29T19:36:57.000Z</time></trkpt>
        <trkpt lat="28.825778" lon="105.298794"><ele>487.92313</ele><time>2026-04-29T19:37:00.000Z</time></trkpt>
        <trkpt lat="28.825804" lon="105.298843"><ele>488.00687</ele><time>2026-04-29T19:37:06.000Z</time></trkpt>
        <trkpt lat="28.825821" lon="105.298891"><ele>489.53003</ele><time>2026-04-29T19:37:14.000Z</time></trkpt>
        <trkpt lat="28.825849" lon="105.298938"><ele>492.31757</ele><time>2026-04-29T19:37:20.000Z</time></trkpt>
        <trkpt lat="28.825883" lon="105.298974"><ele>493.83386</ele><time>2026-04-29T19:37:24.000Z</time></trkpt>
        <trkpt lat="28.825922" lon="105.299003"><ele>495.08423</ele><time>2026-04-29T19:37:27.000Z</time></trkpt>
        <trkpt lat="28.825969" lon="105.299029"><ele>497.83844</ele><time>2026-04-29T19:37:30.000Z</time></trkpt>
        <trkpt lat="28.826017" lon="105.299044"><ele>499.0028</ele><time>2026-04-29T19:37:34.000Z</time></trkpt>
        <trkpt lat="28.826052" lon="105.298995"><ele>500.16318</ele><time>2026-04-29T19:37:39.000Z</time></trkpt>
        <trkpt lat="28.826081" lon="105.298954"><ele>499.34064</ele><time>2026-04-29T19:37:44.000Z</time></trkpt>
        <trkpt lat="28.826122" lon="105.298933"><ele>498.52545</ele><time>2026-04-29T19:37:50.000Z</time></trkpt>
        <trkpt lat="28.826178" lon="105.298915"><ele>497.87628</ele><time>2026-04-29T19:37:54.000Z</time></trkpt>
        <trkpt lat="28.826233" lon="105.298929"><ele>497.62006</ele><time>2026-04-29T19:37:58.000Z</time></trkpt>
        <trkpt lat="28.826279" lon="105.298946"><ele>497.9364</ele><time>2026-04-29T19:38:01.000Z</time></trkpt>
        <trkpt lat="28.826331" lon="105.298933"><ele>496.76553</ele><time>2026-04-29T19:38:04.000Z</time></trkpt>
        <trkpt lat="28.826385" lon="105.298926"><ele>496.92377</ele><time>2026-04-29T19:38:07.000Z</time></trkpt>
        <trkpt lat="28.826439" lon="105.298909"><ele>497.7883</ele><time>2026-04-29T19:38:12.000Z</time></trkpt>
        <trkpt lat="28.826487" lon="105.298889"><ele>497.36633</ele><time>2026-04-29T19:38:15.000Z</time></trkpt>
        <trkpt lat="28.826534" lon="105.298868"><ele>497.2259</ele><time>2026-04-29T19:38:19.000Z</time></trkpt>
        <trkpt lat="28.826591" lon="105.298852"><ele>498.41635</ele><time>2026-04-29T19:38:22.000Z</time></trkpt>
        <trkpt lat="28.826637" lon="105.298859"><ele>499.179</ele><time>2026-04-29T19:38:24.000Z</time></trkpt>
        <trkpt lat="28.826685" lon="105.298855"><ele>499.3585</ele><time>2026-04-29T19:38:27.000Z</time></trkpt>
        <trkpt lat="28.826715" lon="105.298815"><ele>498.7142</ele><time>2026-04-29T19:38:29.000Z</time></trkpt>
        <trkpt lat="28.826777" lon="105.298776"><ele>497.184</ele><time>2026-04-29T19:38:33.000Z</time></trkpt>
        <trkpt lat="28.826826" lon="105.298763"><ele>497.26987</ele><time>2026-04-29T19:38:35.000Z</time></trkpt>
        <trkpt lat="28.826881" lon="105.298766"><ele>497.63116</ele><time>2026-04-29T19:38:38.000Z</time></trkpt>
        <trkpt lat="28.826924" lon="105.298746"><ele>497.48325</ele><time>2026-04-29T19:38:40.000Z</time></trkpt>
        <trkpt lat="28.826988" lon="105.298763"><ele>495.77435</ele><time>2026-04-29T19:38:43.000Z</time></trkpt>
        <trkpt lat="28.827047" lon="105.298749"><ele>496.6518</ele><time>2026-04-29T19:38:46.000Z</time></trkpt>
        <trkpt lat="28.827093" lon="105.298754"><ele>495.2203</ele><time>2026-04-29T19:38:48.000Z</time></trkpt>
        <trkpt lat="28.827136" lon="105.298733"><ele>495.21588</ele><time>2026-04-29T19:38:50.000Z</time></trkpt>
        <trkpt lat="28.827198" lon="105.298738"><ele>494.64258</ele><time>2026-04-29T19:38:53.000Z</time></trkpt>
        <trkpt lat="28.827243" lon="105.298715"><ele>494.52002</ele><time>2026-04-29T19:38:55.000Z</time></trkpt>
        <trkpt lat="28.827292" lon="105.298754"><ele>496.81296</ele><time>2026-04-29T19:38:58.000Z</time></trkpt>
        <trkpt lat="28.827342" lon="105.298758"><ele>497.14365</ele><time>2026-04-29T19:39:01.000Z</time></trkpt>
        <trkpt lat="28.82739" lon="105.298715"><ele>495.46982</ele><time>2026-04-29T19:39:05.000Z</time></trkpt>
        <trkpt lat="28.827435" lon="105.298738"><ele>494.90735</ele><time>2026-04-29T19:39:07.000Z</time></trkpt>
        <trkpt lat="28.827483" lon="105.29872"><ele>493.9267</ele><time>2026-04-29T19:39:12.000Z</time></trkpt>
        <trkpt lat="28.827529" lon="105.298724"><ele>489.82684</ele><time>2026-04-29T19:39:22.000Z</time></trkpt>
        <trkpt lat="28.827566" lon="105.298754"><ele>488.29373</ele><time>2026-04-29T19:39:25.000Z</time></trkpt>
        <trkpt lat="28.82761" lon="105.298807"><ele>488.13947</ele><time>2026-04-29T19:39:28.000Z</time></trkpt>
        <trkpt lat="28.82766" lon="105.298853"><ele>489.54837</ele><time>2026-04-29T19:39:32.000Z</time></trkpt>
        <trkpt lat="28.827701" lon="105.298889"><ele>491.33514</ele><time>2026-04-29T19:39:36.000Z</time></trkpt>
        <trkpt lat="28.827745" lon="105.298931"><ele>492.33563</ele><time>2026-04-29T19:39:40.000Z</time></trkpt>
        <trkpt lat="28.827772" lon="105.298976"><ele>493.72165</ele><time>2026-04-29T19:39:44.000Z</time></trkpt>
        <trkpt lat="28.82781" lon="105.299026"><ele>494.76727</ele><time>2026-04-29T19:39:47.000Z</time></trkpt>
        <trkpt lat="28.827821" lon="105.299085"><ele>495.67725</ele><time>2026-04-29T19:39:50.000Z</time></trkpt>
        <trkpt lat="28.827833" lon="105.299135"><ele>495.18423</ele><time>2026-04-29T19:39:53.000Z</time></trkpt>
        <trkpt lat="28.827839" lon="105.29919"><ele>495.60092</ele><time>2026-04-29T19:39:55.000Z</time></trkpt>
        <trkpt lat="28.827868" lon="105.299237"><ele>496.42868</ele><time>2026-04-29T19:39:58.000Z</time></trkpt>
        <trkpt lat="28.827907" lon="105.299274"><ele>496.86795</ele><time>2026-04-29T19:40:02.000Z</time></trkpt>
        <trkpt lat="28.827936" lon="105.299322"><ele>495.77582</ele><time>2026-04-29T19:40:08.000Z</time></trkpt>
        <trkpt lat="28.827986" lon="105.299331"><ele>496.40823</ele><time>2026-04-29T19:40:11.000Z</time></trkpt>
        <trkpt lat="28.828041" lon="105.299344"><ele>495.67523</ele><time>2026-04-29T19:40:14.000Z</time></trkpt>
        <trkpt lat="28.82809" lon="105.299339"><ele>494.75912</ele><time>2026-04-29T19:40:17.000Z</time></trkpt>
        <trkpt lat="28.828136" lon="105.299331"><ele>496.10245</ele><time>2026-04-29T19:40:20.000Z</time></trkpt>
        <trkpt lat="28.828172" lon="105.299283"><ele>493.9036</ele><time>2026-04-29T19:40:41.000Z</time></trkpt>
        <trkpt lat="28.828202" lon="105.299236"><ele>493.18015</ele><time>2026-04-29T19:40:46.000Z</time></trkpt>
        <trkpt lat="28.82825" lon="105.2992"><ele>492.0165</ele><time>2026-04-29T19:40:51.000Z</time></trkpt>
        <trkpt lat="28.828286" lon="105.299164"><ele>490.5798</ele><time>2026-04-29T19:40:56.000Z</time></trkpt>
        <trkpt lat="28.828325" lon="105.299136"><ele>489.96207</ele><time>2026-04-29T19:40:59.000Z</time></trkpt>
        <trkpt lat="28.828375" lon="105.299118"><ele>488.4017</ele><time>2026-04-29T19:41:04.000Z</time></trkpt>
        <trkpt lat="28.828419" lon="105.299097"><ele>489.09186</ele><time>2026-04-29T19:41:10.000Z</time></trkpt>
        <trkpt lat="28.828443" lon="105.299043"><ele>489.53992</ele><time>2026-04-29T19:41:14.000Z</time></trkpt>
        <trkpt lat="28.828468" lon="105.298994"><ele>489.6179</ele><time>2026-04-29T19:41:18.000Z</time></trkpt>
        <trkpt lat="28.828508" lon="105.298944"><ele>489.66052</ele><time>2026-04-29T19:41:21.000Z</time></trkpt>
        <trkpt lat="28.828556" lon="105.298893"><ele>488.9657</ele><time>2026-04-29T19:41:25.000Z</time></trkpt>
        <trkpt lat="28.828593" lon="105.298854"><ele>488.93942</ele><time>2026-04-29T19:41:27.000Z</time></trkpt>
        <trkpt lat="28.82864" lon="105.298803"><ele>489.6631</ele><time>2026-04-29T19:41:30.000Z</time></trkpt>
        <trkpt lat="28.828667" lon="105.29874"><ele>488.74683</ele><time>2026-04-29T19:41:33.000Z</time></trkpt>
        <trkpt lat="28.828662" lon="105.298679"><ele>489.03177</ele><time>2026-04-29T19:41:35.000Z</time></trkpt>
        <trkpt lat="28.828681" lon="105.298619"><ele>487.45135</ele><time>2026-04-29T19:41:38.000Z</time></trkpt>
        <trkpt lat="28.82872" lon="105.298591"><ele>486.84277</ele><time>2026-04-29T19:41:40.000Z</time></trkpt>
        <trkpt lat="28.828784" lon="105.298568"><ele>485.6077</ele><time>2026-04-29T19:41:43.000Z</time></trkpt>
        <trkpt lat="28.82883" lon="105.29856"><ele>485.6689</ele><time>2026-04-29T19:41:45.000Z</time></trkpt>
        <trkpt lat="28.828872" lon="105.298608"><ele>486.45074</ele><time>2026-04-29T19:41:47.000Z</time></trkpt>
        <trkpt lat="28.828936" lon="105.298624"><ele>487.9158</ele><time>2026-04-29T19:41:50.000Z</time></trkpt>
        <trkpt lat="28.828997" lon="105.298633"><ele>489.98074</ele><time>2026-04-29T19:41:53.000Z</time></trkpt>
        <trkpt lat="28.829028" lon="105.298578"><ele>491.89984</ele><time>2026-04-29T19:41:55.000Z</time></trkpt>
        <trkpt lat="28.82906" lon="105.298515"><ele>491.50238</ele><time>2026-04-29T19:41:59.000Z</time></trkpt>
        <trkpt lat="28.829086" lon="105.298471"><ele>489.75137</ele><time>2026-04-29T19:42:02.000Z</time></trkpt>
        <trkpt lat="28.829078" lon="105.298404"><ele>489.1528</ele><time>2026-04-29T19:42:04.000Z</time></trkpt>
        <trkpt lat="28.829126" lon="105.298356"><ele>486.61703</ele><time>2026-04-29T19:42:07.000Z</time></trkpt>
        <trkpt lat="28.829154" lon="105.298303"><ele>486.00232</ele><time>2026-04-29T19:42:09.000Z</time></trkpt>
        <trkpt lat="28.829194" lon="105.298271"><ele>485.995</ele><time>2026-04-29T19:42:11.000Z</time></trkpt>
        <trkpt lat="28.829249" lon="105.298214"><ele>485.11322</ele><time>2026-04-29T19:42:14.000Z</time></trkpt>
        <trkpt lat="28.829287" lon="105.298174"><ele>485.5904</ele><time>2026-04-29T19:42:16.000Z</time></trkpt>
        <trkpt lat="28.829304" lon="105.298106"><ele>485.21896</ele><time>2026-04-29T19:42:19.000Z</time></trkpt>
        <trkpt lat="28.829302" lon="105.298049"><ele>484.56772</ele><time>2026-04-29T19:42:20.000Z</time></trkpt>
        <trkpt lat="28.829314" lon="105.297997"><ele>483.66824</ele><time>2026-04-29T19:42:22.000Z</time></trkpt>
        <trkpt lat="28.829333" lon="105.297943"><ele>483.33914</ele><time>2026-04-29T19:42:24.000Z</time></trkpt>
        <trkpt lat="28.829345" lon="105.297885"><ele>483.0046</ele><time>2026-04-29T19:42:26.000Z</time></trkpt>
        <trkpt lat="28.829383" lon="105.297841"><ele>482.0504</ele><time>2026-04-29T19:42:30.000Z</time></trkpt>
        <trkpt lat="28.829414" lon="105.297804"><ele>481.5523</ele><time>2026-04-29T19:42:35.000Z</time></trkpt>
        <trkpt lat="28.829446" lon="105.297754"><ele>480.73236</ele><time>2026-04-29T19:42:41.000Z</time></trkpt>
        <trkpt lat="28.829478" lon="105.297716"><ele>480.2307</ele><time>2026-04-29T19:42:46.000Z</time></trkpt>
        <trkpt lat="28.829517" lon="105.297688"><ele>480.52042</ele><time>2026-04-29T19:42:51.000Z</time></trkpt>
        <trkpt lat="28.829556" lon="105.297654"><ele>479.22095</ele><time>2026-04-29T19:42:55.000Z</time></trkpt>
        <trkpt lat="28.829578" lon="105.297595"><ele>478.09634</ele><time>2026-04-29T19:42:58.000Z</time></trkpt>
        <trkpt lat="28.829591" lon="105.297535"><ele>477.40186</ele><time>2026-04-29T19:43:00.000Z</time></trkpt>
        <trkpt lat="28.829622" lon="105.297496"><ele>476.8265</ele><time>2026-04-29T19:43:02.000Z</time></trkpt>
        <trkpt lat="28.829638" lon="105.297439"><ele>475.39597</ele><time>2026-04-29T19:43:04.000Z</time></trkpt>
        <trkpt lat="28.829637" lon="105.297351"><ele>476.14822</ele><time>2026-04-29T19:43:06.000Z</time></trkpt>
        <trkpt lat="28.829656" lon="105.297275"><ele>475.6917</ele><time>2026-04-29T19:43:09.000Z</time></trkpt>
        <trkpt lat="28.829675" lon="105.297221"><ele>474.5984</ele><time>2026-04-29T19:43:11.000Z</time></trkpt>
        <trkpt lat="28.829711" lon="105.297167"><ele>473.40942</ele><time>2026-04-29T19:43:14.000Z</time></trkpt>
        <trkpt lat="28.829741" lon="105.297113"><ele>471.45917</ele><time>2026-04-29T19:43:17.000Z</time></trkpt>
        <trkpt lat="28.829789" lon="105.297081"><ele>471.13257</ele><time>2026-04-29T19:43:20.000Z</time></trkpt>
        <trkpt lat="28.829816" lon="105.297012"><ele>469.86102</ele><time>2026-04-29T19:43:23.000Z</time></trkpt>
        <trkpt lat="28.829845" lon="105.296952"><ele>469.76993</ele><time>2026-04-29T19:43:25.000Z</time></trkpt>
        <trkpt lat="28.829873" lon="105.296897"><ele>469.36566</ele><time>2026-04-29T19:43:27.000Z</time></trkpt>
        <trkpt lat="28.829924" lon="105.296858"><ele>469.15942</ele><time>2026-04-29T19:43:29.000Z</time></trkpt>
        <trkpt lat="28.829974" lon="105.296856"><ele>467.53366</ele><time>2026-04-29T19:43:33.000Z</time></trkpt>
        <trkpt lat="28.829977" lon="105.296801"><ele>465.23364</ele><time>2026-04-29T19:43:38.000Z</time></trkpt>
        <trkpt lat="28.830008" lon="105.29676"><ele>464.95175</ele><time>2026-04-29T19:43:42.000Z</time></trkpt>
        <trkpt lat="28.830052" lon="105.29672"><ele>463.8761</ele><time>2026-04-29T19:43:47.000Z</time></trkpt>
        <trkpt lat="28.830091" lon="105.296666"><ele>464.2118</ele><time>2026-04-29T19:43:53.000Z</time></trkpt>
        <trkpt lat="28.830101" lon="105.296611"><ele>463.387</ele><time>2026-04-29T19:43:57.000Z</time></trkpt>
        <trkpt lat="28.830119" lon="105.296552"><ele>462.5267</ele><time>2026-04-29T19:44:02.000Z</time></trkpt>
        <trkpt lat="28.83013" lon="105.296492"><ele>460.8258</ele><time>2026-04-29T19:44:06.000Z</time></trkpt>
        <trkpt lat="28.830109" lon="105.296435"><ele>460.6938</ele><time>2026-04-29T19:44:10.000Z</time></trkpt>
        <trkpt lat="28.830109" lon="105.296381"><ele>457.07764</ele><time>2026-04-29T19:44:15.000Z</time></trkpt>
        <trkpt lat="28.830112" lon="105.296326"><ele>454.32864</ele><time>2026-04-29T19:44:20.000Z</time></trkpt>
        <trkpt lat="28.830131" lon="105.296269"><ele>452.8462</ele><time>2026-04-29T19:44:25.000Z</time></trkpt>
        <trkpt lat="28.830149" lon="105.296216"><ele>451.5072</ele><time>2026-04-29T19:44:29.000Z</time></trkpt>
        <trkpt lat="28.830174" lon="105.29616"><ele>451.61606</ele><time>2026-04-29T19:44:34.000Z</time></trkpt>
        <trkpt lat="28.830183" lon="105.296106"><ele>450.3481</ele><time>2026-04-29T19:44:39.000Z</time></trkpt>
        <trkpt lat="28.830195" lon="105.296045"><ele>449.37543</ele><time>2026-04-29T19:44:45.000Z</time></trkpt>
        <trkpt lat="28.830191" lon="105.295993"><ele>446.84232</ele><time>2026-04-29T19:44:50.000Z</time></trkpt>
        <trkpt lat="28.830209" lon="105.295939"><ele>444.54175</ele><time>2026-04-29T19:44:57.000Z</time></trkpt>
        <trkpt lat="28.830191" lon="105.295886"><ele>440.84045</ele><time>2026-04-29T19:45:03.000Z</time></trkpt>
        <trkpt lat="28.830179" lon="105.295828"><ele>438.58533</ele><time>2026-04-29T19:45:07.000Z</time></trkpt>
        <trkpt lat="28.830207" lon="105.295788"><ele>437.42886</ele><time>2026-04-29T19:45:11.000Z</time></trkpt>
        <trkpt lat="28.830234" lon="105.295735"><ele>436.7068</ele><time>2026-04-29T19:45:15.000Z</time></trkpt>
        <trkpt lat="28.830248" lon="105.295682"><ele>435.80356</ele><time>2026-04-29T19:45:18.000Z</time></trkpt>
        <trkpt lat="28.830247" lon="105.29562"><ele>434.11472</ele><time>2026-04-29T19:45:22.000Z</time></trkpt>
        <trkpt lat="28.830278" lon="105.29557"><ele>432.29</ele><time>2026-04-29T19:45:25.000Z</time></trkpt>
        <trkpt lat="28.830297" lon="105.295516"><ele>430.89142</ele><time>2026-04-29T19:45:28.000Z</time></trkpt>
        <trkpt lat="28.830298" lon="105.295447"><ele>430.07413</ele><time>2026-04-29T19:45:31.000Z</time></trkpt>
        <trkpt lat="28.830307" lon="105.295391"><ele>430.4597</ele><time>2026-04-29T19:45:34.000Z</time></trkpt>
        <trkpt lat="28.8303" lon="105.295337"><ele>428.75067</ele><time>2026-04-29T19:45:39.000Z</time></trkpt>
        <trkpt lat="28.830309" lon="105.295278"><ele>428.6754</ele><time>2026-04-29T19:45:43.000Z</time></trkpt>
        <trkpt lat="28.830343" lon="105.295242"><ele>427.41278</ele><time>2026-04-29T19:45:47.000Z</time></trkpt>
        <trkpt lat="28.830383" lon="105.295217"><ele>428.04358</ele><time>2026-04-29T19:45:51.000Z</time></trkpt>
        <trkpt lat="28.8304" lon="105.295166"><ele>427.38998</ele><time>2026-04-29T19:45:57.000Z</time></trkpt>
        <trkpt lat="28.830432" lon="105.295116"><ele>426.9384</ele><time>2026-04-29T19:46:01.000Z</time></trkpt>
        <trkpt lat="28.830475" lon="105.295088"><ele>426.48193</ele><time>2026-04-29T19:46:05.000Z</time></trkpt>
        <trkpt lat="28.830515" lon="105.295057"><ele>426.73944</ele><time>2026-04-29T19:46:10.000Z</time></trkpt>
        <trkpt lat="28.830552" lon="105.295024"><ele>427.0783</ele><time>2026-04-29T19:46:14.000Z</time></trkpt>
        <trkpt lat="28.830589" lon="105.294984"><ele>426.906</ele><time>2026-04-29T19:46:18.000Z</time></trkpt>
        <trkpt lat="28.830612" lon="105.294924"><ele>426.2108</ele><time>2026-04-29T19:46:23.000Z</time></trkpt>
        <trkpt lat="28.830636" lon="105.29487"><ele>423.63507</ele><time>2026-04-29T19:46:28.000Z</time></trkpt>
        <trkpt lat="28.830671" lon="105.294817"><ele>422.08374</ele><time>2026-04-29T19:46:32.000Z</time></trkpt>
        <trkpt lat="28.830728" lon="105.294822"><ele>420.55353</ele><time>2026-04-29T19:46:36.000Z</time></trkpt>
        <trkpt lat="28.830779" lon="105.29484"><ele>420.0374</ele><time>2026-04-29T19:46:41.000Z</time></trkpt>
        <trkpt lat="28.830785" lon="105.294788"><ele>419.29355</ele><time>2026-04-29T19:46:48.000Z</time></trkpt>
        <trkpt lat="28.830825" lon="105.294758"><ele>415.5298</ele><time>2026-04-29T19:47:00.000Z</time></trkpt>
        <trkpt lat="28.830865" lon="105.294732"><ele>413.49918</ele><time>2026-04-29T19:47:11.000Z</time></trkpt>
        <trkpt lat="28.830917" lon="105.294755"><ele>411.70053</ele><time>2026-04-29T19:47:19.000Z</time></trkpt>
        <trkpt lat="28.830958" lon="105.294799"><ele>412.1171</ele><time>2026-04-29T19:47:23.000Z</time></trkpt>
        <trkpt lat="28.831008" lon="105.294835"><ele>411.81116</ele><time>2026-04-29T19:47:28.000Z</time></trkpt>
        <trkpt lat="28.831062" lon="105.294838"><ele>414.4578</ele><time>2026-04-29T19:47:32.000Z</time></trkpt>
        <trkpt lat="28.831099" lon="105.294805"><ele>414.5119</ele><time>2026-04-29T19:47:35.000Z</time></trkpt>
        <trkpt lat="28.831137" lon="105.29477"><ele>412.9186</ele><time>2026-04-29T19:47:39.000Z</time></trkpt>
        <trkpt lat="28.831188" lon="105.294757"><ele>412.68936</ele><time>2026-04-29T19:47:43.000Z</time></trkpt>
        <trkpt lat="28.83123" lon="105.294716"><ele>411.82886</ele><time>2026-04-29T19:47:48.000Z</time></trkpt>
        <trkpt lat="28.831256" lon="105.29467"><ele>409.63</ele><time>2026-04-29T19:47:56.000Z</time></trkpt>
        <trkpt lat="28.831294" lon="105.294636"><ele>408.15927</ele><time>2026-04-29T19:48:01.000Z</time></trkpt>
        <trkpt lat="28.83134" lon="105.294622"><ele>407.16998</ele><time>2026-04-29T19:48:06.000Z</time></trkpt>
        <trkpt lat="28.831395" lon="105.294601"><ele>405.83688</ele><time>2026-04-29T19:48:11.000Z</time></trkpt>
        <trkpt lat="28.831448" lon="105.294582"><ele>405.47116</ele><time>2026-04-29T19:48:16.000Z</time></trkpt>
        <trkpt lat="28.831498" lon="105.294585"><ele>404.40344</ele><time>2026-04-29T19:48:21.000Z</time></trkpt>
        <trkpt lat="28.831549" lon="105.29457"><ele>404.2055</ele><time>2026-04-29T19:48:27.000Z</time></trkpt>
        <trkpt lat="28.831602" lon="105.29455"><ele>404.1956</ele><time>2026-04-29T19:48:32.000Z</time></trkpt>
        <trkpt lat="28.831662" lon="105.29455"><ele>402.86548</ele><time>2026-04-29T19:48:36.000Z</time></trkpt>
        <trkpt lat="28.831709" lon="105.294533"><ele>402.27298</ele><time>2026-04-29T19:48:38.000Z</time></trkpt>
        <trkpt lat="28.83176" lon="105.29454"><ele>401.20834</ele><time>2026-04-29T19:48:43.000Z</time></trkpt>
        <trkpt lat="28.831801" lon="105.29457"><ele>401.45483</ele><time>2026-04-29T19:48:48.000Z</time></trkpt>
        <trkpt lat="28.831847" lon="105.294579"><ele>401.33746</ele><time>2026-04-29T19:48:53.000Z</time></trkpt>
        <trkpt lat="28.83186" lon="105.294521"><ele>401.0199</ele><time>2026-04-29T19:49:02.000Z</time></trkpt>
        <trkpt lat="28.831899" lon="105.294488"><ele>398.1336</ele><time>2026-04-29T19:49:10.000Z</time></trkpt>
        <trkpt lat="28.831944" lon="105.294505"><ele>398.18878</ele><time>2026-04-29T19:49:16.000Z</time></trkpt>
        <trkpt lat="28.831985" lon="105.294544"><ele>398.85352</ele><time>2026-04-29T19:49:21.000Z</time></trkpt>
        <trkpt lat="28.83203" lon="105.294557"><ele>399.97476</ele><time>2026-04-29T19:49:25.000Z</time></trkpt>
        <trkpt lat="28.832075" lon="105.294593"><ele>401.822</ele><time>2026-04-29T19:49:31.000Z</time></trkpt>
        <trkpt lat="28.832128" lon="105.29461"><ele>402.90842</ele><time>2026-04-29T19:49:37.000Z</time></trkpt>
        <trkpt lat="28.832176" lon="105.294599"><ele>403.2689</ele><time>2026-04-29T19:49:42.000Z</time></trkpt>
        <trkpt lat="28.832228" lon="105.294603"><ele>404.092</ele><time>2026-04-29T19:49:46.000Z</time></trkpt>
        <trkpt lat="28.832275" lon="105.294589"><ele>404.35272</ele><time>2026-04-29T19:49:50.000Z</time></trkpt>
        <trkpt lat="28.832322" lon="105.294593"><ele>404.7551</ele><time>2026-04-29T19:49:54.000Z</time></trkpt>
        <trkpt lat="28.83238" lon="105.294596"><ele>404.1638</ele><time>2026-04-29T19:49:59.000Z</time></trkpt>
        <trkpt lat="28.832434" lon="105.294591"><ele>403.49313</ele><time>2026-04-29T19:50:04.000Z</time></trkpt>
        <trkpt lat="28.832485" lon="105.294583"><ele>402.28616</ele><time>2026-04-29T19:50:09.000Z</time></trkpt>
        <trkpt lat="28.832533" lon="105.294569"><ele>401.7357</ele><time>2026-04-29T19:50:15.000Z</time></trkpt>
        <trkpt lat="28.832558" lon="105.294524"><ele>400.53595</ele><time>2026-04-29T19:50:21.000Z</time></trkpt>
        <trkpt lat="28.832567" lon="105.294472"><ele>399.29517</ele><time>2026-04-29T19:50:27.000Z</time></trkpt>
        <trkpt lat="28.832583" lon="105.294421"><ele>398.90094</ele><time>2026-04-29T19:50:31.000Z</time></trkpt>
        <trkpt lat="28.832598" lon="105.294367"><ele>397.6102</ele><time>2026-04-29T19:50:36.000Z</time></trkpt>
        <trkpt lat="28.832605" lon="105.294312"><ele>395.82513</ele><time>2026-04-29T19:50:40.000Z</time></trkpt>
        <trkpt lat="28.832607" lon="105.294258"><ele>394.81747</ele><time>2026-04-29T19:50:44.000Z</time></trkpt>
        <trkpt lat="28.832589" lon="105.294208"><ele>393.5066</ele><time>2026-04-29T19:50:49.000Z</time></trkpt>
        <trkpt lat="28.832589" lon="105.294152"><ele>391.2179</ele><time>2026-04-29T19:50:55.000Z</time></trkpt>
        <trkpt lat="28.832611" lon="105.294103"><ele>389.80164</ele><time>2026-04-29T19:51:03.000Z</time></trkpt>
        <trkpt lat="28.83262" lon="105.294047"><ele>389.4565</ele><time>2026-04-29T19:51:09.000Z</time></trkpt>
        <trkpt lat="28.832605" lon="105.293993"><ele>387.943</ele><time>2026-04-29T19:51:15.000Z</time></trkpt>
        <trkpt lat="28.832591" lon="105.293938"><ele>387.01697</ele><time>2026-04-29T19:51:21.000Z</time></trkpt>
        <trkpt lat="28.832556" lon="105.29389"><ele>386.20105</ele><time>2026-04-29T19:51:25.000Z</time></trkpt>
        <trkpt lat="28.832541" lon="105.293838"><ele>385.1767</ele><time>2026-04-29T19:51:30.000Z</time></trkpt>
        <trkpt lat="28.832517" lon="105.293789"><ele>385.21875</ele><time>2026-04-29T19:51:35.000Z</time></trkpt>
        <trkpt lat="28.832507" lon="105.293735"><ele>384.1466</ele><time>2026-04-29T19:51:40.000Z</time></trkpt>
        <trkpt lat="28.832485" lon="105.293689"><ele>382.80234</ele><time>2026-04-29T19:51:45.000Z</time></trkpt>
        <trkpt lat="28.832466" lon="105.293633"><ele>381.15268</ele><time>2026-04-29T19:51:50.000Z</time></trkpt>
        <trkpt lat="28.832459" lon="105.293577"><ele>380.55273</ele><time>2026-04-29T19:51:55.000Z</time></trkpt>
        <trkpt lat="28.832461" lon="105.293515"><ele>380.77734</ele><time>2026-04-29T19:51:59.000Z</time></trkpt>
        <trkpt lat="28.832464" lon="105.293459"><ele>378.96964</ele><time>2026-04-29T19:52:04.000Z</time></trkpt>
        <trkpt lat="28.832477" lon="105.293399"><ele>379.61932</ele><time>2026-04-29T19:52:08.000Z</time></trkpt>
        <trkpt lat="28.832497" lon="105.293345"><ele>378.46432</ele><time>2026-04-29T19:52:13.000Z</time></trkpt>
        <trkpt lat="28.832523" lon="105.293294"><ele>377.36148</ele><time>2026-04-29T19:52:18.000Z</time></trkpt>
        <trkpt lat="28.832559" lon="105.293254"><ele>376.752</ele><time>2026-04-29T19:52:22.000Z</time></trkpt>
        <trkpt lat="28.832596" lon="105.293215"><ele>376.04666</ele><time>2026-04-29T19:52:26.000Z</time></trkpt>
        <trkpt lat="28.832637" lon="105.293186"><ele>374.1157</ele><time>2026-04-29T19:52:31.000Z</time></trkpt>
        <trkpt lat="28.832675" lon="105.293154"><ele>372.88977</ele><time>2026-04-29T19:52:36.000Z</time></trkpt>
        <trkpt lat="28.832719" lon="105.293139"><ele>372.3348</ele><time>2026-04-29T19:52:41.000Z</time></trkpt>
        <trkpt lat="28.832776" lon="105.293119"><ele>372.88464</ele><time>2026-04-29T19:52:45.000Z</time></trkpt>
        <trkpt lat="28.832817" lon="105.293094"><ele>372.07312</ele><time>2026-04-29T19:52:49.000Z</time></trkpt>
        <trkpt lat="28.832843" lon="105.293049"><ele>371.6155</ele><time>2026-04-29T19:52:53.000Z</time></trkpt>
        <trkpt lat="28.832844" lon="105.292985"><ele>371.13162</ele><time>2026-04-29T19:52:57.000Z</time></trkpt>
        <trkpt lat="28.832815" lon="105.292932"><ele>370.06396</ele><time>2026-04-29T19:53:02.000Z</time></trkpt>
        <trkpt lat="28.832789" lon="105.292888"><ele>368.01273</ele><time>2026-04-29T19:53:06.000Z</time></trkpt>
        <trkpt lat="28.832747" lon="105.292856"><ele>365.88586</ele><time>2026-04-29T19:53:13.000Z</time></trkpt>
        <trkpt lat="28.832723" lon="105.29281"><ele>365.04498</ele><time>2026-04-29T19:53:18.000Z</time></trkpt>
        <trkpt lat="28.832685" lon="105.29278"><ele>364.3133</ele><time>2026-04-29T19:53:22.000Z</time></trkpt>
        <trkpt lat="28.832647" lon="105.292734"><ele>363.2979</ele><time>2026-04-29T19:53:27.000Z</time></trkpt>
        <trkpt lat="28.832613" lon="105.292692"><ele>362.69043</ele><time>2026-04-29T19:53:33.000Z</time></trkpt>
        <trkpt lat="28.832577" lon="105.292654"><ele>362.60175</ele><time>2026-04-29T19:53:37.000Z</time></trkpt>
        <trkpt lat="28.832533" lon="105.292612"><ele>362.88577</ele><time>2026-04-29T19:53:42.000Z</time></trkpt>
        <trkpt lat="28.832503" lon="105.292568"><ele>362.08008</ele><time>2026-04-29T19:53:46.000Z</time></trkpt>
        <trkpt lat="28.832461" lon="105.292531"><ele>360.73422</ele><time>2026-04-29T19:53:51.000Z</time></trkpt>
        <trkpt lat="28.832428" lon="105.292485"><ele>360.16412</ele><time>2026-04-29T19:53:57.000Z</time></trkpt>
        <trkpt lat="28.832396" lon="105.292442"><ele>360.57016</ele><time>2026-04-29T19:54:00.000Z</time></trkpt>
        <trkpt lat="28.832371" lon="105.292396"><ele>359.38525</ele><time>2026-04-29T19:54:04.000Z</time></trkpt>
        <trkpt lat="28.832337" lon="105.292359"><ele>357.73343</ele><time>2026-04-29T19:54:08.000Z</time></trkpt>
        <trkpt lat="28.832317" lon="105.292312"><ele>355.9001</ele><time>2026-04-29T19:54:12.000Z</time></trkpt>
        <trkpt lat="28.832334" lon="105.292253"><ele>353.73438</ele><time>2026-04-29T19:54:17.000Z</time></trkpt>
        <trkpt lat="28.832377" lon="105.292236"><ele>353.22607</ele><time>2026-04-29T19:54:20.000Z</time></trkpt>
        <trkpt lat="28.832422" lon="105.292225"><ele>353.41174</ele><time>2026-04-29T19:54:24.000Z</time></trkpt>
        <trkpt lat="28.83248" lon="105.292219"><ele>353.7208</ele><time>2026-04-29T19:54:28.000Z</time></trkpt>
        <trkpt lat="28.832536" lon="105.292222"><ele>354.23666</ele><time>2026-04-29T19:54:33.000Z</time></trkpt>
        <trkpt lat="28.832587" lon="105.292244"><ele>354.08884</ele><time>2026-04-29T19:54:37.000Z</time></trkpt>
        <trkpt lat="28.832641" lon="105.292253"><ele>354.21564</ele><time>2026-04-29T19:54:41.000Z</time></trkpt>
        <trkpt lat="28.832699" lon="105.292242"><ele>353.02618</ele><time>2026-04-29T19:54:45.000Z</time></trkpt>
        <trkpt lat="28.832733" lon="105.292205"><ele>352.78256</ele><time>2026-04-29T19:54:48.000Z</time></trkpt>
        <trkpt lat="28.832756" lon="105.292157"><ele>351.2435</ele><time>2026-04-29T19:54:52.000Z</time></trkpt>
        <trkpt lat="28.832779" lon="105.292105"><ele>350.13013</ele><time>2026-04-29T19:54:56.000Z</time></trkpt>
        <trkpt lat="28.832789" lon="105.292049"><ele>348.13666</ele><time>2026-04-29T19:55:00.000Z</time></trkpt>
        <trkpt lat="28.832798" lon="105.291991"><ele>347.76736</ele><time>2026-04-29T19:55:04.000Z</time></trkpt>
        <trkpt lat="28.832793" lon="105.291932"><ele>346.6485</ele><time>2026-04-29T19:55:08.000Z</time></trkpt>
        <trkpt lat="28.832779" lon="105.291874"><ele>346.09497</ele><time>2026-04-29T19:55:12.000Z</time></trkpt>
        <trkpt lat="28.832749" lon="105.291822"><ele>345.24994</ele><time>2026-04-29T19:55:16.000Z</time></trkpt>
        <trkpt lat="28.832709" lon="105.29179"><ele>344.25403</ele><time>2026-04-29T19:55:19.000Z</time></trkpt>
        <trkpt lat="28.832661" lon="105.291762"><ele>343.90564</ele><time>2026-04-29T19:55:23.000Z</time></trkpt>
        <trkpt lat="28.832614" lon="105.291725"><ele>343.50604</ele><time>2026-04-29T19:55:27.000Z</time></trkpt>
        <trkpt lat="28.832577" lon="105.291676"><ele>342.76114</ele><time>2026-04-29T19:55:32.000Z</time></trkpt>
        <trkpt lat="28.832545" lon="105.291634"><ele>341.90335</ele><time>2026-04-29T19:55:36.000Z</time></trkpt>
        <trkpt lat="28.832503" lon="105.2916"><ele>340.81744</ele><time>2026-04-29T19:55:40.000Z</time></trkpt>
        <trkpt lat="28.832459" lon="105.291563"><ele>340.1092</ele><time>2026-04-29T19:55:44.000Z</time></trkpt>
        <trkpt lat="28.832422" lon="105.291525"><ele>339.21698</ele><time>2026-04-29T19:55:48.000Z</time></trkpt>
        <trkpt lat="28.832382" lon="105.291496"><ele>338.59195</ele><time>2026-04-29T19:55:52.000Z</time></trkpt>
        <trkpt lat="28.832367" lon="105.291442"><ele>337.571</ele><time>2026-04-29T19:55:57.000Z</time></trkpt>
        <trkpt lat="28.832361" lon="105.291388"><ele>337.87537</ele><time>2026-04-29T19:56:01.000Z</time></trkpt>
        <trkpt lat="28.832349" lon="105.291334"><ele>336.96747</ele><time>2026-04-29T19:56:05.000Z</time></trkpt>
        <trkpt lat="28.832341" lon="105.291281"><ele>335.74597</ele><time>2026-04-29T19:56:09.000Z</time></trkpt>
        <trkpt lat="28.832339" lon="105.291224"><ele>335.28238</ele><time>2026-04-29T19:56:13.000Z</time></trkpt>
        <trkpt lat="28.832338" lon="105.291164"><ele>334.52264</ele><time>2026-04-29T19:56:17.000Z</time></trkpt>
        <trkpt lat="28.832344" lon="105.291107"><ele>333.56055</ele><time>2026-04-29T19:56:21.000Z</time></trkpt>
        <trkpt lat="28.832352" lon="105.291054"><ele>333.1011</ele><time>2026-04-29T19:56:25.000Z</time></trkpt>
        <trkpt lat="28.832377" lon="105.291006"><ele>332.58487</ele><time>2026-04-29T19:56:29.000Z</time></trkpt>
        <trkpt lat="28.832416" lon="105.290969"><ele>332.79785</ele><time>2026-04-29T19:56:33.000Z</time></trkpt>
        <trkpt lat="28.832463" lon="105.290935"><ele>331.26373</ele><time>2026-04-29T19:56:37.000Z</time></trkpt>
        <trkpt lat="28.832513" lon="105.290917"><ele>330.8399</ele><time>2026-04-29T19:56:41.000Z</time></trkpt>
        <trkpt lat="28.832568" lon="105.2909"><ele>330.79434</ele><time>2026-04-29T19:56:46.000Z</time></trkpt>
        <trkpt lat="28.832622" lon="105.290884"><ele>331.4453</ele><time>2026-04-29T19:56:51.000Z</time></trkpt>
        <trkpt lat="28.832668" lon="105.290864"><ele>331.4608</ele><time>2026-04-29T19:56:55.000Z</time></trkpt>
        <trkpt lat="28.832713" lon="105.290844"><ele>331.7016</ele><time>2026-04-29T19:56:59.000Z</time></trkpt>
        <trkpt lat="28.832762" lon="105.290837"><ele>330.87256</ele><time>2026-04-29T19:57:03.000Z</time></trkpt>
        <trkpt lat="28.832815" lon="105.29082"><ele>330.20056</ele><time>2026-04-29T19:57:07.000Z</time></trkpt>
        <trkpt lat="28.83286" lon="105.290792"><ele>329.26883</ele><time>2026-04-29T19:57:11.000Z</time></trkpt>
        <trkpt lat="28.8329" lon="105.29076"><ele>327.48563</ele><time>2026-04-29T19:57:15.000Z</time></trkpt>
        <trkpt lat="28.832926" lon="105.290707"><ele>326.84085</ele><time>2026-04-29T19:57:19.000Z</time></trkpt>
        <trkpt lat="28.832935" lon="105.29065"><ele>325.7918</ele><time>2026-04-29T19:57:23.000Z</time></trkpt>
        <trkpt lat="28.832929" lon="105.29059"><ele>325.75888</ele><time>2026-04-29T19:57:27.000Z</time></trkpt>
        <trkpt lat="28.832916" lon="105.290535"><ele>324.1385</ele><time>2026-04-29T19:57:31.000Z</time></trkpt>
        <trkpt lat="28.832908" lon="105.290479"><ele>323.56625</ele><time>2026-04-29T19:57:36.000Z</time></trkpt>
        <trkpt lat="28.832895" lon="105.290426"><ele>322.93857</ele><time>2026-04-29T19:57:40.000Z</time></trkpt>
        <trkpt lat="28.832884" lon="105.290371"><ele>322.23178</ele><time>2026-04-29T19:57:44.000Z</time></trkpt>
        <trkpt lat="28.832864" lon="105.290314"><ele>321.60822</ele><time>2026-04-29T19:57:49.000Z</time></trkpt>
        <trkpt lat="28.832851" lon="105.290262"><ele>320.62378</ele><time>2026-04-29T19:57:53.000Z</time></trkpt>
        <trkpt lat="28.832831" lon="105.290202"><ele>319.99426</ele><time>2026-04-29T19:57:58.000Z</time></trkpt>
        <trkpt lat="28.83282" lon="105.290151"><ele>318.88443</ele><time>2026-04-29T19:58:03.000Z</time></trkpt>
        <trkpt lat="28.832796" lon="105.290102"><ele>318.39764</ele><time>2026-04-29T19:58:08.000Z</time></trkpt>
        <trkpt lat="28.832775" lon="105.290045"><ele>318.27438</ele><time>2026-04-29T19:58:14.000Z</time></trkpt>
        <trkpt lat="28.832768" lon="105.289994"><ele>317.6456</ele><time>2026-04-29T19:58:19.000Z</time></trkpt>
        <trkpt lat="28.832747" lon="105.289936"><ele>317.18323</ele><time>2026-04-29T19:58:27.000Z</time></trkpt>
        <trkpt lat="28.832731" lon="105.289886"><ele>316.8381</ele><time>2026-04-29T19:58:34.000Z</time></trkpt>
        <trkpt lat="28.832712" lon="105.289833"><ele>317.0283</ele><time>2026-04-29T19:58:42.000Z</time></trkpt>
      </trkseg>
  </trk>
</gpx>